GFSSE_850_thetae_000.txt.gz
Theta_e
345 347 349 350 349 349 347 344 345 346 345 344 345 335 334 334 334 334 334 333 333 335 336 336 335 335 334 335 338 341 340 340 340 339 338 336 333 335 338 337 331 326 324
342 346 347 348 346 344 343 344 345 344 343 343 340 335 336 334 333 334 333 332 335 336 335 333 335 335 336 337 338 339 340 340 342 343 340 336 331 331 338 336 327 327 336
340 341 342 342 342 342 345 346 345 344 341 341 340 337 334 335 335 334 335 336 335 334 331 335 336 335 334 334 337 337 339 339 340 343 343 335 331 331 332 326 324 327 334
340 340 341 341 342 345 346 346 345 342 337 336 334 334 333 332 333 334 335 336 334 333 334 336 337 336 335 335 335 336 339 340 340 344 344 339 332 329 328 325 324 329 326
341 341 343 343 344 345 341 339 337 337 336 333 331 330 332 333 333 334 335 335 334 335 335 334 335 336 336 337 337 337 339 340 340 342 344 341 336 329 325 330 322 328 324
342 343 343 344 344 343 337 341 341 341 340 339 338 337 336 337 337 336 336 336 335 333 333 334 335 336 336 337 337 339 341 339 343 344 342 340 340 330 330 337 325 331 335
343 343 344 344 343 342 340 339 341 339 339 341 340 339 338 338 337 335 333 332 331 331 333 335 335 336 337 336 337 340 343 340 342 345 345 342 337 332 330 337 328 325 323
343 343 344 343 343 342 341 342 342 341 339 338 340 339 338 338 337 332 331 331 332 334 335 335 335 335 335 334 333 336 337 340 339 343 345 340 332 332 327 324 328 324 323
343 342 344 343 342 340 339 341 342 341 339 337 336 336 337 336 336 335 336 337 336 338 337 335 334 334 333 334 340 340 337 341 342 346 345 340 332 331 327 325 323 325 328
341 340 342 343 342 342 341 338 339 340 338 336 336 337 338 339 340 339 343 342 340 339 335 335 340 336 332 336 341 342 340 345 346 345 346 344 340 330 333 329 324 324 327
343 340 342 341 340 341 342 341 340 339 338 336 338 339 340 341 344 335 342 335 342 343 343 338 343 343 343 340 340 341 345 344 344 344 346 344 342 336 328 333 327 324 323
349 346 344 344 342 341 340 341 340 339 337 337 338 340 342 343 347 346 344 346 344 345 342 342 342 342 342 344 340 341 344 346 344 344 344 344 344 339 333 327 330 325 324
349 348 348 348 346 344 343 342 342 340 339 341 339 343 346 346 347 345 344 345 345 344 343 344 344 344 343 343 343 344 343 341 343 343 345 346 344 344 339 331 328 327 326
348 348 348 349 347 349 347 346 347 348 346 346 347 348 346 343 343 345 345 342 342 344 344 344 344 345 341 341 340 343 344 343 341 343 343 346 343 343 343 339 329 331 324
349 349 351 351 347 351 350 350 349 349 349 349 348 348 347 348 346 347 344 344 342 342 342 343 342 342 342 342 342 341 343 343 341 340 342 342 342 343 343 342 339 329 330
349 351 351 351 348 349 351 349 351 349 348 351 351 348 347 349 348 346 346 344 343 343 340 341 342 341 339 338 339 340 343 344 343 341 339 341 341 343 343 344 341 339 332
349 353 350 351 350 348 349 352 350 353 352 350 350 349 347 348 344 345 344 343 343 344 343 341 341 340 339 339 338 338 339 341 344 343 343 343 342 342 345 345 344 341 339
346 349 349 349 347 348 347 347 346 346 345 346 343 346 347 345 346 347 345 344 343 342 342 343 342 339 336 335 333 332 330 331 337 342 342 343 342 342 342 343 344 343 341
347 347 348 347 346 347 347 348 348 347 346 346 345 345 345 344 345 344 345 345 344 342 342 339 338 338 336 333 330 329 331 330 330 334 339 341 343 344 343 342 340 342 344
346 346 348 348 347 348 352 350 349 346 346 344 344 344 345 345 347 346 349 344 341 339 339 339 337 336 336 334 336 330 328 328 330 332 331 337 341 343 344 344 343 341 342
346 347 348 348 347 349 349 347 347 344 344 345 345 346 347 348 348 343 340 339 335 333 333 335 333 333 333 338 333 332 331 330 332 336 337 340 337 338 342 342 341 342 342
346 348 348 348 345 344 344 341 342 339 334 341 342 342 343 342 342 339 334 329 332 336 335 333 337 335 335 336 335 336 336 334 336 336 335 335 335 341 342 341 341 340 341
349 346 346 346 344 344 338 338 338 340 336 337 339 341 343 340 336 331 327 328 332 332 334 335 334 336 337 336 336 337 337 337 334 333 333 334 336 340 339 340 339 339 339
349 346 347 344 334 332 335 334 336 341 339 333 340 342 339 337 327 330 335 332 333 334 332 328 334 335 336 334 334 334 334 335 335 335 332 331 330 332 335 336 336 337 338
351 352 349 335 335 334 331 321 332 340 330 333 336 336 336 330 332 333 334 336 336 332 326 329 329 330 330 331 333 332 332 331 330 330 328 324 323 324 325 327 328 332 335
352 352 351 334 334 335 323 326 335 333 325 329 333 333 333 329 326 331 334 335 334 326 323 326 329 329 332 332 329 327 327 327 325 326 328 322 321 320 319 324 325 327 328

GFSSE_850_thetae_003.txt.gz
Theta_e
349 346 347 345 345 346 345 346 345 346 346 346 342 342 339 335 335 334 333 333 335 336 336 335 334 334 335 337 339 340 340 340 338 337 337 334 333 336 335 332 324 324 324
348 350 350 348 348 346 346 346 347 346 346 341 336 335 335 334 334 334 332 334 335 334 332 333 335 335 336 336 337 338 338 341 342 339 337 332 331 331 335 329 324 334 325
347 348 349 349 346 344 346 346 345 345 344 335 336 335 334 334 334 333 331 334 333 330 334 335 334 333 333 333 335 336 338 339 343 343 337 330 328 335 331 329 323 334 327
345 346 345 344 344 346 346 345 343 343 342 336 337 335 334 332 333 334 335 333 331 332 333 335 335 334 335 335 335 335 338 339 339 344 342 338 327 333 329 326 321 330 328
341 342 342 343 346 347 346 344 341 339 340 337 335 333 334 334 334 335 334 333 333 334 334 332 333 334 335 336 336 337 338 336 340 343 343 335 331 330 326 332 324 329 324
341 342 343 345 346 344 342 340 338 334 333 332 332 333 334 333 334 335 334 334 333 331 331 333 334 335 336 337 338 339 340 338 343 343 343 337 333 328 334 327 330 329 323
342 343 344 344 341 337 338 337 337 337 336 335 336 336 337 337 336 335 334 332 329 330 332 334 334 334 336 337 338 339 340 339 341 344 343 342 334 327 335 338 327 335 334
343 343 343 343 339 339 342 341 341 341 340 340 339 339 338 337 335 332 330 331 331 333 335 335 334 333 334 335 335 339 338 339 338 342 345 342 334 331 325 331 327 325 326
343 343 342 342 341 339 340 341 341 339 339 340 338 338 337 337 334 333 336 338 336 338 338 335 333 334 332 334 340 340 337 340 343 344 345 340 335 333 327 323 336 325 325
343 343 342 342 341 341 342 343 342 340 338 337 335 336 337 338 339 339 342 342 339 337 335 335 340 337 334 336 341 342 341 343 344 343 345 344 342 332 330 329 323 326 328
344 344 344 341 340 339 339 341 341 340 337 335 336 338 340 342 343 337 341 335 336 342 342 339 342 342 342 340 339 339 342 342 342 343 344 343 343 338 329 332 327 323 328
340 343 350 349 341 342 341 339 340 340 338 337 338 340 342 342 346 345 343 343 343 345 342 341 341 342 342 344 342 342 342 344 344 340 344 344 343 343 336 328 330 325 324
341 340 342 342 340 341 341 341 340 340 338 337 339 342 346 345 346 343 341 343 343 344 342 342 342 343 339 340 341 342 343 342 340 343 343 344 344 343 341 334 327 328 325
344 344 344 344 343 342 343 342 341 340 339 343 341 348 347 343 345 344 344 341 340 341 343 343 341 341 341 340 340 341 341 343 343 341 338 342 345 342 343 341 331 328 326
348 347 347 347 346 345 345 345 346 347 345 346 347 348 348 345 345 346 344 344 343 341 341 340 341 342 341 339 339 339 338 340 342 342 339 340 340 341 343 343 341 332 329
347 347 347 348 347 351 349 348 349 349 347 349 347 347 346 344 345 346 345 344 343 342 341 341 341 339 339 338 337 336 336 337 340 342 341 339 339 340 341 343 343 340 334
348 346 350 349 348 349 349 347 345 346 346 348 348 347 347 346 348 344 343 341 343 342 342 341 341 341 340 336 334 332 331 332 331 338 342 341 342 342 341 342 344 344 341
349 350 350 350 351 350 349 349 352 348 348 349 349 348 347 347 347 344 344 343 344 344 343 341 341 337 334 332 330 328 327 326 324 327 331 338 341 343 342 341 342 342 343
349 347 351 351 351 349 349 350 349 348 346 346 346 345 345 346 345 343 343 342 345 345 342 341 337 336 333 331 328 331 328 327 327 326 328 331 339 342 343 342 342 342 341
348 346 346 349 348 347 348 348 347 348 347 347 347 345 343 343 344 344 345 348 343 338 335 332 334 332 330 332 334 331 330 329 330 334 334 333 334 338 343 344 343 343 342
346 346 347 349 348 348 349 349 350 349 347 347 346 347 347 346 347 347 341 339 337 333 333 332 329 330 332 335 335 332 330 331 332 336 335 337 336 338 335 338 341 341 341
346 346 347 348 348 345 344 347 348 346 343 342 345 344 343 343 341 341 338 333 329 328 329 330 334 335 334 336 335 334 333 334 333 331 331 332 332 336 338 340 341 340 340
346 346 347 348 345 339 340 344 345 343 337 335 341 340 335 342 339 335 330 324 326 329 332 329 329 334 337 336 335 334 335 335 332 331 331 330 330 332 334 338 338 338 338
346 346 347 346 342 338 343 340 333 332 336 333 332 334 339 342 335 327 331 331 332 334 332 326 328 332 334 333 332 332 332 333 333 332 328 324 322 322 324 327 330 332 333
347 348 342 342 341 337 341 335 331 332 336 336 329 334 339 336 329 328 332 333 334 334 328 326 328 328 329 329 332 329 330 329 329 325 322 320 320 319 319 319 323 325 327
346 347 344 342 336 333 331 330 326 330 330 327 330 334 335 331 329 327 333 335 334 330 324 325 328 327 329 331 328 324 324 324 325 324 323 320 319 318 317 318 319 319 320

GFSSE_850_thetae_006.txt.gz
Theta_e
346 345 344 342 341 340 340 340 344 345 345 345 344 341 337 336 335 333 331 331 332 334 334 333 333 334 336 337 339 339 340 340 337 337 337 332 331 335 335 328 324 323 326
346 345 344 344 344 342 341 343 345 345 344 342 342 340 334 333 332 332 331 333 334 331 332 334 333 333 334 335 336 338 339 341 340 339 335 331 327 331 332 324 328 323 324
348 347 346 346 345 346 346 346 346 345 341 339 338 335 333 332 332 331 330 333 331 332 335 334 333 333 334 335 335 336 339 340 342 343 334 326 328 331 334 323 330 329 329
349 348 347 346 345 346 346 345 345 342 335 335 334 334 334 334 333 331 333 332 330 332 334 334 335 335 335 335 336 337 339 337 341 344 340 336 326 330 330 325 335 330 335
348 348 346 345 346 346 345 344 344 336 336 334 334 333 333 332 334 334 333 332 333 334 331 332 335 335 336 337 337 339 338 337 339 344 342 339 328 325 328 325 336 324 334
344 344 344 345 346 344 343 342 342 336 337 335 335 335 334 335 335 334 333 334 333 330 332 333 335 336 336 338 338 340 339 339 343 343 344 337 333 324 334 323 331 323 323
342 343 344 346 345 344 342 339 339 338 336 334 333 334 333 334 335 334 334 332 329 330 333 334 334 334 336 336 335 337 339 339 341 343 343 341 337 327 337 331 335 337 324
343 344 345 344 343 341 340 336 334 333 332 332 335 336 336 337 335 333 330 331 332 333 335 335 334 333 334 334 335 339 337 338 339 342 344 343 339 332 330 335 327 330 334
344 344 343 340 338 338 337 338 338 338 338 339 339 338 338 337 334 332 336 338 336 337 339 336 334 337 333 333 339 340 337 339 342 344 344 343 338 333 327 328 327 324 331
343 342 342 340 337 341 341 340 339 340 340 339 338 337 336 336 337 338 342 339 339 338 337 339 341 340 341 339 339 339 341 342 343 343 344 345 342 336 331 328 337 329 329
343 343 341 340 339 339 341 341 341 339 338 339 336 336 337 340 342 337 339 340 336 342 342 340 341 341 341 341 339 340 340 341 341 342 344 343 342 341 336 330 328 326 333
343 342 341 341 340 340 341 342 341 340 338 336 336 338 339 341 345 344 343 343 344 342 342 340 340 340 339 342 344 344 343 342 341 340 342 343 342 343 342 334 331 325 339
342 344 343 341 340 339 339 339 339 340 338 337 338 339 344 345 345 344 342 342 341 343 343 342 340 342 341 340 339 340 340 343 342 339 340 342 343 343 343 343 329 329 331
340 341 342 342 341 341 341 341 340 340 338 337 337 339 346 344 343 343 344 341 340 340 341 342 342 341 340 340 337 337 338 339 342 342 341 338 341 343 342 343 343 330 328
341 339 341 342 342 340 341 341 341 340 339 342 341 342 347 345 343 344 345 342 342 342 341 340 339 340 340 339 337 336 335 335 338 340 341 339 339 341 341 342 343 342 330
343 342 343 343 344 343 343 344 343 344 343 346 346 346 348 344 342 344 345 343 342 342 341 342 341 340 339 339 337 334 334 333 333 335 341 341 339 338 339 341 343 343 341
345 344 343 344 345 345 345 345 346 348 349 347 347 346 346 344 344 344 343 342 341 342 343 342 341 341 340 335 332 330 327 326 326 326 331 341 340 341 341 340 341 343 343
347 345 346 347 348 345 350 348 345 344 345 345 348 349 346 346 345 346 344 342 343 342 344 343 341 340 336 333 331 328 328 325 325 326 322 326 337 341 341 341 341 342 343
347 346 345 348 348 348 348 346 347 349 348 347 348 346 346 344 346 345 344 344 343 344 343 341 339 337 333 330 327 329 330 328 326 327 327 325 326 333 340 342 342 341 341
348 349 349 348 348 348 347 345 345 345 346 347 348 347 346 345 344 342 344 343 345 340 336 332 329 331 329 332 332 331 331 330 332 333 335 335 334 334 333 338 342 343 342
347 349 348 349 348 347 346 347 348 347 347 347 348 347 344 345 344 344 345 341 338 336 332 331 330 325 332 333 334 330 331 331 333 333 334 333 334 335 337 335 336 340 341
347 348 347 346 347 347 346 346 348 350 350 350 348 347 346 345 344 344 340 336 333 329 325 324 325 332 332 335 333 332 330 335 334 330 331 331 331 331 334 337 339 339 339
347 347 346 346 346 347 346 347 349 351 346 341 338 339 341 336 340 339 335 331 323 323 327 328 326 329 334 334 333 331 332 332 329 331 330 326 323 324 327 331 334 337 338
346 346 346 345 346 347 346 345 345 342 337 334 328 330 332 334 339 334 325 323 326 328 332 329 325 327 331 332 330 330 330 332 331 329 324 321 320 319 319 319 322 325 328
346 346 345 345 345 346 346 344 344 340 338 339 336 334 332 338 337 329 324 328 330 332 332 327 325 327 328 329 331 328 327 328 327 324 322 320 319 318 317 318 319 319 319
346 347 346 345 340 341 344 344 343 336 337 336 332 326 327 334 332 327 327 331 332 331 328 325 326 327 329 331 329 324 324 324 324 323 322 321 320 318 318 317 315 317 317

GFSSE_850_thetae_009.txt.gz
Theta_e
346 347 345 342 341 343 342 345 343 342 339 339 338 337 335 335 335 333 330 330 333 333 333 333 334 335 335 335 337 338 340 339 337 337 334 330 330 334 334 328 324 340 327
344 344 343 341 341 343 344 345 345 342 340 341 338 335 335 334 333 330 333 334 331 332 334 333 332 333 334 334 335 338 340 341 339 338 333 328 329 332 329 323 327 326 337
344 343 342 341 340 341 344 345 343 344 343 342 339 335 333 332 331 330 333 331 331 334 335 334 333 334 335 335 336 338 339 341 342 341 334 329 337 330 332 322 333 323 336
344 344 344 343 342 343 344 345 344 341 342 340 336 334 333 333 332 330 333 330 331 334 334 335 335 335 336 335 337 339 338 338 341 343 339 337 340 329 328 322 334 332 335
347 346 346 345 345 345 345 344 342 337 337 336 335 334 334 333 331 333 333 332 334 334 333 334 335 335 336 336 337 340 338 339 341 343 343 338 336 333 328 326 327 337 335
348 347 345 345 345 345 345 344 338 335 334 334 333 333 332 334 334 334 333 334 332 331 333 335 335 335 335 335 336 339 339 339 342 343 344 339 335 327 330 324 326 328 327
346 345 345 345 345 344 343 343 335 336 334 334 334 333 334 334 334 334 334 331 329 331 334 335 334 334 333 334 333 336 339 339 339 342 343 341 337 328 338 327 333 324 322
345 345 345 345 344 342 340 341 337 336 334 333 334 333 333 334 335 334 331 332 333 334 337 337 335 336 333 334 337 338 336 338 343 341 344 343 340 334 331 334 330 337 327
344 345 345 346 343 342 337 337 335 333 332 334 335 336 337 337 334 331 335 340 338 338 337 336 339 339 335 335 338 339 339 340 342 343 344 344 339 333 330 331 327 323 335
347 346 346 345 346 342 336 335 335 336 337 338 338 338 338 337 335 336 341 339 338 340 339 339 342 341 341 339 338 338 340 340 341 341 344 344 343 340 332 329 334 326 327
347 349 348 341 339 337 338 340 340 340 339 339 338 337 336 338 340 338 340 342 342 339 343 340 340 341 341 342 341 342 342 341 341 342 341 343 342 342 338 333 329 334 329
347 343 342 338 339 341 341 340 340 339 339 339 337 336 338 340 342 344 344 342 344 342 341 340 339 342 339 340 340 340 342 340 342 339 341 342 342 342 343 341 330 327 333
342 344 341 341 339 339 341 342 341 340 338 336 336 337 339 343 345 345 343 342 340 342 343 342 342 340 340 339 339 337 338 339 342 342 342 339 341 342 342 343 341 329 328
341 342 341 341 340 340 340 340 340 339 338 337 337 338 340 344 344 344 344 342 342 342 341 341 341 339 339 340 338 337 336 334 336 340 341 341 338 341 342 342 343 338 328
341 341 341 341 341 340 340 339 340 339 339 338 337 338 342 347 343 342 345 344 342 342 341 341 341 340 340 339 338 336 334 333 333 334 336 341 339 339 342 341 342 343 341
341 340 341 342 341 340 341 340 341 340 340 339 342 342 345 347 343 342 344 343 342 341 342 342 341 340 341 339 336 332 330 328 327 329 332 339 340 339 338 339 340 343 343
342 341 340 341 342 342 342 342 343 342 344 344 345 348 346 345 342 342 342 342 341 341 342 342 343 342 340 337 334 331 328 326 324 323 324 326 338 340 339 341 340 341 343
344 343 342 342 344 344 343 344 345 346 348 348 345 344 345 345 344 343 343 343 341 343 342 345 343 342 339 335 331 327 327 329 326 323 324 322 322 333 340 341 341 341 342
345 345 344 344 344 345 345 348 347 344 344 345 345 348 345 345 344 344 344 343 343 343 343 342 338 334 330 329 328 332 331 330 328 327 327 328 325 324 327 336 342 342 341
347 347 345 345 348 347 345 346 345 344 345 345 347 346 347 346 345 343 342 343 344 344 339 335 332 331 328 328 328 333 330 331 332 333 335 335 335 334 333 328 334 342 343
348 348 347 347 347 347 348 347 346 344 344 345 345 346 346 346 344 343 344 344 344 338 335 332 331 327 336 329 333 336 332 333 332 331 333 333 332 333 334 338 335 336 341
350 348 348 348 347 349 348 347 346 345 347 348 348 348 346 346 344 344 344 343 337 333 327 322 327 333 333 332 337 332 334 337 337 335 332 329 327 328 331 334 337 338 339
349 349 347 347 344 346 348 348 348 347 347 345 346 344 343 344 341 338 340 336 331 321 324 326 327 326 335 332 332 334 335 335 334 334 330 322 320 319 320 322 326 331 335
347 348 347 347 345 345 347 348 348 346 349 349 343 336 337 339 333 339 337 328 320 323 324 325 324 325 327 335 329 329 330 333 334 333 329 321 319 318 318 318 319 319 321
345 346 346 346 346 345 346 347 347 346 347 344 338 331 332 333 332 337 332 321 325 326 328 328 323 324 324 327 330 330 326 326 324 330 327 327 325 319 318 317 316 316 317
345 346 346 346 345 345 346 346 346 343 344 338 336 335 335 328 334 333 326 323 330 330 330 325 323 324 326 328 330 325 329 329 329 330 329 329 327 325 321 320 318 317 318

GFSSE_850_thetae_012.txt.gz
Theta_e
346 345 343 343 342 342 343 341 340 339 338 335 334 333 334 336 335 332 331 334 333 333 333 332 332 334 334 334 337 339 341 338 338 335 330 329 330 332 326 322 336 341 330
346 344 341 341 341 342 341 341 339 339 339 336 335 335 336 334 331 334 335 332 332 334 333 332 334 335 334 335 336 338 340 340 340 337 332 340 336 333 324 328 338 335 328
349 345 342 344 344 345 344 343 341 339 339 336 336 335 334 332 332 334 332 331 334 334 334 334 334 335 335 336 338 338 338 341 343 339 341 340 341 333 325 332 322 334 339
348 348 346 341 343 344 343 344 341 341 341 337 335 334 333 331 330 333 331 330 333 334 334 335 334 335 336 336 338 339 338 339 343 343 345 340 340 328 327 334 329 334 332
349 348 344 341 342 345 344 342 341 341 340 337 334 333 332 333 331 334 332 333 334 332 333 334 334 334 335 336 338 340 339 340 343 346 346 343 341 334 325 334 332 335 338
351 352 345 345 345 345 344 340 340 340 338 335 333 333 333 332 334 334 333 334 331 330 333 334 334 333 333 334 334 337 339 339 344 346 346 341 342 331 325 332 326 332 332
351 352 346 345 345 344 343 337 335 334 334 334 333 332 334 334 334 334 333 330 330 332 335 336 335 335 332 333 336 338 337 339 346 349 346 345 344 328 335 330 323 323 335
352 353 349 345 344 344 342 336 336 334 334 333 333 334 334 334 335 334 331 334 335 335 338 337 336 337 332 333 337 338 337 339 350 350 349 346 338 332 333 330 336 334 330
351 351 352 349 344 342 343 341 336 335 334 333 334 334 334 336 335 332 336 339 340 339 337 339 341 341 340 336 337 338 340 341 348 348 349 349 340 333 330 329 327 328 330
351 353 352 352 350 349 346 341 337 335 333 334 337 338 338 337 335 336 339 343 337 340 341 340 341 341 341 340 340 341 340 347 347 347 349 349 344 341 332 329 330 325 337
351 353 352 351 351 352 348 337 334 334 335 338 339 338 340 347 350 349 345 343 342 341 343 339 339 340 339 344 341 339 343 349 346 346 348 344 342 342 340 329 329 333 326
353 352 351 352 353 350 349 348 349 348 347 347 347 346 346 349 349 347 346 341 342 342 342 341 340 342 348 347 347 345 345 346 348 348 347 341 341 342 343 340 331 328 331
351 351 350 351 352 351 350 350 350 349 348 348 346 343 348 349 350 351 349 348 347 344 350 349 349 348 348 347 346 345 345 345 345 347 348 342 340 340 342 343 341 330 325
350 350 351 351 351 351 351 350 350 349 348 347 347 339 347 347 350 348 349 349 346 349 349 349 348 348 347 346 345 345 344 344 342 342 345 343 340 339 341 342 343 342 329
350 351 351 352 352 352 350 350 349 349 348 347 348 347 347 349 347 345 345 348 345 349 349 348 348 347 348 346 346 344 342 341 340 340 341 341 341 339 339 341 341 343 343
349 350 351 352 352 351 350 349 350 350 349 349 348 348 341 347 349 350 349 348 348 347 349 347 347 347 348 347 345 343 340 337 337 338 338 340 340 341 340 339 339 341 343
349 349 352 353 352 352 351 350 350 351 350 349 349 351 346 345 345 343 348 348 348 348 341 347 347 347 349 345 342 340 337 337 335 337 337 336 339 343 341 339 340 340 341
349 350 351 351 352 352 353 352 351 351 351 351 351 351 346 349 345 348 349 349 348 347 346 345 346 347 342 339 336 335 335 337 338 337 336 337 335 334 341 342 341 341 341
351 352 351 350 350 352 351 352 352 353 350 350 350 350 350 346 349 347 349 347 345 347 347 344 345 342 338 335 333 333 337 338 338 336 338 339 340 339 335 338 338 340 342
352 353 353 351 352 353 353 350 349 352 351 351 350 351 349 346 348 346 347 347 343 344 346 344 341 340 338 336 334 336 338 339 338 338 338 337 338 341 341 342 341 344 342
353 354 355 354 354 352 351 352 352 351 351 351 351 348 349 348 346 346 348 347 344 346 345 343 339 336 334 337 337 335 338 338 338 338 338 334 334 336 340 343 342 342 343
353 355 356 356 354 352 353 353 352 352 350 351 351 350 349 349 347 347 347 347 344 343 343 339 337 335 335 337 336 335 334 337 337 337 336 331 330 332 334 337 340 339 342
352 355 356 356 355 355 354 353 353 352 351 352 350 350 350 347 347 345 345 345 343 336 334 338 338 336 336 338 337 336 334 334 333 336 336 331 329 329 330 331 333 328 330
352 353 355 354 350 354 354 355 354 351 348 346 347 346 347 347 348 346 343 343 332 335 337 338 337 336 331 335 335 336 335 334 334 333 332 330 327 327 326 326 327 325 319
351 352 354 349 347 351 355 351 355 354 348 348 348 347 342 346 344 343 343 334 323 330 338 337 336 331 336 334 334 335 335 333 333 331 329 330 329 327 326 325 325 324 326
350 352 352 350 346 347 349 348 353 354 351 348 348 345 343 344 344 343 342 327 327 336 338 337 332 330 330 335 335 334 331 331 330 330 329 330 331 329 327 327 326 325 325

GFSSE_850_thetae_015.txt.gz
Theta_e
346 346 344 344 343 343 342 339 337 335 332 330 331 334 336 337 334 331 334 333 334 334 333 333 334 334 335 336 337 340 340 339 340 331 338 339 331 325 322 333 340 344 329
346 345 343 342 343 342 340 339 337 335 334 334 335 336 334 332 334 334 332 333 334 333 333 334 334 335 335 337 338 339 341 341 340 338 343 343 331 326 327 336 344 334 333
350 345 341 342 342 341 340 339 339 336 336 335 336 335 332 333 334 332 331 334 334 334 333 334 334 335 336 337 340 338 338 342 342 341 343 345 338 324 328 325 331 336 335
347 349 346 344 344 342 341 339 339 337 336 336 335 334 331 330 333 331 331 333 334 333 333 334 334 334 336 335 339 339 339 340 344 344 346 343 344 325 330 327 331 333 333
349 350 344 344 344 344 341 340 341 338 335 335 334 333 332 332 333 333 333 334 331 331 333 334 334 333 334 334 335 339 339 341 344 344 344 343 344 328 331 331 335 332 342
349 350 342 344 345 343 342 341 341 340 337 334 332 332 333 332 334 333 334 331 329 331 334 335 334 333 332 334 336 337 337 340 346 346 347 339 340 332 328 335 339 334 333
351 350 345 345 345 344 341 339 339 338 335 333 333 333 333 335 335 334 332 331 333 333 336 336 335 335 331 334 338 337 335 343 347 349 347 348 339 331 328 324 329 332 336
351 350 347 345 344 343 337 336 335 334 334 333 333 334 335 335 335 333 332 339 337 337 336 337 340 338 333 335 337 338 340 341 350 348 349 348 334 328 330 329 333 323 331
351 352 352 349 344 342 336 334 334 334 333 333 334 334 334 336 334 332 339 338 338 339 338 339 341 341 339 337 340 338 342 346 348 348 347 347 341 331 328 325 328 330 334
352 350 351 351 351 349 337 336 335 334 333 334 334 334 337 336 336 341 341 345 341 339 343 339 339 339 339 340 340 339 347 347 347 347 347 346 343 340 330 328 325 327 328
351 350 350 350 349 351 351 344 336 335 333 335 338 338 337 349 349 349 350 343 342 343 342 339 339 340 346 346 345 343 347 348 348 347 346 343 341 342 339 330 333 326 330
352 351 352 351 350 349 347 344 346 345 346 346 348 349 344 349 350 347 348 342 341 340 341 343 341 346 347 347 347 346 346 344 348 349 347 345 338 341 343 340 331 332 328
350 352 352 349 351 349 349 349 350 350 350 348 350 349 348 350 350 350 350 350 349 347 350 348 347 348 348 346 345 346 344 345 341 344 347 346 341 338 342 343 340 333 326
350 349 349 352 351 349 349 349 349 348 347 348 349 350 350 349 349 350 350 349 348 349 348 348 349 348 347 347 346 346 345 343 340 341 345 344 341 338 340 342 343 338 331
349 349 349 351 352 352 353 349 349 348 347 348 348 350 349 348 349 350 350 350 351 348 348 348 347 349 346 347 346 345 344 342 341 338 341 341 339 340 338 340 341 342 340
349 349 350 352 353 353 351 354 351 349 349 347 349 349 349 348 350 349 349 349 349 348 348 348 350 346 345 345 343 342 339 338 336 336 336 340 339 338 340 339 339 340 343
350 350 351 352 353 353 353 352 351 350 348 349 348 350 350 350 350 349 349 350 348 348 348 348 347 348 345 344 340 338 336 337 336 338 337 336 339 338 339 340 339 340 340
349 350 351 351 352 353 353 354 353 350 350 349 349 350 352 352 352 351 350 349 348 349 349 349 348 346 343 340 336 335 335 337 339 339 338 338 336 336 338 338 340 340 341
349 351 352 352 352 353 353 353 352 351 351 352 352 349 352 350 351 351 349 350 349 348 348 345 346 344 340 337 334 332 337 339 338 338 337 339 341 338 337 339 338 335 339
350 352 353 352 352 353 353 352 354 353 353 352 350 351 351 350 351 352 350 350 348 350 348 346 345 341 339 338 335 334 337 339 339 338 339 338 338 341 342 342 343 342 340
350 353 354 354 353 353 354 353 353 353 350 350 349 353 352 348 351 349 347 349 350 346 348 345 342 337 336 339 338 339 338 338 340 338 338 335 335 336 339 341 343 346 344
351 352 354 355 354 354 355 353 352 351 350 350 348 350 352 353 354 350 349 349 349 347 344 343 339 337 336 339 338 336 337 338 337 338 337 333 333 333 336 339 340 338 342
351 353 355 354 355 355 354 353 353 355 351 352 349 352 351 350 350 348 350 347 350 342 337 338 340 338 338 338 336 338 336 339 335 336 337 333 331 331 332 334 335 333 335
351 354 354 355 354 356 355 355 353 352 348 346 346 346 349 350 348 350 349 347 345 339 337 339 339 337 334 337 336 337 332 335 337 335 334 333 330 330 327 329 329 329 328
351 353 356 356 356 356 356 353 354 352 347 348 346 349 349 348 348 347 346 347 343 328 338 342 339 333 340 337 335 335 337 335 332 333 332 333 332 330 329 328 327 326 326
349 352 354 356 356 355 355 353 353 354 349 348 349 350 346 345 346 346 346 345 339 337 341 340 339 339 335 337 337 335 333 332 333 332 331 331 332 331 330 329 329 328 327

GFSSE_850_thetae_018.txt.gz
Theta_e
344 343 343 342 342 343 340 338 336 332 329 331 332 336 337 333 333 334 333 333 333 332 334 335 335 335 336 337 339 340 340 338 337 340 334 331 324 320 330 341 343 338 335
345 344 343 342 342 342 339 336 333 330 330 333 335 335 331 333 334 332 334 334 334 334 334 334 335 336 336 339 337 338 342 338 340 343 344 340 324 325 329 343 338 325 334
347 344 343 343 343 340 337 335 333 332 333 335 334 332 334 334 332 332 333 334 333 333 334 334 334 335 335 338 338 337 339 341 342 344 343 345 328 324 327 338 331 336 330
348 343 343 342 341 339 338 336 334 334 336 336 333 332 331 333 331 331 333 333 331 333 334 334 334 333 334 334 338 338 341 343 344 346 347 344 342 326 322 325 336 332 336
348 348 342 341 340 339 339 338 336 336 336 335 333 332 331 332 332 333 333 330 330 333 334 335 333 332 333 333 334 336 339 344 343 340 345 344 341 328 328 332 332 335 337
351 345 344 344 342 340 339 339 337 336 335 334 333 332 331 333 333 334 330 332 331 333 336 334 337 332 332 336 336 334 339 345 346 344 343 341 332 326 330 335 332 340 330
350 344 344 343 342 341 341 341 339 336 335 332 332 332 333 334 334 332 331 337 334 336 335 338 337 331 332 336 337 337 340 346 347 348 348 346 330 328 324 333 327 331 333
349 347 344 344 342 340 340 340 339 336 333 332 332 333 334 334 334 331 339 339 338 336 337 339 340 340 335 338 338 339 341 346 349 346 346 345 330 328 328 324 325 334 329
350 351 345 344 343 339 338 337 335 334 333 332 333 334 334 335 333 335 339 341 337 339 341 338 339 339 339 339 339 343 347 347 347 348 347 336 339 328 326 331 331 326 328
350 352 350 345 342 336 334 333 332 332 332 333 333 333 336 336 348 348 348 344 341 343 341 338 337 340 345 344 340 346 346 342 347 346 346 340 341 336 329 324 325 329 330
351 350 351 352 346 343 335 334 333 333 333 334 334 337 337 348 348 352 350 346 340 339 341 339 341 345 346 346 344 345 347 346 343 335 348 343 338 342 334 328 325 329 329
351 351 349 350 350 347 350 336 335 333 333 337 341 345 341 349 351 348 346 347 345 346 343 346 346 348 347 349 346 347 348 341 344 345 340 345 342 338 342 334 328 328 327
349 349 351 347 349 348 350 339 336 341 343 344 348 350 349 350 349 351 348 347 350 351 348 348 349 347 348 345 344 344 342 343 344 346 342 344 343 340 340 343 337 329 327
349 352 349 347 346 349 348 344 349 350 348 349 350 347 346 347 349 350 350 350 351 348 349 348 349 349 346 345 346 345 342 343 342 342 344 343 339 337 338 341 342 334 329
343 353 353 349 349 351 348 349 350 349 348 349 349 347 343 349 350 351 348 347 347 350 350 347 346 347 347 345 344 342 342 339 340 338 341 338 340 335 339 339 341 342 334
349 350 353 352 346 352 348 351 351 347 349 347 348 350 349 345 350 351 347 347 347 348 345 346 346 347 342 342 342 342 340 337 337 336 336 340 336 337 336 339 338 340 342
348 349 349 352 350 349 347 351 350 352 349 348 350 350 346 348 344 345 348 349 347 348 347 347 346 343 342 344 345 338 335 336 337 337 337 337 340 337 336 335 338 338 338
349 349 351 352 354 351 350 351 348 347 348 349 351 348 350 350 349 348 349 349 350 349 348 350 343 347 342 341 337 335 334 338 339 339 338 337 337 340 337 336 337 338 339
349 350 350 351 352 354 349 351 351 351 350 348 349 352 348 350 350 348 348 349 351 349 346 345 346 344 342 339 335 334 335 339 336 339 337 340 339 338 341 340 338 337 331
349 350 351 352 352 352 352 348 354 349 351 348 350 348 351 349 352 349 346 350 347 344 346 346 345 342 335 336 338 334 337 338 335 339 340 338 335 340 340 341 341 344 339
349 350 351 351 351 355 354 353 350 352 351 348 349 351 350 350 346 346 347 347 346 343 349 346 342 337 337 338 336 338 340 335 337 337 338 336 334 337 338 340 343 344 343
349 350 351 352 352 351 354 353 351 348 351 348 349 348 351 349 346 349 345 346 347 346 347 346 337 332 338 338 334 337 338 338 337 337 336 333 332 334 337 337 340 340 340
350 351 352 353 353 353 352 352 350 353 354 354 352 348 351 349 348 350 347 347 350 349 343 341 339 336 338 340 338 338 341 340 337 337 336 334 329 332 332 331 331 327 339
350 351 352 352 353 352 351 356 352 353 353 351 352 349 346 351 346 349 347 347 348 343 338 338 336 335 333 339 336 337 332 332 338 338 335 333 331 330 329 330 328 328 325
350 353 353 353 354 352 352 353 356 353 350 345 346 347 348 351 348 350 350 349 343 334 337 338 341 327 339 336 336 336 336 333 331 330 333 332 331 330 330 328 327 326 328
350 353 353 354 355 354 353 352 354 355 348 351 348 348 348 349 346 347 348 344 341 320 339 337 331 328 336 337 337 336 333 333 334 333 332 331 331 331 331 330 329 329 328

GFSSE_850_thetae_021.txt.gz
Theta_e
344 345 344 343 343 343 340 332 329 331 333 336 337 336 331 332 332 333 332 332 333 334 334 335 335 336 338 338 339 340 335 336 335 334 326 323 320 333 340 339 338 334 329
344 344 343 343 343 341 339 332 329 332 333 335 335 331 332 332 333 333 333 333 333 334 334 334 335 334 339 337 337 341 337 340 342 343 339 323 324 333 341 341 332 333 327
343 342 342 342 340 338 336 332 330 334 335 334 332 334 332 331 332 333 333 332 333 334 334 334 334 334 335 338 338 340 340 342 345 345 344 334 326 332 341 335 332 330 326
342 342 342 341 339 337 333 331 332 335 334 332 333 333 332 330 332 333 330 330 332 334 335 334 332 332 332 334 338 342 342 344 345 345 343 342 328 322 330 336 333 332 326
343 343 343 340 338 335 333 331 332 335 334 332 330 330 332 332 333 331 330 330 332 335 335 334 333 331 334 335 335 339 343 343 342 343 342 342 328 328 333 328 336 333 333
342 341 341 340 338 337 334 332 334 335 334 333 331 331 332 333 333 330 334 333 333 337 336 338 333 331 335 336 334 338 344 344 343 344 343 340 328 328 331 332 337 331 335
344 342 341 339 338 338 336 335 335 335 334 332 332 331 333 333 332 333 338 337 337 335 338 340 338 333 337 337 338 338 345 346 345 343 345 344 328 327 336 329 338 330 333
343 342 342 341 339 340 338 335 335 335 333 332 332 333 334 333 331 337 339 337 338 339 338 339 339 337 339 339 345 345 345 345 345 346 336 339 327 325 329 327 332 330 334
343 344 341 341 341 340 340 338 336 334 332 332 332 333 334 334 338 345 342 342 341 341 337 337 337 342 341 342 346 345 342 345 341 338 341 340 329 324 328 323 327 329 328
346 344 344 341 339 338 337 337 335 333 332 332 333 333 336 347 348 350 346 341 340 342 338 339 345 345 345 344 345 345 345 345 340 338 342 341 341 328 323 327 324 328 331
350 344 343 341 337 335 334 333 332 331 332 333 333 336 341 347 346 350 347 344 341 340 342 344 345 345 347 341 346 345 345 341 344 338 339 341 340 339 327 323 326 329 329
350 345 343 340 336 333 332 332 332 332 333 334 337 343 346 348 347 348 347 344 348 347 346 346 345 347 343 343 342 344 345 345 345 342 342 344 341 340 340 327 324 329 329
351 350 348 343 338 336 333 333 333 333 335 338 338 345 347 348 341 344 348 346 346 347 347 346 346 345 345 344 341 341 342 343 342 342 344 341 339 338 339 340 328 326 325
351 350 350 346 342 348 345 345 336 345 346 348 348 347 346 345 347 347 348 345 346 348 346 348 347 344 349 343 344 344 342 342 341 338 344 339 338 335 338 341 338 330 326
347 350 349 348 345 347 349 345 347 349 348 348 349 349 343 346 347 347 348 347 345 345 345 345 344 344 342 342 341 341 339 334 338 337 336 336 339 335 336 338 342 339 331
348 348 349 347 345 347 350 348 349 351 351 349 349 349 349 347 346 347 347 346 345 347 347 345 344 343 339 341 343 342 338 336 336 337 336 337 336 337 334 337 338 341 342
345 351 351 350 347 343 348 350 349 349 348 348 349 349 348 348 346 344 346 346 346 346 346 345 347 343 343 341 339 337 334 335 336 337 337 336 337 338 337 334 337 338 338
349 352 352 351 348 346 344 349 348 348 348 348 348 351 348 349 348 347 345 345 350 349 346 345 346 343 342 340 338 333 334 337 338 339 337 337 337 336 336 337 335 335 336
349 350 352 351 351 349 343 345 350 348 347 348 349 349 348 350 349 348 341 347 347 348 346 344 344 343 342 340 334 336 335 339 336 338 337 338 337 340 339 340 338 336 337
348 348 350 351 351 353 352 346 344 345 346 347 347 349 349 350 350 347 347 343 346 348 345 345 344 343 333 336 337 334 334 337 336 339 339 336 338 338 342 341 341 343 338
348 348 350 350 350 352 352 351 347 347 348 348 347 346 350 349 350 349 345 344 346 345 345 344 342 339 337 338 336 336 338 336 337 338 338 335 334 336 338 339 338 341 344
348 348 349 349 350 353 353 352 350 348 351 349 347 350 353 350 348 345 346 344 344 346 346 344 341 327 337 337 337 334 338 338 339 338 336 333 334 335 336 335 336 336 337
348 348 348 349 349 351 354 353 353 352 347 350 350 350 348 347 350 346 346 342 346 347 346 343 336 335 339 337 335 336 340 339 338 337 336 334 331 329 331 330 329 326 333
347 348 349 349 350 350 352 353 353 348 346 350 352 349 347 348 349 349 345 342 347 350 345 336 331 328 337 339 335 336 331 333 338 338 336 334 331 330 330 328 327 326 325
348 348 348 349 350 351 350 350 350 345 346 351 352 351 351 349 350 344 347 344 346 346 340 335 331 324 337 337 335 337 335 331 333 330 335 334 332 331 330 328 329 328 326
348 349 349 349 350 351 351 350 349 352 350 350 345 345 346 350 348 346 345 348 343 338 335 331 329 324 328 336 335 335 334 333 334 334 332 331 331 332 330 329 329 329 330

GFSSE_850_thetae_024.txt.gz
Theta_e
342 343 342 341 342 341 336 334 335 329 329 330 333 331 331 331 331 331 332 333 333 334 333 333 337 338 339 339 339 335 336 331 333 325 322 322 335 337 337 337 334 331 324
343 342 343 343 340 334 332 332 335 335 335 334 331 331 331 332 332 333 332 332 333 333 332 332 334 339 337 339 339 337 339 340 341 339 327 323 338 338 337 334 332 326 327
345 343 343 342 337 331 330 331 332 334 334 331 332 331 331 332 332 332 331 333 333 333 333 331 333 334 338 338 340 339 342 344 345 344 341 326 332 340 330 328 332 329 339
343 343 343 341 339 333 329 330 332 333 332 332 331 329 330 332 332 330 330 332 334 334 333 332 332 333 334 338 341 341 343 343 343 342 340 328 325 338 332 336 329 325 333
343 342 341 339 337 335 329 331 334 333 332 331 331 331 332 333 330 331 331 332 335 334 336 332 331 335 334 334 340 342 342 342 341 339 342 331 328 333 337 332 331 335 337
341 341 341 337 335 333 330 332 334 332 331 329 330 332 332 332 330 336 334 334 335 338 339 333 333 336 337 335 339 344 343 343 343 342 342 334 326 330 331 336 337 335 330
342 341 339 337 334 332 331 332 334 333 331 331 331 333 333 331 336 337 338 337 336 338 340 339 336 338 338 341 340 344 345 345 342 337 344 332 326 333 337 339 329 334 326
341 340 339 338 336 333 331 332 333 333 332 331 331 333 333 332 338 340 341 340 340 338 339 339 339 339 341 344 344 344 344 344 339 337 337 331 328 332 328 334 330 332 331
341 340 339 338 338 335 333 333 333 333 331 332 333 334 334 338 347 343 342 341 342 338 338 339 343 343 341 343 342 344 342 341 338 337 340 336 328 326 326 332 330 329 333
342 341 340 339 339 338 335 334 334 333 332 331 333 334 342 346 347 344 343 339 340 338 342 345 346 347 344 344 344 334 340 342 343 335 339 340 331 325 328 324 325 326 329
343 341 340 339 339 339 338 336 333 332 331 332 333 336 343 347 346 342 343 343 341 342 344 346 345 345 342 343 343 345 343 343 341 337 339 339 341 330 324 327 324 327 331
344 343 340 338 337 336 336 334 332 331 332 332 336 339 346 345 346 345 346 347 348 346 346 345 346 343 341 341 343 342 342 342 342 341 342 340 339 340 329 324 326 329 331
348 343 342 338 335 334 332 330 330 331 333 335 338 338 344 346 342 345 348 346 347 347 343 344 344 345 343 342 344 343 342 342 340 338 341 339 337 339 341 330 325 328 330
349 344 341 336 333 332 331 331 332 333 338 339 345 341 344 344 347 345 345 344 344 344 345 343 344 343 342 345 346 342 339 337 340 337 338 336 336 335 340 341 330 327 325
348 349 342 341 336 333 333 341 334 341 347 347 347 347 343 346 347 346 347 344 345 344 343 342 343 345 340 340 339 339 336 336 336 335 335 335 336 336 335 339 342 333 329
347 349 346 347 343 338 342 342 344 348 347 348 347 349 347 345 345 346 346 344 344 343 344 344 343 342 340 341 343 338 336 336 335 336 337 336 335 337 334 337 339 342 335
345 344 346 347 346 340 345 346 347 347 349 347 347 349 349 347 347 346 343 344 346 344 344 343 344 342 342 340 338 335 335 334 336 337 332 336 337 338 336 334 337 338 339
343 346 348 347 346 343 348 348 348 349 349 348 348 350 349 349 348 348 346 344 344 348 348 344 344 341 342 339 336 335 334 334 338 338 337 337 336 337 336 338 334 335 337
347 346 348 349 349 346 346 348 347 349 349 347 348 349 349 348 348 349 344 344 346 346 348 343 342 342 341 333 337 334 335 339 338 337 337 335 336 339 339 340 337 335 336
348 345 350 350 351 349 345 344 347 346 349 347 347 347 348 348 348 349 347 347 345 346 345 344 343 341 332 336 334 336 337 338 338 338 339 336 336 337 340 339 339 340 340
346 348 350 351 351 350 349 345 344 344 348 346 346 348 347 349 348 348 348 344 344 345 344 343 343 337 335 335 335 335 336 337 338 339 337 335 335 333 336 335 338 338 343
348 348 349 350 349 351 351 351 349 345 343 344 347 349 347 349 350 349 345 344 345 345 344 342 342 324 335 336 336 332 337 337 338 337 335 332 332 334 335 334 334 333 332
348 348 348 348 349 350 350 351 351 350 345 346 349 347 346 350 347 348 347 345 343 343 344 343 340 330 337 336 334 335 339 338 338 335 334 332 330 330 329 327 326 325 325
346 347 348 348 348 349 349 351 352 351 348 346 349 347 347 345 348 349 349 345 342 343 345 345 338 331 336 335 334 333 336 337 339 335 333 334 331 331 330 327 328 328 325
346 346 347 347 348 348 349 349 351 352 349 347 344 350 350 348 349 350 349 344 340 343 347 343 329 322 336 336 334 331 330 333 331 336 336 333 332 331 330 330 328 329 330
346 346 346 347 348 348 348 349 349 349 349 347 344 351 351 349 350 349 347 336 341 342 343 335 328 326 327 335 333 335 332 331 333 332 333 332 331 331 331 330 329 329 330

GFSSE_850_thetae_027.txt.gz
Theta_e
348 344 341 341 344 339 337 337 333 334 335 334 333 331 331 331 331 332 332 333 333 333 333 338 337 339 338 338 334 334 331 330 327 324 321 328 333 331 333 336 335 325 327
343 342 341 342 341 335 333 329 328 330 333 331 331 331 331 331 332 332 333 333 333 333 333 334 337 336 340 340 338 337 336 339 340 331 323 335 338 337 336 332 326 323 323
342 342 341 341 338 334 336 332 334 335 332 331 330 332 332 332 331 331 333 333 334 332 331 332 334 338 338 340 339 341 343 344 341 336 326 330 340 335 328 331 328 337 337
342 343 342 339 335 333 337 336 335 333 330 331 330 331 332 331 329 330 333 335 334 334 331 332 333 335 339 340 340 341 341 341 337 338 328 325 336 336 333 330 327 338 334
343 344 339 336 335 332 333 334 332 331 332 329 329 331 332 329 332 331 333 335 336 334 330 333 335 334 336 339 341 342 341 340 337 338 331 327 323 338 334 329 326 334 336
343 341 340 338 333 331 332 332 332 331 331 331 331 332 331 333 337 334 335 335 339 337 332 336 337 337 336 338 342 343 342 339 342 341 334 326 327 334 333 331 336 335 333
342 340 339 338 332 330 332 332 331 330 329 330 332 333 331 338 337 337 338 339 338 339 335 338 338 339 341 340 343 345 345 343 341 341 339 326 327 332 334 339 333 325 327
341 340 337 335 333 330 331 332 332 331 330 330 333 332 332 339 341 341 340 340 337 338 338 338 339 341 344 343 343 343 343 341 337 338 338 327 329 337 337 336 332 330 320
341 339 337 335 332 331 330 332 333 332 331 331 333 332 337 346 342 340 340 341 337 337 340 341 341 342 343 344 342 341 340 341 334 340 340 328 325 336 332 331 333 333 326
340 338 337 336 334 331 331 332 333 332 330 332 333 338 345 346 344 342 339 339 337 342 344 345 345 343 344 344 343 340 340 342 338 340 339 334 325 325 324 332 329 331 332
340 339 338 338 336 333 332 332 333 331 331 332 333 338 346 346 344 343 342 340 340 343 345 345 345 341 340 341 341 340 342 339 337 339 340 340 336 325 326 326 325 326 331
341 340 338 338 338 336 334 333 333 331 331 333 334 340 344 344 344 346 343 345 345 345 344 343 343 340 341 344 343 342 341 340 340 341 339 338 339 337 326 324 324 327 330
342 340 340 339 338 337 335 333 331 331 331 332 338 341 345 346 345 346 345 345 346 343 342 344 342 343 344 342 343 341 341 340 338 339 338 336 336 339 338 327 325 329 329
343 342 340 339 337 335 334 332 331 331 332 335 340 341 345 344 346 344 343 344 344 345 343 342 342 342 341 342 343 341 334 336 336 335 335 335 335 335 340 339 327 326 329
347 344 342 338 335 334 331 330 331 332 335 338 344 343 343 344 346 346 346 344 344 343 342 343 343 342 339 339 337 338 335 334 336 335 335 335 334 334 336 340 339 329 325
347 342 341 338 334 331 330 331 333 338 345 344 347 347 345 344 345 346 344 344 343 342 343 342 343 341 339 340 343 336 335 335 334 336 336 335 334 335 333 337 339 341 332
346 346 341 336 335 333 331 338 335 343 346 347 345 348 348 346 346 346 345 346 345 342 342 342 344 343 340 340 338 334 335 334 335 335 333 337 336 336 334 334 337 338 341
346 346 345 344 342 340 335 341 343 346 344 348 346 347 348 348 347 347 347 345 345 344 348 346 344 343 342 340 334 334 333 334 336 337 336 337 335 338 335 337 334 337 338
345 346 348 346 346 344 339 344 346 347 347 347 347 347 347 347 348 349 347 343 343 344 346 347 342 341 342 340 335 331 333 338 338 336 334 335 335 337 337 339 338 335 335
346 346 343 345 346 346 342 347 346 347 348 348 348 347 348 348 348 348 348 346 345 345 345 342 343 340 337 332 334 335 337 337 338 338 339 335 335 337 340 337 334 338 339
347 347 344 346 347 347 346 347 348 348 349 349 348 347 347 348 348 348 348 348 346 343 345 342 343 341 330 336 334 335 337 337 338 336 337 335 334 334 335 333 337 336 339
347 346 346 345 348 349 349 346 345 344 347 347 348 347 347 348 348 348 349 347 345 345 344 341 341 338 332 334 334 333 337 336 336 338 336 333 330 331 332 333 331 329 331
349 348 348 346 348 349 349 349 348 346 344 345 346 346 347 348 346 350 348 347 345 344 343 343 341 329 333 335 332 333 337 336 337 336 334 331 330 330 328 327 327 324 326
346 348 348 347 348 350 349 349 349 349 348 346 342 345 346 345 346 346 347 348 346 343 342 342 343 335 334 336 333 335 337 338 337 333 332 331 330 330 330 329 328 328 327
345 346 348 348 348 349 349 349 349 349 348 348 341 346 345 346 345 346 348 349 347 343 341 344 343 328 335 334 331 333 333 336 337 336 333 332 331 330 330 330 330 329 330
346 345 346 347 347 347 348 349 349 349 348 347 349 345 346 347 348 348 349 350 345 342 341 341 340 330 325 334 335 334 334 331 330 335 335 335 334 332 331 330 330 329 330

GFSSE_850_thetae_030.txt.gz
Theta_e
346 344 344 344 344 344 345 344 342 339 340 337 333 332 331 332 332 332 333 332 332 335 340 337 339 338 336 334 333 330 331 332 325 321 322 325 333 333 336 332 328 331 336
346 343 344 342 341 342 341 339 339 338 333 332 331 331 331 331 332 332 332 332 333 337 337 337 337 339 339 338 334 333 338 340 335 322 328 335 334 336 334 330 324 326 337
344 342 343 341 336 336 334 333 334 332 331 331 331 331 332 331 332 333 333 333 331 333 343 337 337 338 339 338 338 338 342 340 334 326 333 338 334 333 332 325 330 325 326
342 341 343 335 332 329 329 331 333 331 331 330 332 331 331 330 331 333 334 334 332 331 333 333 338 339 340 340 340 342 342 339 338 327 327 337 336 332 330 330 338 338 339
342 342 341 334 333 331 332 334 332 331 330 330 331 331 329 332 331 334 335 337 332 332 334 335 334 338 339 341 341 342 340 337 337 330 326 327 334 339 329 325 334 336 334
342 341 337 332 335 335 335 332 331 331 329 330 332 330 335 336 334 334 337 339 337 334 335 337 336 336 337 340 343 342 339 341 341 333 326 328 337 336 328 332 336 338 336
342 339 338 331 332 333 332 331 331 331 330 331 332 332 337 336 336 338 338 338 339 336 337 337 341 341 340 341 344 344 343 339 341 341 326 327 333 333 334 337 334 335 335
340 336 335 332 330 330 332 331 330 329 329 332 332 333 338 340 340 340 339 337 338 338 338 339 342 344 342 343 342 342 341 338 338 339 328 328 333 334 339 332 329 323 335
341 339 337 332 328 330 331 331 330 330 330 333 332 339 343 341 341 340 340 337 337 339 339 340 342 342 343 341 336 340 340 339 337 340 335 327 336 335 338 330 333 324 328
339 339 338 335 332 329 331 331 331 331 330 333 333 340 344 342 341 339 339 337 339 343 344 343 342 342 341 341 341 341 340 342 336 340 339 328 335 336 337 331 337 330 334
340 337 336 333 332 331 330 331 332 331 331 333 336 345 344 344 343 341 338 337 340 343 345 344 341 340 339 340 341 341 340 338 339 340 339 338 327 325 325 338 336 335 332
340 338 336 334 332 330 330 331 332 331 331 333 335 343 344 344 343 343 342 342 343 344 342 342 341 340 342 341 340 340 339 339 339 338 337 339 339 329 325 330 326 333 330
339 338 337 337 335 332 331 331 332 331 331 332 336 342 345 345 344 345 344 345 344 342 342 343 342 341 342 342 340 339 337 338 337 337 336 336 338 341 334 325 325 328 331
339 338 338 337 337 335 333 332 333 331 331 332 337 340 343 343 344 344 345 344 343 344 342 341 342 341 341 341 339 336 332 337 335 334 334 335 333 337 342 337 327 328 331
340 339 338 338 337 337 335 334 332 331 331 333 339 341 343 343 345 344 345 344 343 342 342 343 342 341 339 337 336 336 336 334 335 335 335 334 334 334 338 340 338 328 331
342 341 339 338 337 336 334 333 330 331 333 335 343 343 342 343 343 345 344 344 343 342 342 342 342 343 338 340 338 336 332 335 334 336 336 335 334 335 333 338 339 339 332
345 343 341 339 336 335 333 330 330 332 337 338 346 347 346 344 345 346 344 344 344 343 340 341 342 342 339 341 339 330 333 333 335 334 335 336 336 335 333 333 338 339 339
346 345 340 339 337 333 331 329 331 337 343 346 345 343 345 346 346 346 345 346 345 344 343 344 345 342 342 341 337 333 332 333 335 334 336 336 335 337 336 335 334 337 338
345 344 343 340 336 333 331 331 336 341 345 345 347 345 346 346 346 347 348 347 344 344 345 344 344 341 341 338 336 333 332 336 335 334 334 335 332 336 337 339 337 335 334
344 344 344 342 336 339 338 334 338 343 345 346 346 347 347 347 346 347 348 348 345 345 345 346 342 342 338 335 332 332 335 336 336 337 337 334 335 337 339 335 337 338 338
346 345 345 346 343 344 344 338 344 346 346 347 347 347 346 346 346 347 348 348 347 345 343 343 341 341 339 334 333 335 337 337 336 334 336 333 334 333 334 334 338 336 338
346 344 344 344 345 345 346 342 340 344 344 346 347 348 347 346 347 348 348 348 348 344 343 343 339 339 335 334 334 333 336 336 337 337 337 333 331 329 329 327 328 326 329
346 346 345 345 343 344 346 347 344 345 346 345 347 348 348 346 346 346 348 349 349 346 343 343 343 341 324 332 334 333 336 336 336 336 335 332 332 328 328 328 325 323 326
348 348 347 346 346 344 346 347 348 346 345 344 344 346 348 346 346 344 347 349 349 347 344 342 342 342 329 333 334 332 335 337 336 334 334 332 330 330 329 329 329 328 326
349 348 348 348 346 346 345 347 348 348 347 346 346 345 343 345 345 344 347 348 347 347 345 341 342 342 329 333 335 333 333 336 337 335 334 333 332 330 330 330 329 329 329
347 347 347 347 347 347 346 347 348 348 348 347 347 348 341 344 345 343 346 347 348 348 345 341 342 343 327 331 334 332 332 332 334 336 335 334 333 332 331 330 330 330 329

GFSSE_850_thetae_033.txt.gz
Theta_e
347 343 343 344 344 342 342 343 342 340 335 333 332 330 332 332 332 333 332 333 337 345 343 342 338 339 334 333 329 330 335 329 322 323 332 332 335 334 331 330 336 343 336
345 345 345 345 345 344 343 342 338 339 338 333 330 331 331 331 332 333 332 334 336 340 341 341 339 338 337 335 331 336 339 337 323 334 337 334 335 336 335 327 334 339 337
344 344 344 345 345 344 342 339 340 336 333 330 331 331 331 332 333 333 333 332 339 341 340 340 339 339 338 337 335 340 339 333 326 336 337 342 341 335 325 324 325 334 338
344 343 343 343 342 339 339 337 333 332 331 331 331 331 330 331 333 334 334 334 343 336 339 340 339 339 340 339 341 341 339 335 327 329 341 342 343 330 336 333 341 328 327
343 344 338 339 335 333 333 332 331 331 331 331 331 329 330 331 334 336 336 338 342 339 335 334 336 338 340 341 342 341 339 336 331 326 337 339 343 333 332 340 335 339 334
342 341 335 333 329 330 333 332 330 330 330 331 330 333 334 333 335 338 339 343 340 335 336 336 337 337 341 342 342 340 340 340 338 326 325 338 341 329 327 338 336 335 336
344 339 335 330 329 333 333 331 331 329 330 332 331 337 336 336 337 338 339 341 341 338 337 342 343 342 342 343 343 343 339 339 340 327 327 339 339 332 338 337 337 337 338
344 343 341 334 334 334 331 331 330 330 331 332 334 337 338 339 339 339 338 339 339 338 339 343 343 343 340 340 340 341 339 335 339 333 326 332 335 340 338 333 334 336 335
344 343 343 334 333 332 331 331 329 330 332 332 334 339 341 341 340 340 338 337 338 338 340 342 343 342 342 340 339 339 340 337 339 338 327 336 337 338 336 331 326 329 331
343 342 336 334 332 331 331 330 329 330 332 332 336 343 342 341 340 339 337 338 342 343 343 342 340 339 341 340 341 340 339 336 340 339 332 334 336 334 335 334 329 328 324
342 337 333 330 330 330 331 331 330 330 332 333 340 342 343 343 340 339 337 339 342 344 344 343 340 340 340 339 340 338 338 339 338 339 339 330 331 334 330 336 336 331 327
344 342 338 333 329 329 331 331 332 331 331 333 341 343 345 343 342 341 340 340 342 343 341 341 341 341 341 341 339 339 339 338 337 336 337 339 334 326 328 338 337 332 332
343 341 336 335 334 331 330 331 332 331 331 333 335 343 344 343 345 344 344 343 344 342 343 343 342 341 341 342 341 336 335 337 335 333 335 336 338 339 327 332 329 335 336
343 337 336 334 332 331 330 330 332 331 331 332 335 341 345 344 345 344 345 343 342 343 341 341 341 340 340 339 337 336 332 336 334 334 333 335 335 339 342 332 331 329 333
340 337 337 336 335 332 331 331 332 332 331 332 336 339 343 344 344 343 344 343 342 341 341 342 342 342 339 337 337 334 334 334 334 335 335 334 334 335 340 342 337 327 330
338 338 337 337 337 335 333 332 332 331 331 332 338 341 342 343 344 345 345 343 343 342 341 341 340 341 338 339 336 334 333 334 334 336 337 334 334 334 334 338 340 336 331
338 338 338 337 337 336 336 335 333 331 331 333 341 343 343 343 344 345 345 343 343 343 343 341 342 342 340 340 339 333 331 333 335 334 334 336 339 334 334 333 338 339 336
339 339 339 338 337 336 335 334 332 330 332 334 343 346 346 344 345 346 345 346 344 344 342 343 344 343 341 342 336 334 332 333 333 333 336 334 336 339 339 333 334 337 338
342 341 341 341 338 336 334 333 330 330 333 342 344 345 343 345 345 345 347 347 345 344 343 344 346 342 341 338 335 336 332 333 332 334 334 334 333 337 340 338 336 335 334
343 344 343 341 339 337 334 332 330 331 336 343 346 346 345 346 347 346 347 347 347 345 345 345 344 342 338 336 332 332 333 335 335 336 335 335 336 338 339 337 337 340 336
343 343 344 343 339 338 335 332 330 335 336 344 344 343 346 346 347 346 347 348 348 346 344 343 342 342 340 332 333 335 337 335 337 337 333 334 333 335 333 333 337 335 337
344 344 344 343 342 336 335 336 333 334 339 345 344 347 346 346 346 346 347 347 348 348 345 343 342 339 340 332 334 336 338 337 334 336 337 332 330 334 330 326 325 325 328
345 343 343 342 343 340 342 342 338 337 340 345 345 347 347 347 346 347 346 347 349 349 347 343 343 343 341 327 334 336 337 338 338 336 337 333 329 328 328 328 326 325 324
345 345 344 343 344 344 344 345 345 339 340 342 344 344 346 348 347 346 346 346 348 349 348 346 343 342 342 332 333 334 333 337 337 337 335 334 330 329 329 329 329 327 328
347 345 346 345 344 345 344 344 345 346 345 344 345 344 344 346 347 347 345 345 347 346 346 347 341 341 342 331 334 334 332 335 337 337 337 336 332 330 330 330 329 329 329
345 346 346 347 346 345 345 345 344 346 347 347 346 345 345 345 346 345 346 344 347 348 347 348 342 341 342 329 332 334 333 335 336 338 337 336 336 334 331 330 330 329 329

GFSSE_850_thetae_036.txt.gz
Theta_e
338 335 334 340 344 342 340 341 343 334 329 331 331 331 332 333 333 333 333 338 344 342 342 339 341 339 333 330 330 338 340 324 323 332 331 335 330 330 334 337 343 343 337
339 337 341 344 344 342 343 344 342 330 331 331 331 331 332 333 333 333 338 340 341 341 340 340 338 337 336 332 337 337 338 327 326 334 333 336 335 336 329 341 346 338 336
341 342 344 343 344 342 342 338 335 334 331 330 331 331 332 333 333 333 335 341 341 340 340 339 340 339 338 335 336 342 332 327 332 338 340 343 343 328 325 332 340 339 340
344 345 345 343 343 342 338 337 335 332 331 331 331 331 332 333 334 334 338 343 340 338 341 339 339 340 338 340 341 340 336 330 328 340 343 342 341 329 329 325 336 340 339
347 350 346 345 343 338 338 336 332 330 331 331 331 330 331 334 336 339 342 342 339 335 335 336 338 340 341 341 342 340 338 334 327 341 343 345 341 339 339 341 334 331 337
349 350 345 343 340 337 336 332 331 331 332 331 330 332 332 335 338 340 342 341 336 336 338 338 339 341 343 343 341 340 340 340 339 338 343 342 345 329 338 340 340 336 329
347 349 344 338 336 333 332 331 330 331 332 330 335 335 334 336 338 339 341 341 337 339 343 342 342 342 342 343 343 340 338 340 343 340 345 343 339 335 337 337 336 335 337
347 345 344 331 331 333 331 331 329 330 332 332 337 337 337 339 338 338 338 338 338 341 343 343 343 342 338 340 341 340 336 342 344 339 343 345 337 338 336 336 334 337 338
345 344 344 342 336 333 331 330 329 331 332 333 338 340 340 340 339 337 337 338 338 341 342 343 342 342 341 340 339 339 339 339 346 340 341 342 339 340 333 329 335 334 334
345 343 344 345 345 344 333 331 331 332 332 333 341 340 341 341 340 338 338 340 342 342 342 340 339 341 340 340 339 338 338 342 346 344 339 342 336 338 333 331 324 330 324
345 343 343 344 345 346 345 332 330 331 333 333 343 343 345 350 350 349 342 341 344 344 343 340 341 340 340 339 337 339 343 342 344 345 344 329 335 336 334 337 331 333 321
345 343 343 343 344 346 344 343 344 343 343 346 349 348 352 350 348 348 344 340 343 342 341 341 340 343 347 346 342 340 344 341 342 343 344 339 327 331 334 334 337 332 328
345 344 343 344 346 346 345 346 346 345 346 347 347 349 351 351 351 351 351 349 350 345 349 348 349 345 347 343 341 338 339 340 338 339 337 336 339 331 332 337 335 333 335
346 345 345 345 346 346 345 345 345 344 344 344 345 342 348 350 351 351 351 350 349 349 344 345 343 345 348 344 339 336 336 338 337 337 334 333 334 341 335 328 333 330 332
347 347 347 347 347 347 346 345 345 345 343 343 345 344 350 350 352 351 350 350 349 344 344 347 346 344 346 343 341 339 336 337 338 339 341 333 333 336 341 340 330 328 332
346 346 346 347 347 345 345 345 346 346 345 344 344 346 342 349 348 348 351 349 349 350 351 344 346 344 344 344 340 339 336 337 340 339 339 336 334 333 336 339 340 332 335
346 347 347 348 347 341 337 333 343 345 344 344 344 343 341 342 344 344 348 350 349 345 344 347 342 344 344 341 341 337 336 337 338 340 338 340 340 335 333 336 338 340 338
347 347 347 347 347 346 347 337 343 346 345 344 344 347 344 344 344 345 352 350 352 346 347 346 347 347 344 341 336 339 336 337 337 338 337 339 339 342 339 333 336 338 339
347 347 348 348 348 348 344 346 344 346 344 343 344 347 346 345 345 345 352 351 348 351 349 349 348 345 341 340 339 338 338 338 339 336 338 339 341 341 342 335 335 335 334
347 348 349 348 349 349 348 342 347 345 344 343 345 347 345 343 345 345 352 347 349 351 350 350 348 344 340 337 334 336 339 338 340 339 337 337 340 343 342 342 340 341 336
349 349 350 350 347 346 345 347 346 344 343 343 346 346 345 345 346 347 352 351 345 349 350 350 347 346 341 337 337 337 338 338 340 337 337 339 337 339 339 340 343 340 342
349 350 352 350 347 341 348 345 345 343 342 343 347 349 343 345 346 346 347 354 353 352 347 349 345 344 342 336 338 339 338 336 336 338 340 338 338 336 336 336 337 339 339
349 350 351 348 346 342 347 348 346 344 343 344 347 351 351 346 347 346 345 349 353 348 352 349 347 345 343 337 335 340 337 337 335 337 339 337 338 337 335 335 337 338 336
350 351 351 349 345 346 342 347 344 344 344 344 347 350 351 348 349 347 346 346 345 353 353 350 349 346 342 339 338 337 337 339 337 337 337 340 338 338 338 336 336 336 333
349 350 352 351 343 346 343 344 346 347 346 346 348 350 351 352 348 352 348 346 346 345 348 347 347 342 346 339 338 338 338 337 338 339 338 338 339 337 338 337 336 336 336
348 351 353 352 343 343 343 343 344 348 349 349 350 351 352 352 352 349 353 346 345 348 348 349 347 342 343 340 338 338 336 336 336 338 338 338 338 338 337 336 336 335 336

GFSSE_850_thetae_039.txt.gz
Theta_e
340 338 341 342 336 337 336 336 336 332 331 332 332 335 333 333 333 335 340 343 342 342 339 340 340 334 332 330 338 339 330 322 329 331 333 333 329 336 338 342 344 343 337
338 337 343 342 338 339 342 338 335 330 331 332 332 333 333 333 334 343 341 340 340 339 340 338 338 336 332 335 337 340 328 324 327 326 335 333 335 331 338 345 346 339 341
335 338 344 341 340 342 343 340 331 331 332 332 332 332 333 335 334 335 340 341 340 340 339 340 339 337 336 337 341 333 330 330 337 342 342 345 339 329 337 344 343 338 338
336 347 347 342 341 342 343 337 334 332 331 331 332 332 334 335 334 339 344 341 336 343 339 339 340 338 340 341 339 337 333 330 340 344 344 345 339 325 326 339 339 340 341
343 350 345 341 342 342 337 336 335 331 331 331 331 332 334 335 338 340 342 338 335 334 336 337 340 341 341 342 341 340 335 327 342 345 343 341 343 335 333 328 333 335 343
351 350 342 343 342 337 337 334 332 331 331 331 331 331 334 338 342 342 339 336 337 340 340 340 341 343 343 342 340 339 340 339 341 342 346 344 343 337 339 342 339 334 331
350 350 344 343 338 337 333 332 331 331 331 331 334 333 335 338 339 339 339 337 342 343 342 341 341 342 343 343 340 336 340 340 341 345 343 345 327 336 337 337 337 330 336
350 348 347 343 337 334 332 331 331 332 331 336 336 335 338 338 338 338 338 339 342 343 343 342 342 338 340 340 340 338 341 345 340 343 344 345 336 337 336 336 338 338 337
349 349 348 345 335 332 331 330 330 332 332 337 338 339 340 339 337 337 338 338 342 342 343 340 341 340 339 339 338 339 340 345 341 341 343 342 339 335 333 332 336 336 335
347 345 343 345 345 346 334 329 330 332 332 338 340 341 339 339 337 339 339 341 342 342 340 339 339 340 339 337 338 339 343 345 343 340 346 343 336 336 331 328 329 328 335
345 342 342 343 346 347 347 331 331 332 332 340 342 340 347 350 347 349 343 342 343 343 340 341 340 340 341 335 335 340 343 344 345 343 343 330 333 335 336 330 331 323 329
345 342 342 343 345 346 344 336 344 344 344 347 349 343 350 351 350 351 342 341 341 341 341 340 342 346 347 342 343 345 342 341 342 344 341 334 328 335 337 335 332 331 322
345 342 343 345 345 345 344 344 346 344 346 349 350 350 350 350 349 348 349 347 348 347 347 348 344 348 343 344 340 341 338 342 339 342 335 336 334 326 336 334 336 330 330
344 343 342 345 346 345 346 344 345 344 346 346 348 345 351 351 350 351 350 350 349 348 347 347 347 347 343 344 337 336 337 339 338 343 336 332 335 333 330 334 330 333 335
345 343 343 345 347 347 348 345 345 345 344 344 347 348 352 350 350 349 349 349 350 347 347 346 348 344 344 344 342 341 337 338 337 343 340 330 332 341 340 328 331 328 332
344 344 344 346 348 349 347 348 346 345 345 345 345 347 342 350 349 352 350 348 349 349 347 346 345 342 347 346 339 340 338 338 337 340 342 334 331 332 339 340 336 327 329
345 345 346 347 349 349 349 349 348 346 346 345 345 348 350 346 348 350 350 348 348 348 344 348 343 350 345 342 342 335 337 338 339 338 341 343 341 334 331 338 340 337 335
345 347 347 346 348 349 349 349 348 346 345 345 345 348 347 345 350 346 350 352 349 348 348 347 345 346 346 341 338 341 336 337 337 338 340 342 344 343 337 331 338 339 339
347 348 348 348 348 349 350 349 349 346 347 345 345 346 349 347 349 350 351 353 347 350 347 347 346 343 338 340 340 338 339 338 340 338 337 341 338 344 342 333 331 333 334
347 349 350 349 348 349 350 350 349 347 347 346 345 346 350 351 351 347 351 351 348 352 349 349 346 342 339 337 336 338 338 339 339 339 336 340 338 340 344 343 339 341 335
347 349 350 350 349 350 350 350 348 347 347 346 345 346 350 352 353 350 354 353 349 348 348 347 348 342 342 337 338 338 338 339 340 336 339 337 337 342 340 340 343 343 342
347 349 350 351 350 350 350 349 348 346 345 345 344 347 351 354 354 354 351 353 351 352 351 349 345 345 343 338 342 338 337 338 337 337 339 338 339 337 336 337 338 337 343
348 349 351 351 351 350 351 350 349 347 345 344 344 347 351 353 355 351 354 348 353 350 351 352 349 345 345 337 340 341 338 337 336 336 337 339 337 336 335 336 338 339 339
348 350 351 351 351 351 348 350 349 346 344 344 344 345 351 353 355 356 353 347 352 352 352 351 349 350 341 341 337 338 342 343 342 337 338 340 338 338 338 337 337 337 335
348 349 352 353 353 353 351 348 350 348 345 345 345 346 349 353 354 354 356 356 350 345 350 349 353 342 348 344 340 338 337 337 340 342 339 339 338 338 340 335 338 338 337
347 349 351 353 352 352 352 346 350 350 346 347 347 348 351 352 355 353 355 354 351 353 353 352 352 352 345 345 341 339 338 338 338 338 340 340 340 339 338 338 338 337 338

GFSSE_850_thetae_042.txt.gz
Theta_e
342 339 337 333 332 333 334 335 333 332 332 332 339 333 333 332 334 339 342 341 341 339 339 340 335 333 328 335 338 328 323 322 326 327 327 330 330 338 342 344 348 337 338
342 339 336 332 332 332 334 335 332 332 332 338 335 333 333 338 342 342 339 339 339 339 338 337 336 333 332 338 330 327 325 330 325 333 331 331 330 335 343 345 347 337 338
343 341 336 338 341 340 337 336 331 332 337 336 332 334 340 333 334 337 338 339 340 339 339 339 337 337 339 339 331 327 335 338 341 342 345 343 329 336 344 345 338 336 338
345 344 337 338 341 342 339 332 332 332 333 332 332 341 334 334 338 343 337 335 341 338 339 340 339 339 341 340 336 328 336 342 342 342 344 341 333 330 341 338 339 340 339
346 347 339 341 343 343 339 334 332 331 331 332 332 334 335 336 341 340 335 334 335 336 337 340 341 341 342 340 341 337 328 343 345 341 345 344 340 324 332 338 338 341 339
347 348 341 342 343 342 335 334 331 331 331 330 331 333 337 338 341 337 336 340 341 340 341 342 344 344 342 339 338 338 337 341 344 343 343 344 337 338 333 339 337 339 332
347 349 341 342 342 337 335 332 331 331 330 333 332 334 337 338 339 338 338 342 342 340 339 339 340 342 343 340 337 339 338 341 344 344 344 340 332 337 337 336 332 328 327
350 348 342 343 339 335 331 331 331 331 332 336 334 335 337 337 338 338 339 343 343 342 341 338 337 339 338 338 338 339 341 341 344 344 342 335 334 334 335 337 337 337 333
348 349 346 343 337 332 330 331 331 331 336 336 336 338 338 337 337 337 339 342 341 342 340 340 339 338 338 338 338 341 342 341 342 343 341 336 335 333 332 336 336 336 336
348 350 348 343 335 331 330 330 331 331 337 338 340 340 339 337 340 338 340 341 340 339 338 340 338 335 335 337 342 344 341 340 342 343 343 342 335 330 328 331 331 333 334
349 347 346 346 346 341 332 329 331 332 336 340 340 341 346 349 350 344 341 342 342 340 341 340 343 341 335 336 343 343 345 341 344 346 337 330 332 330 328 326 324 325 334
347 344 343 345 347 345 346 330 331 332 334 346 347 333 346 349 349 348 340 342 341 341 341 339 345 343 342 341 342 340 342 345 343 343 338 329 330 331 332 330 331 322 324
345 341 343 344 346 345 345 332 338 341 346 347 344 348 346 350 347 348 347 344 337 343 345 346 347 345 345 346 347 340 339 344 344 341 335 336 326 324 333 332 328 330 323
344 342 344 344 344 344 346 342 345 345 347 348 350 347 350 347 349 344 347 349 346 348 348 347 347 341 345 344 339 334 339 341 343 341 337 331 337 324 333 330 333 330 331
345 343 344 346 342 344 348 342 345 345 346 346 347 344 348 348 350 349 349 349 350 349 348 349 345 346 342 342 338 339 337 339 342 341 339 330 331 338 327 324 327 329 332
345 344 344 346 344 346 348 345 346 344 342 346 346 347 344 352 351 350 349 348 350 347 344 347 345 347 347 343 336 336 338 337 336 339 340 332 329 336 339 334 327 326 330
344 343 344 345 347 345 346 347 346 346 347 344 346 346 345 347 351 350 351 350 350 349 346 346 345 342 344 344 340 338 339 338 338 339 341 342 341 335 332 339 339 331 329
344 344 345 347 349 345 345 346 344 348 345 346 345 347 344 340 349 345 344 348 352 348 345 345 347 347 346 338 339 340 339 337 337 339 342 344 342 341 335 332 337 339 337
344 345 346 346 348 348 348 347 345 346 347 346 346 347 347 343 343 346 351 340 349 350 347 346 346 345 338 341 339 340 338 337 338 338 337 340 340 341 341 339 336 334 333
346 345 346 346 348 348 347 348 349 347 347 348 346 346 347 348 344 344 351 350 350 350 349 345 343 339 340 338 340 338 337 339 339 337 337 341 339 341 341 342 343 341 336
346 347 347 347 347 349 349 349 350 347 347 347 347 345 347 349 347 344 347 354 347 346 349 346 345 342 342 337 337 340 336 339 338 339 339 338 337 338 340 339 342 344 342
347 348 348 347 348 350 348 349 347 349 347 347 346 346 345 348 348 347 346 352 351 350 347 346 347 345 343 339 341 338 339 339 338 339 339 339 339 337 336 338 338 340 342
348 348 349 349 349 349 349 350 349 348 347 347 346 344 346 348 350 348 350 349 352 352 349 347 339 347 342 340 343 338 337 338 339 336 337 336 336 336 334 336 335 339 337
348 348 348 349 349 349 349 351 350 347 347 347 346 345 346 347 346 354 350 347 346 347 352 349 348 346 346 341 336 342 343 338 337 339 338 339 337 338 336 338 337 334 330
347 350 348 348 349 350 347 352 350 350 346 345 345 344 345 349 352 349 351 349 346 345 353 351 352 343 343 346 341 338 337 339 340 340 338 340 337 339 339 338 338 338 337
348 351 351 349 350 349 348 345 353 349 348 345 345 345 345 350 354 351 354 353 349 345 352 352 349 343 346 343 342 340 338 335 338 338 340 339 340 339 340 339 338 337 338

GFSSE_850_thetae_045.txt.gz
Theta_e
340 341 340 342 341 336 333 333 331 331 333 334 332 332 334 335 339 339 339 339 338 340 339 335 333 329 334 332 325 322 323 325 327 328 328 329 331 334 343 346 341 338 340
339 337 336 340 335 333 333 332 331 332 337 332 333 334 341 339 337 336 338 338 339 339 337 336 332 330 333 326 326 334 325 326 331 330 329 329 336 339 344 347 338 337 336
337 333 332 334 333 334 332 331 332 335 333 333 336 333 331 334 335 336 338 339 338 339 338 337 337 339 328 325 330 336 341 340 341 341 338 330 336 342 345 341 335 337 337
335 332 333 334 335 335 333 331 336 334 332 333 341 333 332 337 337 334 340 340 338 339 339 338 339 341 340 334 329 338 343 342 342 343 341 336 331 340 341 338 339 338 336
336 337 339 339 336 334 331 333 333 331 331 333 334 335 335 338 335 334 335 336 336 339 340 340 341 341 338 340 328 342 344 344 342 342 341 342 324 334 338 339 338 336 337
339 337 339 341 340 333 331 331 331 331 330 331 334 336 337 339 336 338 340 340 340 341 343 343 343 342 338 337 331 341 341 343 344 345 343 338 336 325 331 336 340 334 334
343 337 341 341 342 334 331 330 331 330 332 332 334 337 336 338 337 341 341 340 339 338 337 338 340 340 339 337 337 341 343 344 343 343 340 339 336 339 337 334 330 327 329
345 340 340 342 337 333 330 331 331 330 335 334 334 336 337 337 338 342 342 342 340 338 337 335 336 336 337 338 336 340 342 344 345 341 337 332 333 334 334 334 337 328 331
345 340 340 339 335 332 330 331 331 334 336 335 338 337 337 337 337 340 341 341 339 338 337 336 336 337 338 338 343 338 342 344 344 341 336 334 331 327 333 335 335 336 336
347 340 338 335 332 330 330 331 331 336 336 338 339 337 336 339 338 340 340 340 338 337 337 336 337 336 339 343 342 339 341 341 343 344 343 338 332 327 331 332 333 334 335
348 341 335 333 330 330 329 330 331 336 338 339 338 344 346 348 346 341 341 342 340 340 339 343 339 333 337 343 344 342 340 342 345 341 337 329 333 327 325 324 326 334 335
349 345 335 332 330 330 328 330 332 333 341 339 341 341 343 346 346 346 340 341 340 340 340 342 343 343 342 341 342 342 342 341 341 342 334 327 329 328 328 328 321 329 333
348 346 339 334 333 332 329 330 332 339 345 339 339 341 343 344 347 346 342 340 341 343 346 346 342 345 347 344 346 342 343 344 344 336 332 336 324 328 330 329 329 322 324
347 343 342 341 340 342 338 332 341 345 343 346 344 341 343 335 341 342 343 346 343 344 347 346 343 345 345 338 336 343 345 345 342 339 336 331 335 324 331 332 328 328 323
344 341 342 342 339 345 346 342 345 344 346 348 347 344 343 346 348 349 348 348 344 346 345 344 345 345 343 340 340 340 340 342 340 339 332 330 335 330 327 325 330 330 333
345 342 343 343 340 343 347 343 345 346 346 347 347 345 344 342 348 348 348 348 347 345 346 346 343 343 339 338 338 339 340 337 337 338 339 332 333 340 338 326 325 327 329
345 343 344 344 342 344 347 347 346 346 344 346 347 347 347 343 347 347 350 348 346 346 344 344 345 341 339 342 336 338 340 338 338 337 342 342 340 332 335 339 336 326 324
345 344 345 345 345 341 345 346 346 345 345 345 343 346 346 341 347 347 348 344 346 349 345 343 346 344 342 336 338 339 337 336 337 339 340 341 341 339 331 333 336 338 333
348 344 344 344 344 344 341 342 344 345 345 345 347 345 346 342 341 344 345 345 349 348 346 346 346 345 340 337 338 339 338 337 338 339 338 340 340 339 338 337 336 333 334
347 343 344 344 345 345 344 338 340 345 343 345 347 346 346 347 345 342 347 348 346 348 346 344 342 340 339 339 339 339 339 337 337 339 338 340 338 341 340 339 340 340 334
345 343 343 344 346 347 347 340 338 337 344 346 347 347 345 347 348 344 345 351 347 350 347 342 340 340 337 339 339 336 338 338 338 338 340 339 339 339 338 338 340 339 340
345 344 344 344 346 346 347 346 339 338 340 341 346 347 346 346 346 346 344 350 347 349 348 344 343 343 339 338 341 337 337 338 340 339 339 339 338 336 337 336 335 336 340
345 344 344 345 345 344 346 347 345 342 347 346 346 345 347 346 345 345 345 346 349 351 349 346 345 345 340 340 338 338 338 340 338 338 339 337 337 336 335 335 332 329 332
346 346 345 345 345 344 345 348 347 340 345 346 347 346 344 345 344 344 347 347 351 349 349 349 343 347 342 340 340 339 339 337 339 336 337 336 338 336 336 337 337 336 336
347 347 346 346 347 346 346 347 346 342 343 345 348 347 345 344 346 348 346 350 345 348 347 350 347 343 344 341 336 341 341 339 341 340 338 339 338 338 338 338 338 338 338
347 348 347 347 347 347 346 347 346 343 344 345 345 347 345 344 345 349 351 351 350 346 345 351 350 348 340 343 341 340 336 339 340 340 339 338 339 338 339 338 337 338 337

GFSSE_850_thetae_048.txt.gz
Theta_e
341 341 339 332 330 330 332 329 331 332 332 331 331 332 338 338 339 339 338 338 339 337 335 332 328 333 329 325 323 323 326 327 329 332 333 334 333 340 343 336 338 337 337
340 339 339 337 333 332 330 330 333 332 332 332 338 337 337 336 338 338 338 340 342 336 335 330 332 330 326 328 326 328 328 330 329 331 336 336 338 342 344 333 336 335 337
339 340 340 335 332 330 329 331 333 332 333 333 331 333 335 336 337 338 338 339 340 338 336 336 336 331 327 336 339 332 332 331 332 329 330 336 338 342 345 337 338 337 336
337 339 336 333 331 329 331 333 332 332 336 333 332 342 344 334 336 344 339 341 339 338 337 340 341 339 328 337 342 341 340 341 337 334 330 335 340 342 337 338 337 336 335
333 334 333 332 330 329 331 336 331 332 335 334 334 344 338 334 334 335 336 337 339 340 340 340 339 339 333 338 343 343 340 340 335 338 334 326 336 337 339 338 336 336 335
333 334 335 333 330 329 331 330 331 331 333 335 340 344 335 336 340 340 340 340 342 342 343 343 341 337 336 335 341 342 342 341 340 341 336 328 329 337 336 339 332 334 334
337 338 336 333 329 330 330 330 330 331 332 336 336 338 337 339 340 339 338 338 337 336 339 339 337 338 336 337 341 343 343 343 341 341 340 336 332 335 332 334 327 333 335
338 340 339 339 330 330 330 330 331 334 333 336 336 336 337 339 341 341 340 337 336 335 335 335 337 336 337 337 341 342 343 343 341 334 332 334 335 334 329 332 328 330 335
338 340 339 336 331 330 330 330 333 335 334 337 336 337 336 338 341 339 340 338 336 336 336 336 337 338 338 339 340 340 342 342 341 338 333 330 330 333 335 334 333 334 336
339 338 337 331 330 330 331 331 335 335 337 337 335 336 336 337 339 339 339 338 337 337 337 336 336 342 341 339 341 341 339 342 343 342 339 331 327 331 332 332 334 334 334
341 339 335 330 330 330 331 331 335 338 338 338 337 343 340 340 339 341 340 339 339 339 342 338 334 339 342 341 340 342 341 341 342 338 331 332 328 326 325 327 331 332 333
343 339 332 330 329 329 330 331 337 338 338 340 343 344 344 341 339 340 341 340 339 339 342 344 339 338 341 342 342 341 340 341 342 336 330 330 329 326 325 323 331 333 335
342 339 332 330 329 328 330 331 336 340 337 333 339 342 344 345 340 341 341 338 340 343 342 343 344 346 346 344 343 343 343 343 340 333 333 328 329 328 328 325 322 329 335
346 339 331 330 329 328 330 331 341 343 340 343 342 336 343 342 342 340 343 339 343 344 342 343 344 343 340 341 340 344 345 340 338 335 331 334 325 330 329 327 326 322 325
347 345 331 330 330 329 332 338 344 344 345 344 346 343 345 344 346 347 344 344 345 343 342 342 341 341 340 340 339 339 341 342 339 332 329 333 333 327 330 330 328 327 323
347 344 332 333 332 333 342 342 344 344 346 347 347 340 340 344 346 346 346 344 345 343 345 342 343 343 342 340 337 337 337 340 338 337 339 333 338 337 329 325 327 329 332
346 341 338 338 336 341 341 343 345 346 346 346 348 346 346 344 344 346 346 347 344 344 345 343 340 339 340 338 339 339 339 338 338 341 340 341 338 332 338 336 328 324 328
345 342 341 342 339 341 342 343 345 347 344 345 345 346 346 344 339 345 347 344 346 346 344 343 340 341 338 338 339 339 336 337 338 340 340 339 337 332 331 337 338 337 329
344 344 341 343 342 342 343 341 345 345 346 345 344 343 345 344 340 342 344 345 344 345 343 343 344 342 338 337 339 339 337 337 338 338 339 338 339 337 336 334 335 333 335
346 346 342 342 344 342 342 338 345 345 345 345 345 345 345 346 344 342 347 343 346 345 345 343 342 339 340 338 339 339 338 338 337 337 340 339 340 340 339 337 339 337 333
346 345 345 343 345 343 342 342 340 346 344 345 346 347 347 346 347 345 345 345 347 347 347 345 341 340 338 339 340 339 339 339 337 338 339 339 338 336 334 335 339 336 339
346 346 346 344 344 344 345 343 338 343 341 343 345 347 347 346 346 346 343 347 344 348 346 342 338 340 339 339 337 338 338 338 340 337 338 339 339 336 335 334 333 335 339
346 347 347 344 343 344 344 345 341 336 340 341 344 346 346 347 347 345 344 343 347 349 347 345 343 342 337 337 339 335 337 338 340 340 339 340 337 335 334 334 336 334 333
348 347 347 343 343 343 343 343 343 337 334 334 339 345 346 346 348 345 345 344 349 349 349 348 343 344 338 338 339 337 337 338 338 338 339 339 337 337 336 337 337 337 336
348 348 344 343 343 343 344 344 340 342 334 334 339 344 345 344 345 344 345 345 347 348 348 349 341 345 343 339 340 338 337 337 338 336 337 337 337 338 337 337 338 338 336
348 347 344 343 343 344 344 344 343 340 339 335 340 345 347 345 344 344 347 345 347 346 347 347 346 342 345 340 336 340 339 337 338 340 338 338 337 337 338 338 338 337 337

GFSSE_850_thetae_051.txt.gz
Theta_e
341 337 333 330 331 331 331 335 332 331 332 334 340 342 342 341 340 343 337 339 338 337 333 328 333 332 325 325 328 327 327 329 333 336 334 334 339 337 335 338 336 336 336
339 334 331 330 331 330 331 332 332 331 334 334 338 338 338 339 339 339 340 340 336 333 329 333 329 325 323 322 335 329 327 327 331 334 338 339 341 341 333 337 336 336 335
338 334 332 331 332 329 332 332 331 332 335 335 336 335 337 338 340 339 342 339 341 333 332 331 326 331 335 326 328 332 331 327 328 332 336 338 342 344 336 338 336 336 334
337 337 333 332 329 330 333 331 333 334 331 334 339 334 339 342 339 343 341 340 337 338 340 340 334 333 340 340 336 338 338 331 329 330 334 338 342 341 339 339 338 337 333
339 338 332 330 330 331 332 331 333 333 332 336 344 344 334 339 339 340 340 339 338 339 340 338 338 332 341 341 340 339 340 336 334 327 332 338 340 337 338 335 335 334 335
341 333 331 329 330 334 331 331 334 334 334 343 342 341 337 338 338 338 341 342 342 342 341 338 338 332 341 342 341 340 338 338 337 333 325 333 335 338 339 334 335 333 337
338 332 331 329 330 331 330 330 332 334 336 342 342 339 340 339 338 337 336 336 337 338 338 337 336 333 338 340 342 341 340 339 339 338 333 326 334 338 340 329 334 332 330
332 332 331 329 330 329 330 330 332 333 336 335 337 338 341 340 339 337 335 334 334 335 336 336 336 335 338 341 341 341 341 340 333 332 334 337 336 333 329 327 329 334 333
335 332 331 329 329 330 330 332 333 333 336 336 336 338 341 340 339 338 336 335 335 335 337 337 337 336 337 340 340 339 341 339 336 332 331 331 332 332 334 329 330 334 335
336 335 333 329 329 330 330 334 334 335 336 336 336 337 339 339 337 338 336 337 336 336 335 338 340 339 339 340 340 339 341 342 341 337 332 328 330 332 332 333 334 335 337
340 338 334 329 329 330 331 335 334 337 336 335 336 336 337 337 338 339 338 339 339 340 337 335 340 341 339 339 340 340 339 342 340 335 333 329 329 329 329 331 333 335 336
340 339 332 329 329 330 332 335 337 338 336 336 341 338 338 337 340 340 340 339 339 341 340 336 339 341 342 341 340 340 340 341 339 334 329 329 327 324 322 333 330 332 334
338 337 331 328 328 330 331 336 338 337 340 343 342 344 342 339 340 339 338 340 342 342 342 343 344 342 343 341 341 342 341 342 339 333 330 329 327 327 323 327 333 336 331
338 336 330 328 328 329 331 336 339 336 334 340 341 343 344 342 342 339 338 342 342 342 342 344 343 341 340 340 343 343 341 340 338 332 333 328 328 329 328 325 323 329 334
339 337 330 328 328 328 331 334 341 340 342 344 339 340 338 344 344 342 344 342 342 343 343 342 342 340 338 338 339 339 342 340 334 330 331 334 325 331 329 327 326 322 324
340 337 331 328 328 328 331 336 342 344 345 346 342 342 342 345 346 344 343 345 344 344 342 343 342 342 338 337 336 338 338 338 335 335 334 336 333 330 328 329 329 330 330
341 338 332 329 329 329 336 343 344 345 346 347 345 344 344 344 345 345 345 343 342 342 343 343 343 344 342 337 337 338 337 337 338 339 340 336 334 337 337 328 326 327 329
342 344 336 329 330 332 337 343 344 345 345 346 347 345 346 345 344 344 346 344 343 343 343 341 340 340 341 337 335 336 337 338 339 341 339 337 333 331 336 339 337 332 327
345 344 336 331 333 335 339 343 344 345 344 345 344 345 346 344 342 342 342 343 344 342 343 341 343 343 337 337 338 337 336 336 339 340 338 339 335 335 335 333 334 334 335
346 345 336 339 338 339 339 342 344 346 345 344 342 344 345 345 342 341 345 343 344 343 342 343 341 339 336 337 339 337 337 338 336 338 340 338 339 340 335 338 338 337 334
346 346 341 340 342 340 342 343 344 345 345 345 343 345 346 346 346 344 344 344 344 346 344 343 341 339 339 338 339 338 337 338 338 338 338 338 337 336 335 337 338 336 337
347 346 343 342 341 342 341 342 341 343 345 344 345 345 347 347 347 347 344 345 345 345 345 344 340 339 338 339 339 338 340 338 339 337 338 339 338 336 334 332 331 334 337
347 346 344 345 344 341 343 342 343 341 344 344 344 345 345 345 346 347 345 343 347 344 344 342 339 341 338 339 337 337 337 338 339 337 337 339 338 336 335 335 336 332 329
345 345 345 345 345 343 343 343 343 342 339 342 342 344 345 346 345 346 345 344 345 346 345 346 345 343 339 337 338 334 335 336 339 339 338 338 338 336 335 336 337 336 334
344 343 344 345 345 345 343 343 344 344 338 335 339 339 344 346 345 345 345 344 344 347 347 348 345 343 342 336 338 337 337 337 337 336 335 337 336 337 337 336 337 337 336
343 343 343 344 345 346 343 343 344 343 340 335 332 335 340 344 344 344 343 345 345 346 347 347 348 342 345 340 339 338 337 337 336 337 336 336 337 337 338 337 338 337 337

GFSSE_850_thetae_054.txt.gz
Theta_e
344 344 343 334 331 330 331 331 331 331 332 333 333 334 334 333 334 337 338 341 337 336 329 330 332 328 327 332 330 333 333 337 338 337 333 339 337 333 337 338 340 339 340
342 341 334 331 329 336 332 331 332 333 338 342 341 341 339 339 340 339 339 337 336 331 329 331 324 322 322 329 325 326 327 329 334 335 335 340 340 333 336 336 342 341 333
339 333 338 334 331 335 332 331 339 338 338 338 338 341 341 339 339 340 338 339 333 329 330 326 330 334 325 328 335 334 327 335 337 338 336 340 342 338 339 342 337 333 335
332 332 341 331 332 337 332 332 339 337 337 338 339 337 341 339 339 343 341 339 335 337 337 333 335 339 332 333 333 334 330 329 331 334 335 339 342 340 340 340 339 333 335
332 330 332 329 332 333 333 340 331 332 341 339 334 341 343 341 343 340 338 337 339 340 339 334 336 341 340 339 339 338 336 331 330 336 339 341 337 339 336 337 337 336 331
332 331 331 329 332 331 333 339 332 333 341 341 342 335 337 337 338 339 339 339 340 340 338 337 332 341 340 340 340 337 335 335 328 332 336 336 337 340 335 334 332 335 336
334 331 329 330 340 331 331 342 333 337 343 341 339 341 341 340 340 341 339 339 339 338 337 336 331 339 341 340 341 337 336 338 335 327 330 336 338 340 333 337 332 334 335
333 330 329 331 338 330 330 335 334 337 342 340 340 342 339 338 336 335 334 334 335 335 335 335 333 337 340 341 341 338 337 331 333 334 334 337 337 336 332 336 334 334 337
331 330 328 330 330 330 330 332 335 335 335 339 344 342 338 337 337 336 334 335 336 336 336 336 335 337 339 340 339 339 338 334 331 331 331 332 330 331 331 329 334 334 333
332 330 328 329 329 330 332 332 334 335 335 336 339 339 338 338 338 336 335 336 336 337 340 339 336 338 338 340 339 341 341 338 336 332 329 331 340 334 334 332 335 336 333
343 332 328 329 329 330 334 333 334 335 336 336 337 338 337 337 337 337 337 338 338 336 338 340 339 338 338 339 338 338 340 340 336 333 330 329 335 341 333 336 337 336 335
341 334 328 328 329 330 335 333 336 335 335 335 336 337 337 339 339 338 339 340 338 339 337 340 339 340 340 339 340 340 340 339 335 330 331 329 332 326 334 333 334 334 334
337 333 330 329 330 331 334 335 337 335 336 340 339 338 338 339 339 339 338 339 340 342 339 341 338 340 340 341 341 341 341 341 334 332 329 329 328 326 328 330 336 335 332
338 333 329 329 329 331 335 337 337 338 341 341 342 343 342 341 340 338 339 342 343 342 343 342 341 341 341 340 341 341 340 340 334 332 331 328 328 328 325 329 331 333 331
336 333 329 328 329 331 334 338 337 335 338 340 340 343 342 342 341 340 341 342 342 342 342 342 341 339 338 338 339 341 338 335 331 331 333 328 334 329 327 326 323 324 326
335 333 329 327 327 330 331 338 337 339 343 340 340 341 342 345 343 342 342 342 342 342 339 341 341 338 337 336 336 338 337 336 335 333 335 337 334 335 329 329 328 327 324
335 333 329 328 327 329 331 341 339 342 345 343 342 342 343 344 345 343 342 344 343 342 341 341 342 339 337 336 333 337 337 338 338 337 336 335 336 338 334 327 325 328 329
336 335 330 328 328 328 331 340 343 345 345 346 344 343 345 343 344 345 346 342 339 341 342 340 340 340 338 337 336 337 337 337 339 338 337 334 332 334 338 338 335 332 336
336 335 332 329 328 328 335 342 343 344 345 345 346 345 345 343 342 344 342 343 343 341 341 340 343 340 339 337 337 336 335 338 340 339 338 336 336 336 333 333 334 334 334
340 337 337 331 328 329 337 342 343 344 345 345 344 344 345 345 341 342 344 344 343 341 340 342 342 342 340 338 339 337 337 338 339 339 339 338 338 336 337 338 336 336 335
344 341 342 336 329 330 337 341 343 343 344 344 342 344 344 345 344 342 343 344 343 342 342 342 339 339 337 337 338 337 337 338 337 338 339 339 338 336 336 336 337 334 335
343 343 344 338 331 333 337 339 341 343 342 345 344 343 344 345 346 346 343 345 344 344 344 344 342 339 338 338 339 338 338 337 338 338 338 338 337 337 335 333 334 334 335
344 344 345 340 337 338 338 340 341 343 345 345 344 344 344 345 346 346 346 345 345 345 343 341 337 339 337 339 339 337 338 337 338 337 337 338 337 336 335 335 334 331 328
344 345 344 343 340 340 341 340 341 342 342 343 345 344 344 345 345 345 346 345 342 345 343 343 342 341 337 338 338 336 336 336 336 337 338 338 337 336 335 336 336 335 330
345 345 344 344 341 341 342 341 342 342 342 342 343 344 344 344 344 344 345 345 344 344 346 345 344 342 342 338 337 336 334 335 337 336 335 336 336 336 337 336 337 337 336
346 345 346 345 341 342 344 345 342 342 342 342 342 341 342 341 343 343 343 344 344 345 346 345 345 345 342 341 336 338 338 337 336 336 336 336 336 337 337 337 337 338 337

GFSSE_850_thetae_057.txt.gz
Theta_e
344 344 344 343 338 333 331 332 335 337 339 339 337 338 339 335 331 331 333 341 335 333 328 332 331 329 332 330 332 334 339 339 340 336 340 336 335 344 341 341 345 343 335
344 344 341 333 330 330 331 331 331 331 332 332 333 334 334 335 335 336 340 337 335 339 335 325 323 322 328 335 330 330 331 336 335 337 340 340 338 336 337 341 343 339 339
344 339 331 332 331 331 331 332 336 339 341 341 341 339 338 339 337 338 337 335 330 339 326 330 333 324 330 336 329 328 331 335 338 337 340 346 343 339 339 339 336 336 330
343 343 330 334 331 331 337 340 340 339 341 340 341 341 339 339 340 339 340 334 332 332 334 335 338 329 330 333 335 329 333 335 334 334 343 347 344 341 339 339 339 333 335
342 342 330 335 332 331 336 339 337 337 339 341 339 340 340 340 342 340 338 341 341 339 334 335 340 338 338 337 335 335 331 331 333 337 342 343 345 339 339 338 335 334 337
341 342 330 337 332 338 341 331 337 343 338 335 343 342 342 342 342 341 339 340 339 338 335 335 340 339 339 338 336 333 334 328 335 340 343 337 343 338 334 333 332 336 334
342 342 331 339 331 335 340 332 337 341 342 337 337 338 340 340 341 343 343 340 339 336 336 331 341 340 340 339 336 335 337 328 331 334 339 341 341 335 337 333 338 337 337
342 343 334 340 331 335 344 333 342 341 339 342 342 343 345 340 336 336 336 336 335 334 335 332 338 340 341 339 336 335 334 335 330 330 340 340 340 333 337 333 334 337 335
340 340 340 343 331 332 341 334 339 342 340 342 341 341 342 336 335 335 336 336 336 336 335 334 337 339 340 339 337 336 332 332 334 340 342 342 333 330 331 337 334 333 333
336 340 339 343 334 330 332 334 334 336 340 343 342 341 337 336 335 335 336 336 339 339 337 335 336 338 339 339 339 338 337 334 332 338 339 341 335 340 336 336 335 333 333
339 340 339 339 330 331 332 334 335 335 337 339 338 337 337 336 336 336 337 336 337 339 339 338 337 338 338 338 338 338 338 335 334 340 342 339 340 337 336 336 337 335 334
341 341 339 332 330 332 334 334 335 340 341 337 337 337 338 338 338 338 339 337 337 338 340 339 339 339 340 343 340 340 339 335 337 339 341 339 338 336 335 334 335 334 334
343 337 332 329 330 333 334 335 336 336 335 335 336 337 339 339 339 339 339 339 341 338 339 338 339 340 340 341 340 341 341 336 335 339 339 340 336 336 335 333 334 333 333
343 330 329 329 330 333 334 336 335 335 338 337 337 339 338 339 338 338 339 341 342 341 343 342 340 341 340 341 341 340 339 338 334 337 335 330 328 325 327 336 336 331 329
337 331 329 329 330 333 335 337 336 338 341 341 342 343 343 342 338 339 341 342 342 342 342 340 338 337 337 339 340 339 338 334 332 335 339 330 332 328 326 324 328 329 330
333 331 328 329 330 333 335 337 337 338 339 340 342 342 344 341 342 342 342 343 343 341 342 341 338 336 336 336 339 338 338 336 334 335 340 329 335 329 329 327 326 325 323
332 330 328 328 330 331 337 337 335 340 342 339 341 342 343 345 343 342 343 342 343 342 341 339 339 337 337 333 337 337 338 337 337 335 335 335 338 337 331 326 326 329 330
333 331 328 328 328 330 332 338 340 343 344 341 342 343 344 345 344 343 343 343 342 343 340 340 342 340 337 337 338 337 337 339 338 337 335 333 333 342 339 337 335 334 333
334 332 329 327 327 329 331 339 340 344 346 346 344 344 344 344 344 346 345 343 341 342 337 339 340 339 338 337 336 335 337 339 339 338 337 336 336 335 333 334 334 334 334
335 334 331 328 327 328 330 337 343 344 345 345 346 345 345 344 343 344 342 343 344 341 341 340 338 341 338 338 340 336 337 338 339 339 338 338 337 335 337 338 337 338 334
340 336 335 330 328 328 330 336 342 343 344 345 344 343 344 344 341 342 345 344 344 340 339 342 340 340 339 338 338 337 337 336 337 339 339 338 337 336 336 336 336 334 335
343 340 336 333 329 328 332 340 342 341 343 343 343 343 343 345 345 344 343 345 343 343 341 341 341 339 338 338 339 339 340 338 337 338 337 337 337 336 336 334 332 332 332
346 343 339 336 335 329 329 337 340 341 342 344 344 342 344 345 345 346 345 345 345 345 343 342 339 340 339 338 338 339 340 339 337 336 336 337 337 336 335 335 335 332 327
346 344 343 338 341 331 330 331 338 339 340 341 343 344 344 344 345 346 346 346 344 345 342 342 341 339 337 338 338 337 337 337 337 339 337 337 336 336 336 336 336 335 329
346 342 343 342 343 335 331 334 337 340 338 339 342 344 344 344 344 344 345 346 345 343 344 344 345 342 340 339 338 337 334 335 336 339 339 340 337 337 337 337 337 337 336
345 344 341 342 344 339 337 338 339 340 341 341 342 342 344 344 343 343 344 345 345 344 344 345 345 346 341 343 337 337 337 339 340 338 339 339 338 338 337 338 337 337 337

GFSSE_850_thetae_060.txt.gz
Theta_e
346 344 344 344 344 344 344 343 343 343 342 341 342 343 343 340 331 330 335 335 336 330 329 331 330 332 330 332 335 339 340 340 338 341 335 343 341 341 340 346 346 343 334
347 345 343 342 341 341 340 341 341 340 339 337 337 337 336 332 335 341 342 337 335 332 324 324 323 328 339 332 333 334 339 338 338 341 340 338 337 337 340 342 342 339 337
350 346 341 331 330 331 331 332 331 332 332 333 333 334 336 337 340 341 337 332 341 328 331 333 326 331 332 327 329 330 335 337 340 341 348 347 346 342 339 338 336 331 338
348 346 346 332 332 332 335 335 339 340 341 341 340 339 340 338 340 343 336 331 339 341 335 339 328 334 339 331 331 334 335 337 337 343 348 347 346 340 337 340 332 338 335
345 344 342 335 332 338 339 339 339 339 338 341 340 341 339 341 340 341 339 340 341 337 336 340 337 336 335 334 331 333 331 333 338 345 349 348 346 341 336 334 338 339 340
344 343 340 333 332 341 338 336 337 340 341 339 339 342 341 341 340 338 339 340 339 337 335 340 339 338 338 335 334 331 333 338 346 347 347 345 344 335 334 333 336 338 331
343 343 345 333 341 340 331 342 343 340 339 342 342 342 343 343 344 341 340 340 337 337 332 341 340 339 337 335 335 335 328 340 345 345 346 344 342 339 335 340 337 335 326
342 342 346 336 338 339 332 341 341 341 337 340 343 345 343 344 343 340 337 334 334 335 332 339 341 340 337 334 333 335 331 338 342 346 345 345 337 338 334 333 336 334 325
342 343 347 344 341 343 333 342 340 339 342 342 342 341 341 337 332 335 335 335 335 335 333 338 339 340 338 336 334 332 334 341 345 345 345 343 332 336 336 335 337 333 332
342 343 347 345 345 349 339 342 342 340 341 340 339 340 339 334 336 335 338 339 339 336 335 337 338 338 339 338 337 335 334 341 341 341 343 339 339 334 336 335 334 337 334
342 342 345 343 345 346 347 342 341 342 342 340 340 339 346 346 345 346 339 338 339 338 337 337 338 338 338 337 337 338 342 342 341 341 341 340 337 334 336 337 335 334 334
341 342 343 343 345 346 345 346 347 345 347 347 347 347 347 347 348 346 340 337 339 339 339 339 339 344 347 344 343 344 341 341 341 341 340 339 338 336 336 336 334 335 333
341 341 343 344 346 346 346 347 347 347 346 347 346 347 347 348 346 348 344 346 345 344 344 345 345 346 346 345 345 343 343 342 339 341 335 332 337 337 331 332 333 334 334
341 341 343 344 346 347 346 347 347 346 345 345 346 338 346 349 348 347 346 345 346 347 347 346 345 347 347 347 345 344 343 342 340 339 333 336 332 329 335 335 333 330 333
341 341 343 344 346 348 347 347 346 346 346 347 347 340 349 349 349 347 347 348 347 348 345 345 344 344 341 347 347 346 344 343 343 340 341 330 328 328 333 329 336 335 334
341 340 342 344 345 347 348 348 348 348 349 349 348 346 344 349 350 348 348 348 347 348 346 346 344 342 343 344 346 346 345 344 344 345 341 334 331 329 328 327 325 329 324
341 342 342 344 344 345 348 347 348 348 347 348 348 344 342 346 343 349 349 349 347 347 344 347 346 342 338 340 344 346 345 344 343 344 345 345 341 335 328 328 328 330 329
342 343 343 342 343 345 346 345 347 347 347 348 349 347 344 345 343 345 344 348 349 348 346 345 337 341 339 340 342 342 343 343 344 344 344 345 344 344 340 338 334 332 333
344 344 344 343 343 342 343 344 346 347 348 349 350 350 344 345 345 348 348 350 342 347 345 345 343 343 340 341 341 342 343 342 342 342 342 343 344 344 343 336 334 333 333
345 345 344 343 343 342 342 340 345 347 348 349 350 350 345 347 344 345 351 346 343 346 346 346 346 343 343 343 340 342 342 342 341 340 341 340 341 343 344 345 343 344 332
344 345 345 344 344 340 340 343 344 346 348 349 349 346 345 344 343 342 351 346 344 347 346 348 347 344 337 337 342 341 340 342 344 341 340 340 340 340 340 341 340 340 341
344 345 346 345 344 331 340 342 344 347 348 348 350 344 344 344 342 346 350 347 345 348 349 343 343 344 345 341 343 340 339 339 340 338 339 341 342 341 342 342 340 340 336
345 346 346 345 340 329 340 341 346 349 350 351 350 348 347 344 345 346 344 348 343 345 349 345 343 344 343 344 341 343 338 339 336 336 340 341 343 343 342 343 342 340 339
345 347 348 346 335 330 329 341 346 347 345 345 348 347 349 344 345 345 346 345 344 346 349 344 345 345 343 342 342 339 338 339 337 338 339 342 342 343 344 343 342 343 340
346 347 349 349 341 338 329 337 343 343 343 345 347 350 351 346 345 349 345 345 343 349 350 347 344 343 341 341 341 340 340 339 338 340 340 341 341 341 342 343 341 341 342
347 347 349 350 339 336 335 329 338 342 343 345 348 349 349 349 350 345 346 344 344 343 345 348 349 342 347 344 342 341 339 339 340 341 341 342 341 341 341 342 342 342 341

GFSSE_850_thetae_063.txt.gz
Theta_e
345 346 345 343 343 343 343 342 343 343 341 342 343 344 339 338 330 336 339 336 336 331 331 331 332 331 334 336 339 339 339 338 339 337 340 341 339 345 346 344 343 342 337
347 346 346 343 344 346 344 343 343 342 341 342 343 343 340 333 338 343 337 338 335 325 325 325 327 330 333 332 333 340 339 340 339 338 337 337 338 342 344 344 336 335 337
350 347 345 344 343 342 342 342 341 338 335 335 336 335 334 338 339 338 335 340 333 334 331 329 330 329 328 338 332 338 337 339 341 345 347 348 344 337 338 334 333 337 336
348 347 345 334 332 332 332 332 333 334 335 335 335 338 338 339 343 338 333 342 341 338 336 328 339 340 331 336 332 334 337 339 347 347 346 348 345 336 337 334 335 334 327
345 344 340 334 332 338 335 338 340 341 341 341 340 339 339 341 342 341 337 341 338 341 340 337 335 336 335 329 333 334 333 339 345 349 346 348 345 338 335 340 341 338 337
345 344 335 332 338 340 338 339 338 338 342 340 340 340 342 341 338 339 341 339 337 338 340 339 338 337 333 332 329 331 342 345 346 347 347 347 344 336 339 338 337 326 333
345 345 345 335 343 339 336 336 339 340 343 341 342 342 343 342 340 340 340 338 336 334 340 340 339 336 335 335 330 335 345 344 346 347 345 348 340 337 339 337 336 328 338
343 344 342 339 341 332 343 342 340 339 339 340 345 343 344 343 339 337 335 335 335 333 339 341 339 336 334 334 334 331 343 345 345 346 347 344 338 335 336 337 336 325 327
342 345 346 347 340 333 341 342 341 340 344 346 343 340 335 332 334 336 335 334 334 333 339 340 339 336 335 331 332 334 342 343 342 346 345 342 339 335 335 338 331 332 335
342 343 345 346 349 346 343 342 340 342 341 340 338 334 332 335 337 342 341 337 335 335 338 338 338 338 337 336 332 337 341 343 342 345 343 336 335 336 336 335 335 334 332
342 343 342 344 348 346 349 342 341 341 339 339 336 344 346 346 346 347 339 338 336 336 337 338 337 337 335 334 336 342 343 341 342 343 341 335 334 335 336 335 334 334 331
341 342 342 344 345 345 345 343 348 347 347 348 345 348 347 347 346 344 338 338 338 337 338 339 346 342 346 346 345 343 342 341 341 343 341 338 337 336 336 335 335 334 332
340 342 341 344 344 343 346 348 346 348 345 348 347 348 345 345 346 345 344 344 341 343 344 344 344 347 346 346 345 342 341 339 342 342 332 334 336 334 331 332 334 334 333
340 341 341 343 346 346 343 346 347 346 344 345 347 349 344 349 348 347 347 346 347 348 344 344 346 346 346 345 344 343 342 340 339 342 330 334 334 333 335 336 330 333 335
340 341 342 344 346 349 348 348 347 344 344 347 348 349 349 348 347 347 347 346 347 344 342 342 343 345 345 346 346 344 342 341 341 342 336 326 325 332 333 336 336 334 330
340 340 343 345 347 347 347 347 346 344 348 346 348 348 349 349 348 348 346 346 345 345 346 345 345 344 345 344 345 346 344 344 344 344 342 327 326 327 325 325 330 327 324
340 340 343 345 347 348 349 348 345 346 348 348 348 346 351 349 350 349 348 345 347 348 348 346 341 339 340 344 342 346 342 344 345 345 343 343 342 340 329 325 327 329 326
341 340 343 343 346 347 350 348 348 346 347 347 348 350 350 352 350 349 347 348 346 346 346 344 342 341 339 342 343 344 343 343 344 344 345 345 346 346 342 337 334 329 328
342 342 343 344 346 347 350 348 349 348 348 347 348 349 347 353 346 351 349 350 341 347 343 345 341 342 340 338 340 341 343 341 344 344 343 344 343 345 347 341 333 334 332
342 343 344 344 345 347 349 349 348 349 349 349 349 350 348 352 352 347 350 348 347 346 346 345 343 342 343 342 343 342 343 341 340 342 342 341 342 343 343 344 343 346 337
343 344 345 345 345 346 348 347 346 347 348 349 350 352 350 353 352 346 352 343 347 347 349 344 344 344 336 338 342 340 340 339 341 341 339 340 339 340 340 342 343 343 345
344 346 345 345 345 346 346 345 346 346 348 348 347 352 352 351 353 353 352 351 349 348 349 348 349 344 342 339 340 341 340 340 343 340 338 339 341 341 343 342 342 337 340
345 346 346 346 345 344 344 344 346 347 348 347 350 351 351 352 353 354 346 352 349 349 349 345 344 347 345 343 345 339 342 340 338 336 338 340 343 343 343 341 343 342 342
344 346 347 346 345 344 342 343 345 347 346 347 348 348 350 352 352 353 354 352 343 351 350 349 347 347 346 343 340 342 341 342 343 338 340 341 343 343 344 344 344 344 343
345 346 347 347 347 344 336 342 344 347 346 346 347 349 349 351 353 352 353 349 347 348 350 349 351 346 343 347 340 339 340 335 342 343 344 343 343 342 343 345 342 342 344
347 346 348 348 347 343 338 334 343 345 346 344 345 351 348 352 351 352 353 352 347 353 351 352 351 347 347 344 344 340 337 340 340 342 341 341 342 343 342 342 342 342 342

GFSSE_850_thetae_066.txt.gz
Theta_e
342 340 342 342 340 338 338 342 343 342 342 342 343 340 340 330 334 338 338 340 330 328 329 332 341 332 335 337 338 338 338 334 337 337 338 343 344 344 345 345 336 333 332
345 344 343 345 342 343 342 342 343 341 342 343 343 342 334 337 341 337 340 331 327 327 338 328 336 337 334 335 339 339 338 338 338 337 337 341 343 344 343 339 334 336 334
349 346 345 345 346 346 343 343 342 340 339 340 340 336 339 339 340 335 341 335 338 329 333 334 331 334 337 333 338 337 339 343 345 346 346 342 338 340 331 335 332 334 333
350 348 346 345 346 341 339 337 334 332 333 333 334 337 339 341 338 334 342 339 340 331 330 341 337 329 333 331 334 336 340 345 347 348 347 345 341 331 335 332 329 327 335
347 348 340 345 332 333 338 339 341 340 341 339 339 339 340 342 340 335 341 337 340 338 336 333 335 335 329 332 334 337 341 346 347 348 347 345 335 338 340 340 334 339 332
345 346 331 333 342 339 342 341 339 340 340 342 340 341 341 340 340 341 339 335 340 339 338 338 336 331 329 330 333 340 345 347 347 346 344 342 337 342 338 337 324 336 336
346 335 332 337 340 340 340 339 338 339 340 341 341 342 341 342 340 340 338 334 337 340 339 337 336 334 333 329 338 345 345 345 347 345 343 334 336 337 337 330 331 335 323
346 346 338 342 339 337 336 340 339 342 341 343 342 343 342 342 334 334 335 334 337 339 340 337 334 332 333 329 343 344 343 347 344 344 340 335 338 336 337 328 328 326 323
344 346 344 341 334 342 342 339 337 340 343 343 341 335 331 335 337 335 332 333 334 339 340 337 333 331 332 328 340 343 341 346 347 345 337 336 336 335 337 329 334 334 333
345 346 349 344 343 344 341 340 341 344 342 337 332 332 334 342 343 344 336 333 335 337 338 337 337 335 329 334 341 343 343 345 344 344 340 332 337 335 334 331 334 331 330
343 344 346 348 345 345 341 342 340 338 336 336 343 343 348 348 344 342 336 334 334 337 338 336 336 335 334 342 343 344 345 347 344 342 332 333 337 337 334 334 334 331 331
343 341 344 348 347 347 348 341 339 338 343 344 348 347 348 347 345 337 337 334 335 338 340 337 335 342 344 344 342 341 341 344 344 341 330 334 335 336 335 334 332 331 331
342 341 344 344 345 346 346 340 345 346 347 345 346 348 348 346 343 342 339 342 340 340 343 342 345 344 346 347 345 341 339 342 342 338 327 335 335 330 331 333 333 333 329
342 342 345 341 345 347 343 347 346 346 349 345 346 348 345 344 344 347 347 348 342 346 348 346 347 345 343 344 344 344 343 343 342 337 325 334 332 333 333 328 332 334 331
342 342 345 340 346 347 346 343 347 344 345 346 344 348 348 348 348 347 345 348 345 343 344 343 348 344 346 345 344 343 341 344 342 341 325 324 325 332 330 334 330 330 328
340 342 344 339 346 347 346 349 347 341 347 348 346 350 347 349 347 347 344 347 344 347 344 344 342 345 345 344 344 343 342 342 345 342 338 326 325 325 325 326 330 323 324
340 342 344 343 348 346 345 347 343 344 349 346 349 347 348 348 346 348 346 345 347 346 340 340 341 343 339 342 343 345 343 342 342 344 343 343 344 340 332 324 325 326 324
341 342 344 343 346 345 346 347 345 349 348 349 349 346 347 348 351 348 348 346 347 346 343 344 344 343 344 342 345 341 344 342 344 345 343 342 343 344 339 334 335 334 331
341 341 344 344 346 345 345 343 346 349 349 347 349 351 344 347 347 346 347 349 343 349 348 341 341 343 340 343 343 344 341 342 343 342 343 344 341 343 343 343 340 342 334
342 340 343 345 346 346 349 346 347 346 347 349 348 348 348 347 346 348 349 346 349 345 346 347 343 344 342 342 342 344 341 342 342 342 341 344 340 342 343 343 344 345 343
343 341 342 345 346 345 349 345 349 347 348 349 349 350 349 352 352 346 349 341 350 347 344 346 345 345 340 342 342 339 343 338 340 341 341 341 339 343 341 342 342 346 346
343 344 343 344 347 345 350 347 346 349 347 347 350 353 346 352 352 351 350 346 344 350 345 349 343 343 339 337 342 342 340 341 343 340 339 339 342 341 343 343 343 339 342
344 344 344 344 349 346 348 346 346 346 349 348 351 351 346 348 348 352 348 349 347 349 345 346 346 345 341 340 340 342 342 339 342 337 337 341 342 342 344 343 343 340 332
345 344 344 345 347 345 346 345 345 346 348 346 350 350 345 349 350 349 350 345 346 345 345 340 340 348 343 345 341 343 343 340 345 338 340 342 341 342 343 344 345 344 344
346 346 345 345 346 345 342 346 346 346 346 350 345 350 348 349 348 354 350 349 342 350 350 348 348 347 346 345 339 340 340 338 342 342 342 342 343 344 345 341 344 343 343
346 347 347 347 343 342 339 344 344 344 347 347 344 351 350 350 347 351 353 348 344 348 351 346 341 344 344 345 347 340 338 339 339 342 344 343 343 343 342 342 342 341 342

GFSSE_850_thetae_069.txt.gz
Theta_e
338 340 339 338 337 336 336 341 341 341 342 341 339 338 330 336 336 341 334 326 326 328 332 340 331 335 336 337 337 335 333 333 336 340 342 342 344 344 340 332 330 329 333
340 340 340 338 337 337 341 342 340 341 342 342 342 334 338 340 336 339 330 331 333 338 326 333 336 334 337 338 336 336 336 334 334 337 339 342 343 341 337 336 333 329 334
340 341 341 340 342 342 342 342 340 340 341 341 337 339 338 338 336 341 336 339 329 337 332 337 335 332 332 339 338 340 344 346 344 343 338 338 337 332 335 332 331 336 330
342 343 343 345 344 342 342 342 337 333 335 337 341 339 340 337 335 340 339 341 331 338 339 334 332 338 334 337 338 343 345 346 347 344 341 333 337 333 329 325 333 332 336
344 343 344 345 340 336 333 337 340 342 341 337 339 339 342 337 335 340 338 339 338 333 337 338 334 331 331 333 338 344 347 346 346 344 341 332 339 339 335 341 337 329 330
345 344 342 332 332 336 338 343 344 340 340 338 339 340 340 340 340 338 334 339 338 337 336 331 328 329 333 335 338 345 345 346 346 344 341 339 341 340 326 329 334 337 336
344 333 333 338 335 339 341 341 341 339 339 340 340 339 339 340 340 337 333 339 339 337 335 332 331 326 330 337 342 344 345 345 343 342 338 334 336 334 326 334 332 321 321
334 331 335 338 337 341 339 339 340 340 340 340 341 339 334 332 335 335 333 339 339 336 334 331 332 327 336 342 344 343 345 343 343 337 333 337 337 335 327 333 324 321 336
330 333 339 337 336 337 340 339 338 342 340 339 331 334 337 338 335 331 333 337 340 339 333 331 331 327 342 343 344 344 344 344 344 333 333 334 336 332 327 331 331 332 333
333 334 335 332 340 340 340 337 342 339 334 330 334 341 341 341 338 334 333 337 337 336 335 333 330 328 339 342 344 346 344 346 344 341 331 334 337 333 330 335 334 333 335
334 332 331 335 339 338 338 339 337 332 333 333 342 347 345 340 338 334 333 336 337 336 336 332 332 338 341 343 344 344 344 344 344 334 332 335 337 333 333 333 331 330 328
341 340 334 335 339 338 337 337 333 341 345 345 347 348 347 343 338 334 334 336 337 335 334 335 338 341 342 342 344 344 345 344 343 330 328 333 336 335 332 331 330 329 331
340 345 345 342 343 335 336 338 344 340 342 343 348 347 346 344 339 339 338 337 341 342 343 340 343 340 341 340 342 344 344 345 340 329 332 328 330 329 331 332 331 328 328
343 345 347 342 342 342 340 343 346 346 346 346 345 346 340 344 344 345 345 342 341 344 341 344 341 344 344 342 343 343 344 342 337 325 330 328 328 327 326 328 330 330 329
342 346 343 343 345 345 344 348 348 349 346 343 342 343 344 344 345 345 345 340 344 343 343 343 342 342 342 344 343 344 343 342 342 325 324 323 330 328 330 328 328 327 327
344 344 341 345 346 346 346 347 347 348 348 347 345 340 345 347 346 344 345 344 344 344 344 342 341 340 341 342 342 343 342 343 340 342 338 329 325 324 325 326 326 323 323
343 344 341 340 346 344 347 346 349 348 347 346 347 344 347 343 346 344 344 344 343 344 344 345 345 345 343 341 341 342 343 342 342 342 341 343 342 340 333 327 325 325 324
344 344 342 340 341 345 344 347 349 344 344 346 347 348 347 346 344 347 344 345 346 343 343 340 345 345 343 343 342 343 343 340 340 342 341 341 342 342 343 333 335 334 331
343 343 343 341 338 341 345 344 346 348 348 348 347 345 344 346 346 345 344 346 343 343 340 341 342 344 344 343 343 344 342 342 340 340 341 342 341 341 341 340 343 341 341
341 343 344 342 338 338 344 341 346 348 347 347 349 351 344 344 344 347 344 343 347 343 342 342 343 344 343 342 342 342 342 341 341 341 341 342 340 341 342 340 342 344 343
340 341 342 343 342 343 344 342 343 349 347 347 348 347 349 347 339 341 344 343 346 345 344 342 344 343 341 341 343 340 342 339 340 341 342 341 339 342 340 341 343 342 342
341 341 341 343 344 343 347 342 346 346 346 348 347 348 345 348 347 349 341 343 344 344 344 344 344 341 338 340 343 342 342 339 342 341 341 340 341 341 342 343 340 335 331
342 341 340 342 345 345 342 344 347 349 348 348 350 349 348 353 347 350 345 346 348 347 340 345 342 341 338 338 341 341 341 339 342 339 338 339 340 342 343 344 344 343 343
343 342 342 341 347 345 343 340 346 347 348 348 347 349 348 342 343 349 347 347 347 348 347 339 343 343 343 343 340 341 341 340 343 336 339 340 342 341 344 342 343 345 343
344 343 343 341 345 346 345 339 344 346 347 349 349 350 348 344 342 347 345 343 341 346 345 343 343 344 342 345 341 340 340 338 340 342 340 341 342 343 344 342 343 344 342
345 344 343 342 342 344 344 340 343 345 346 349 347 350 348 349 346 348 350 349 342 346 347 346 345 344 347 345 347 339 339 337 340 341 344 343 343 342 342 342 342 341 339

GFSSE_850_thetae_072.txt.gz
Theta_e
334 338 338 338 338 336 337 340 340 338 334 338 335 329 332 332 336 331 327 327 328 330 334 335 334 334 334 335 335 332 331 334 340 339 342 343 340 335 332 331 336 337 332
337 339 337 337 335 336 340 340 340 341 341 340 334 333 338 335 332 330 327 327 326 329 337 332 336 336 336 336 337 337 336 337 341 339 342 343 339 335 334 328 333 338 331
340 339 337 336 334 339 341 339 340 341 341 339 335 337 337 337 337 336 332 341 334 337 337 332 334 337 337 336 336 337 341 341 338 336 339 331 335 337 330 339 332 325 337
339 339 337 338 341 341 341 339 337 341 337 339 338 338 336 337 341 341 337 327 340 337 329 339 335 336 338 338 343 345 346 345 341 337 330 334 330 335 329 328 333 337 334
340 340 341 343 342 341 339 333 333 339 335 338 338 340 335 339 339 340 340 338 340 339 336 332 334 336 336 341 344 345 346 345 340 337 331 334 335 337 338 326 333 325 338
341 343 344 341 337 333 340 342 341 340 337 338 340 340 338 340 340 341 339 339 337 335 331 328 329 332 335 343 345 344 346 345 343 338 338 339 334 336 336 335 338 328 317
343 343 336 339 336 338 342 343 339 339 339 340 340 339 341 341 339 338 339 338 336 333 331 329 331 333 337 342 343 344 345 344 342 339 334 335 331 327 338 333 327 320 318
340 335 332 338 339 341 339 341 339 338 340 340 339 337 338 340 335 333 338 337 334 333 332 328 330 336 343 343 343 343 341 343 337 333 336 335 329 337 331 322 323 334 333
330 333 338 337 339 338 338 339 339 340 340 332 335 336 336 332 333 335 338 339 333 331 331 327 334 342 344 343 343 343 343 342 333 332 334 334 329 328 328 326 330 330 329
330 334 336 335 336 338 339 339 339 336 330 336 339 341 339 337 332 334 338 338 333 331 330 328 343 344 344 345 344 344 344 343 341 333 333 334 330 330 334 330 330 337 335
333 335 332 336 336 336 338 339 332 329 336 343 344 341 338 336 332 335 336 336 336 333 330 328 340 341 342 344 344 344 344 344 341 332 332 334 332 331 332 330 332 329 329
336 331 333 337 337 336 339 333 334 334 341 346 345 341 338 335 333 335 336 336 334 331 333 335 338 341 343 343 343 344 344 344 337 329 332 333 331 331 331 330 329 330 332
332 329 332 335 336 337 332 339 344 344 346 346 346 340 338 337 335 336 338 340 337 337 338 340 341 342 343 342 343 344 343 344 334 331 329 331 330 330 332 332 330 329 329
336 337 341 335 335 336 336 336 338 341 341 345 343 340 341 342 342 339 338 341 343 341 341 342 341 341 343 343 342 344 343 339 327 328 330 326 326 326 329 329 330 328 327
341 343 338 335 337 336 341 343 344 345 341 343 343 340 342 344 343 346 341 342 342 342 340 343 341 341 343 343 342 342 343 338 331 324 323 327 327 327 328 327 328 327 325
342 344 340 342 341 344 344 346 348 346 344 345 343 342 344 344 342 343 342 342 342 342 340 342 341 342 343 342 342 343 343 340 341 340 337 330 325 324 324 326 324 323 323
343 344 340 341 344 344 347 347 347 346 346 346 343 341 345 344 343 343 344 344 344 342 340 341 343 343 344 344 341 340 342 342 342 341 342 343 338 340 332 331 328 328 326
345 344 341 346 346 344 346 347 345 347 347 346 346 344 343 343 344 343 344 342 343 342 343 344 343 343 341 342 342 341 342 340 342 340 340 342 341 340 339 339 336 332 328
344 342 344 344 345 345 345 346 347 344 346 345 346 343 344 344 343 345 344 345 343 343 343 343 343 341 342 342 341 341 341 342 340 339 341 340 339 340 340 339 342 342 336
343 343 341 339 341 343 346 347 347 348 347 347 347 345 343 343 345 343 344 343 344 343 340 342 343 343 342 343 343 342 341 341 341 341 341 339 341 341 339 339 341 341 340
343 343 342 340 339 339 345 344 348 347 348 346 348 349 345 344 344 347 342 344 343 344 341 344 342 342 341 342 343 342 342 342 341 341 341 340 341 341 342 341 338 334 336
341 342 343 342 340 337 344 343 345 347 347 346 346 347 347 345 344 344 344 345 345 343 343 342 343 341 341 342 342 340 341 340 340 341 342 341 341 341 341 342 343 340 335
340 341 341 341 339 336 344 342 344 346 346 348 347 347 344 345 347 349 339 343 347 343 341 342 342 340 340 341 342 341 340 340 342 340 339 339 340 341 343 343 343 344 342
340 340 340 340 340 337 340 340 342 345 347 347 347 347 347 346 345 349 344 344 346 345 341 342 343 342 337 338 340 341 339 340 343 337 337 338 341 340 342 343 342 343 343
341 341 340 340 340 337 343 338 344 345 347 346 347 347 349 343 342 346 346 347 347 347 344 340 343 342 342 343 339 341 339 338 340 342 341 340 341 342 343 343 342 341 340
342 341 341 341 341 339 344 340 345 346 348 348 347 348 348 343 343 342 342 341 340 344 343 336 339 342 342 343 340 339 340 340 339 341 344 344 342 342 341 343 342 341 341

GFSSE_850_thetae_075.txt.gz
Theta_e
335 337 337 337 336 335 336 336 329 331 337 333 327 327 329 332 333 330 329 330 336 334 332 331 332 334 336 337 333 333 340 340 340 341 340 334 336 336 337 337 332 337 333
334 337 338 337 336 337 339 338 331 334 338 333 330 334 333 336 326 325 325 327 330 334 332 333 334 335 335 338 335 340 341 341 339 340 338 336 334 326 328 336 333 327 336
335 337 338 337 336 340 339 340 341 340 339 333 338 337 336 333 333 330 339 334 326 334 330 334 335 337 336 337 339 337 338 337 339 339 332 334 339 333 340 335 338 325 325
337 337 337 335 336 341 339 340 340 341 338 339 337 336 342 340 342 331 335 338 337 335 336 335 336 337 338 340 342 343 340 338 335 330 333 338 334 337 331 337 332 338 319
337 337 335 336 341 341 339 337 341 339 341 338 338 335 339 339 341 338 334 339 337 336 338 336 336 337 339 343 345 345 342 338 334 331 331 327 333 335 330 340 327 340 323
338 337 340 341 341 341 333 333 339 335 339 338 341 335 339 338 339 339 339 336 338 338 333 336 336 337 342 344 345 344 342 341 335 336 336 333 341 335 334 335 319 322 330
339 341 342 340 335 337 341 341 339 337 338 340 340 339 340 340 339 338 337 340 332 329 329 330 333 337 343 344 343 344 342 342 339 335 337 326 329 338 338 331 319 323 327
341 342 339 338 340 342 342 340 341 339 340 341 340 340 340 340 338 337 337 339 339 330 328 331 335 338 342 343 342 340 341 338 334 333 334 326 334 334 322 321 329 329 330
341 335 340 340 340 342 342 340 341 340 338 334 335 338 339 334 336 338 338 336 334 331 328 334 338 341 342 342 340 340 339 335 332 334 333 328 336 326 322 337 332 331 331
335 333 337 339 341 337 339 339 339 335 333 337 338 336 331 333 340 340 337 331 331 330 329 337 341 343 342 343 343 343 343 341 334 332 332 329 327 331 331 332 334 337 325
334 336 336 336 337 338 339 337 332 334 339 339 339 336 336 333 336 337 335 334 330 328 334 341 342 343 343 343 342 342 342 342 332 332 333 332 330 336 335 335 334 328 326
334 336 334 334 335 337 338 331 331 340 341 338 337 335 333 333 336 336 336 335 331 328 339 342 341 341 343 343 342 342 342 341 331 332 334 337 336 331 330 330 328 331 331
335 332 336 335 335 338 330 329 335 343 345 340 337 334 333 333 336 335 334 332 332 332 332 340 341 342 342 342 343 342 342 338 331 331 330 334 330 331 330 329 328 328 330
333 330 335 336 336 332 334 341 344 345 344 344 337 337 336 335 337 340 340 335 337 339 340 341 342 341 341 342 342 342 340 330 327 330 326 326 326 328 328 328 327 326 328
330 331 334 335 335 331 341 341 341 342 345 342 338 341 342 342 340 339 342 340 341 341 341 342 342 342 343 342 341 342 336 333 325 323 325 328 327 327 326 326 325 325 324
334 337 335 334 335 335 336 341 343 342 343 343 340 340 341 343 344 343 341 342 340 341 342 342 343 343 343 341 341 342 339 341 339 340 332 327 324 324 325 325 323 322 323
336 336 336 336 336 341 344 345 345 343 344 344 344 343 343 343 342 341 341 342 341 339 341 341 341 342 342 342 339 341 342 342 341 341 342 338 339 332 332 329 329 329 328
340 339 341 340 342 344 345 346 347 346 346 345 345 342 345 343 342 343 343 342 341 339 341 342 343 343 342 341 342 343 342 342 340 341 341 340 340 339 338 337 337 336 328
341 342 339 342 343 343 345 345 343 345 346 346 345 344 344 343 343 343 343 342 341 342 341 341 342 341 343 342 342 342 341 341 340 340 340 339 339 340 337 340 341 338 330
341 343 340 340 344 344 344 346 344 346 346 347 347 346 344 344 343 344 344 344 341 341 341 341 342 340 343 342 341 342 341 342 342 341 341 340 340 340 339 340 340 339 337
341 344 341 340 343 345 345 346 346 345 346 347 348 344 344 343 345 343 344 344 344 343 340 342 341 342 342 342 342 343 342 341 340 341 341 341 340 341 341 341 338 334 335
341 344 341 341 343 345 343 345 345 347 346 346 345 348 345 345 344 346 343 344 343 342 341 343 341 341 341 342 342 341 340 340 340 341 341 341 340 340 341 342 343 342 333
343 343 342 341 340 340 342 344 344 347 347 346 346 348 346 345 345 345 344 344 343 343 342 341 341 340 341 343 342 340 340 340 341 340 338 338 340 340 341 343 342 343 342
342 342 342 342 341 340 338 343 342 345 346 345 346 346 346 346 345 347 339 343 344 343 342 342 341 341 339 340 341 339 340 339 342 337 337 337 340 340 341 342 341 342 341
341 342 341 341 341 340 336 337 343 342 344 341 346 347 347 345 346 345 345 342 344 345 343 342 342 343 340 338 340 339 341 340 338 339 341 339 340 341 342 342 341 340 338
340 341 341 341 340 340 337 335 343 341 341 345 345 347 348 345 342 344 349 344 346 346 344 341 342 342 340 340 339 339 340 339 338 342 342 343 342 342 341 341 341 341 341

GFSSE_850_thetae_078.txt.gz
Theta_e
338 340 342 339 336 334 331 329 334 334 329 326 326 327 328 330 331 331 331 331 333 331 330 340 339 336 342 341 339 342 339 341 342 340 336 337 340 337 331 338 335 339 328
337 338 337 336 335 335 335 329 331 337 333 328 327 328 331 331 325 325 326 327 330 333 333 332 339 337 334 336 341 341 340 342 342 342 335 328 326 331 334 327 336 339 328
337 337 337 336 335 337 337 330 331 337 333 330 335 334 331 331 329 328 328 326 338 331 339 335 336 340 341 340 339 339 340 343 338 333 339 330 340 341 340 329 323 330 334
337 337 337 335 339 339 339 340 339 338 335 337 336 337 338 338 332 342 336 333 332 334 340 336 336 336 335 337 340 337 335 334 330 335 333 336 336 332 336 334 325 323 322
337 337 336 335 339 338 339 339 339 337 337 339 336 340 340 342 335 329 339 336 331 335 335 336 336 336 341 343 343 340 337 331 332 329 326 331 332 337 330 339 330 334 338
337 337 335 335 340 338 338 338 341 340 339 340 336 341 339 340 340 342 338 338 333 338 336 335 337 338 342 343 342 341 338 335 336 334 337 338 331 331 329 321 325 325 326
336 334 336 340 341 338 332 338 337 338 339 341 338 338 340 338 339 337 337 336 337 334 337 335 338 341 342 342 343 341 340 338 336 337 326 333 338 338 329 318 335 325 331
335 339 340 339 336 339 340 339 337 339 342 340 340 340 340 339 339 339 338 331 329 339 332 334 338 342 342 341 337 338 335 333 334 334 326 336 336 323 323 328 328 331 339
340 340 337 334 342 341 340 339 339 339 340 341 340 339 339 336 338 338 339 338 339 337 331 334 338 342 342 340 340 339 335 333 334 334 329 338 327 322 339 335 335 333 328
341 337 337 340 340 342 340 341 339 336 334 335 334 338 337 335 339 340 337 337 333 331 334 336 341 342 342 341 341 342 339 334 333 333 331 326 329 329 330 332 336 325 326
337 336 338 340 341 340 338 340 333 336 340 338 336 332 334 337 340 339 336 337 329 331 337 340 341 341 342 341 342 341 340 333 332 333 333 329 337 338 332 337 330 327 329
334 337 337 336 337 338 336 332 334 338 337 336 335 334 332 336 336 335 338 336 328 336 340 341 342 342 341 341 342 341 339 331 331 333 334 331 339 331 331 328 328 330 328
333 334 336 336 337 338 329 332 338 338 337 335 333 332 334 335 335 335 333 330 329 340 340 340 341 342 341 342 341 341 337 331 330 329 332 335 330 330 328 327 327 328 328
332 332 333 335 336 334 329 338 341 339 339 338 334 332 334 334 334 334 332 333 331 333 340 341 342 340 341 342 341 341 331 326 329 328 326 328 327 328 328 328 326 326 328
332 333 334 335 338 330 332 337 343 344 343 338 337 336 335 337 341 338 336 338 339 339 340 341 341 340 342 341 341 336 335 327 325 325 327 326 327 327 327 327 325 325 324
330 333 334 335 333 333 340 340 340 343 341 337 340 341 341 340 340 340 340 341 342 341 341 343 342 342 341 341 341 339 339 337 336 334 328 325 325 326 326 326 324 323 323
329 332 333 335 332 336 338 341 340 342 342 341 340 341 341 342 342 341 341 342 341 342 342 342 342 342 341 340 340 341 340 340 341 341 338 338 332 332 331 330 330 329 328
330 333 332 334 333 334 339 343 343 343 344 343 343 342 342 342 342 341 341 342 340 339 341 341 341 341 340 340 342 341 342 341 340 340 340 340 339 338 338 338 339 334 330
337 333 333 334 336 342 343 345 345 345 344 345 344 343 344 343 343 342 343 342 339 340 341 342 342 342 341 342 342 342 341 341 340 340 339 339 340 339 338 340 341 337 335
337 336 336 337 340 343 345 345 345 344 345 345 346 344 344 343 342 342 343 342 341 341 339 342 342 341 342 341 341 341 341 341 341 340 340 340 340 340 340 339 338 337 336
340 339 340 339 340 342 344 345 344 345 345 345 347 346 345 343 342 344 343 343 341 340 340 342 341 341 342 341 341 341 340 340 339 340 341 341 340 341 341 341 341 336 333
340 342 341 340 341 340 341 341 344 343 344 346 347 345 343 342 343 343 343 343 343 342 339 342 340 341 342 341 341 340 338 337 338 340 340 340 340 340 341 342 342 342 333
343 341 342 341 341 340 340 344 345 345 346 346 343 345 345 344 343 344 345 342 345 342 339 342 341 340 340 341 340 341 340 338 339 337 338 337 340 339 341 342 342 342 338
342 342 341 342 341 341 342 344 344 343 344 346 344 344 347 346 343 344 344 343 343 343 342 342 341 340 340 341 341 340 340 340 339 340 340 338 339 340 341 341 341 340 338
343 342 341 343 342 341 342 342 343 343 342 346 345 345 346 345 344 344 344 340 343 343 343 342 342 341 340 339 339 340 340 340 338 339 341 342 340 340 340 340 340 339 338
344 341 341 343 342 341 341 340 340 341 341 342 342 345 346 347 346 344 344 344 342 344 343 340 340 341 342 339 337 340 339 339 339 342 342 342 341 341 341 341 340 341 342

GFSSE_850_thetae_081.txt.gz
Theta_e
341 342 340 335 332 329 327 327 326 326 326 327 326 326 329 331 331 331 332 332 330 330 341 336 341 343 344 342 341 342 342 341 337 338 340 339 331 338 336 339 336 339 338
341 341 341 335 334 330 330 335 335 331 327 327 328 330 333 328 326 327 328 329 341 336 332 339 337 332 340 341 339 340 341 342 341 332 325 329 335 329 333 339 333 335 339
340 341 338 335 336 334 329 330 336 334 330 332 333 333 330 330 326 325 327 337 333 338 334 340 339 341 341 339 339 341 342 337 334 335 339 344 341 337 322 329 335 338 334
338 337 336 335 337 337 333 332 337 336 333 336 335 334 337 332 340 337 330 335 336 341 337 338 340 340 339 339 337 334 333 330 335 331 344 341 343 335 331 320 325 319 320
338 337 335 337 339 338 339 340 338 336 337 336 337 340 341 337 331 339 336 333 337 338 336 336 337 337 341 342 337 333 330 330 327 329 338 341 343 330 337 324 338 339 329
337 336 335 338 338 337 338 338 336 337 338 336 336 339 340 340 342 338 338 338 336 337 338 336 338 341 343 341 339 337 335 335 335 341 339 330 339 322 323 329 324 327 328
337 337 335 337 339 337 335 341 338 339 340 340 338 342 341 341 337 337 338 339 338 338 336 337 340 341 339 342 341 338 335 337 333 331 336 341 338 322 321 336 329 336 336
337 336 336 340 339 333 335 341 336 338 341 340 340 340 339 339 340 339 332 330 337 337 335 338 341 340 338 337 338 335 333 336 334 326 340 337 322 326 327 328 333 336 333
335 337 340 337 338 341 341 342 342 341 339 339 339 339 336 339 337 338 338 339 336 332 335 339 342 341 339 339 337 334 333 335 334 332 341 333 322 338 336 334 330 327 333
338 340 335 339 344 343 342 340 340 340 341 340 339 338 337 338 339 337 337 334 329 331 335 339 342 340 341 340 339 335 333 333 334 334 340 330 328 329 332 335 325 327 334
340 339 338 341 342 342 343 341 338 340 337 336 339 336 336 340 339 342 336 330 331 335 339 341 341 342 341 340 339 337 331 333 334 335 338 336 338 332 338 332 328 329 333
340 341 343 344 339 340 344 339 339 342 340 336 334 332 336 337 335 341 337 327 333 339 341 341 340 341 342 343 341 337 333 330 337 338 339 338 337 333 330 328 331 329 326
333 338 340 339 337 338 337 334 337 337 334 333 331 333 335 334 336 335 334 331 339 340 341 341 342 341 341 341 341 339 332 331 337 341 338 339 334 331 330 328 329 329 327
334 335 335 336 337 334 330 337 336 336 333 332 332 334 335 335 334 332 331 330 339 340 341 342 340 340 342 342 339 334 329 330 336 337 337 333 337 330 329 327 326 327 326
334 335 335 335 336 329 334 339 338 339 336 332 333 334 334 337 333 333 335 335 336 340 341 340 339 341 342 341 338 338 331 327 326 334 339 328 327 326 327 326 325 325 324
333 332 334 335 334 328 335 342 343 343 337 337 337 336 338 340 339 338 339 342 340 340 341 340 341 342 342 341 339 340 338 337 335 331 329 326 325 325 326 326 325 324 325
331 334 334 335 331 333 337 341 343 343 339 339 340 340 341 341 340 340 341 342 341 341 341 341 342 342 340 340 341 341 340 340 340 338 338 336 334 334 332 331 332 329 326
330 334 334 334 331 338 340 339 341 342 342 341 341 342 342 342 342 341 341 342 341 342 341 341 341 341 340 341 341 342 341 340 340 340 340 339 339 338 338 339 336 332 329
329 332 333 333 330 335 341 342 343 343 344 344 343 342 341 341 342 342 342 341 339 341 341 341 342 341 341 342 341 341 341 341 340 340 339 340 340 338 339 339 339 338 334
329 331 333 333 331 334 341 344 346 345 344 345 345 343 343 344 342 342 342 342 339 340 341 342 342 341 342 340 340 340 340 340 340 340 340 340 341 341 340 339 337 334 334
334 333 333 333 335 340 343 344 344 344 344 345 346 345 345 342 342 342 343 341 340 341 339 341 341 341 341 340 340 340 338 338 338 339 340 340 340 340 341 342 342 337 331
334 335 335 335 337 341 343 343 343 343 344 344 346 344 344 345 342 343 343 343 342 340 340 342 340 341 341 341 341 338 339 340 339 337 338 339 339 340 341 341 342 341 334
337 337 338 338 339 341 342 343 343 343 344 345 345 344 344 343 343 344 343 341 344 342 338 342 339 339 340 341 339 341 343 341 341 338 338 338 339 340 341 341 341 340 337
344 339 340 340 339 341 341 342 342 344 344 344 342 342 346 345 342 343 344 341 343 342 341 341 341 340 340 340 340 340 339 341 342 342 343 340 339 340 340 340 339 338 337
343 343 341 341 341 341 341 342 343 344 344 345 344 344 346 346 344 344 345 344 343 345 343 342 341 340 339 339 340 339 339 339 339 343 344 345 340 340 339 340 339 338 338
346 343 342 342 341 341 341 341 342 344 344 343 345 345 345 346 344 342 345 341 342 344 343 342 342 341 341 340 338 338 339 341 346 345 345 344 341 341 341 342 341 341 341

GFSSE_850_thetae_084.txt.gz
Theta_e
347 341 335 333 337 337 334 333 332 335 336 335 328 326 328 330 331 333 332 331 331 340 334 342 340 341 342 342 342 341 339 338 340 339 330 339 336 337 338 345 344 342 335
347 345 340 335 328 327 327 326 326 326 327 327 329 332 330 328 328 330 332 343 333 331 337 335 334 341 340 340 341 342 342 336 325 335 339 330 331 339 338 339 341 340 325
347 345 341 344 330 330 335 336 332 335 331 342 334 330 331 330 326 327 335 333 336 334 340 339 342 340 341 340 342 340 335 337 340 342 345 345 332 327 336 339 334 335 325
347 346 346 337 338 329 330 336 336 332 335 337 336 343 334 341 340 330 338 336 341 337 339 340 340 340 340 337 338 332 334 331 344 342 342 341 342 320 327 320 320 323 330
347 347 343 336 338 335 335 337 337 337 337 336 340 341 336 335 339 337 336 339 340 335 338 336 338 342 340 336 332 332 330 328 341 342 345 341 346 330 340 341 338 328 338
347 347 337 339 338 339 340 339 337 337 338 336 340 340 340 341 338 340 341 336 336 337 336 340 342 339 339 339 337 335 334 342 346 342 343 341 336 327 329 327 327 332 337
346 347 344 340 338 338 338 338 339 339 339 337 341 341 341 339 338 338 338 338 337 336 337 340 340 334 341 340 338 335 337 341 343 345 344 343 324 337 327 335 338 333 336
346 346 346 343 338 338 340 341 338 339 341 337 341 339 340 340 339 331 331 336 337 335 339 340 335 334 337 338 335 333 338 342 341 345 341 336 328 328 330 338 332 335 336
346 346 348 348 339 336 339 337 338 341 339 340 340 340 339 338 338 338 337 337 334 336 340 341 338 336 337 336 334 333 335 340 342 344 339 339 339 336 332 327 328 330 328
346 347 347 347 349 350 346 342 340 341 341 339 339 338 338 338 337 337 336 332 334 337 341 341 340 340 339 337 333 332 337 342 342 341 338 333 330 335 335 325 330 337 336
347 346 346 351 351 350 350 342 340 338 338 338 339 337 347 345 345 345 334 332 333 337 341 341 341 340 340 338 335 334 342 341 341 340 343 339 336 339 333 328 328 329 337
346 345 347 348 349 350 347 349 346 347 349 345 344 346 348 346 346 342 336 334 338 340 340 340 341 344 349 345 344 343 339 341 341 340 341 337 332 333 328 331 332 332 326
345 346 348 348 348 347 346 347 347 345 346 345 345 347 346 345 346 342 343 345 345 346 345 347 348 346 346 343 341 340 340 339 340 340 338 336 332 335 328 334 330 329 330
344 346 347 348 348 346 345 346 345 344 343 344 345 345 346 345 344 343 344 346 346 345 346 347 346 344 348 348 344 340 339 339 339 340 329 334 330 329 327 326 326 325 325
344 345 346 348 349 346 348 346 347 345 343 344 344 344 345 344 345 343 344 345 345 345 346 347 348 348 347 347 347 344 339 339 340 340 340 327 326 325 324 324 324 324 324
344 346 346 347 347 346 348 348 345 346 345 344 344 342 345 345 346 346 347 346 347 347 347 348 348 348 347 346 347 346 344 343 342 342 339 334 326 326 327 328 328 327 328
344 345 347 347 346 345 346 347 347 346 346 346 345 339 341 346 342 347 347 347 347 341 342 346 349 347 345 345 347 346 344 345 345 345 344 344 344 336 335 334 330 327 325
343 345 346 345 345 345 347 348 349 347 347 348 347 347 342 342 342 344 348 346 346 346 347 347 347 345 345 346 346 345 344 343 344 344 344 344 343 343 341 338 332 332 328
342 346 346 346 344 347 346 348 349 349 350 349 349 348 342 342 342 348 348 347 341 347 347 346 347 346 345 344 344 344 344 343 344 342 344 345 343 344 343 340 336 332 332
342 344 346 346 345 346 347 348 349 350 351 351 350 349 342 344 342 344 349 347 345 347 347 347 346 346 346 345 344 343 343 343 344 343 343 343 344 346 345 345 345 344 331
341 342 345 346 344 343 347 348 349 350 351 351 351 346 343 346 341 342 348 344 347 348 347 343 345 345 344 344 344 342 340 341 342 342 343 343 344 345 345 346 346 345 344
341 341 344 346 341 338 347 348 349 351 351 349 345 347 348 345 342 345 346 344 346 347 343 342 343 345 344 343 342 339 339 341 340 340 340 341 342 343 343 345 345 345 340
340 343 344 344 344 340 348 349 347 350 351 351 351 351 349 345 343 344 342 349 343 345 346 345 342 343 344 344 341 345 342 341 343 341 342 339 341 342 342 343 343 343 337
343 342 345 342 340 340 343 350 351 348 348 349 350 350 351 349 347 346 344 342 344 347 348 345 345 345 343 341 344 344 342 344 343 342 342 340 340 341 341 342 342 343 343
347 345 344 342 339 345 340 346 349 346 348 349 348 351 351 344 342 344 344 342 342 346 345 348 342 342 343 343 343 343 345 345 348 345 342 342 340 340 342 343 343 343 346
346 347 347 347 340 340 340 341 344 350 350 350 349 351 350 350 348 344 347 343 342 346 344 346 344 341 344 343 344 343 345 344 345 346 344 343 343 342 344 344 344 345 347

GFSSE_850_thetae_087.txt.gz
Theta_e
348 344 343 341 339 339 339 339 337 337 338 333 327 328 330 337 344 333 330 335 340 338 340 342 342 342 342 341 339 338 339 338 330 340 337 332 339 344 345 343 339 338 333
346 346 338 339 338 332 329 327 328 328 327 327 331 332 329 329 333 334 341 333 337 335 333 339 340 339 341 342 341 336 327 339 341 338 331 338 339 342 340 338 328 329 339
347 343 338 328 327 328 330 330 335 329 338 334 330 331 332 326 327 333 335 336 335 340 341 340 340 339 340 341 336 335 340 337 341 342 337 341 340 340 333 331 325 335 332
346 346 347 334 331 335 336 334 338 338 342 340 342 336 342 340 331 342 336 339 337 339 340 339 340 337 333 332 331 332 341 341 342 344 344 338 335 323 323 324 330 339 333
346 347 342 340 332 330 335 341 342 338 337 341 341 335 340 339 338 337 339 340 336 338 337 341 340 336 333 331 330 328 341 343 344 343 343 342 342 341 340 335 339 338 339
348 349 336 344 342 342 339 341 343 342 338 340 341 340 341 339 340 339 336 338 338 337 340 342 339 340 339 333 334 339 345 341 341 344 340 340 340 326 328 330 335 336 338
349 348 345 341 342 341 342 340 340 340 337 340 341 340 340 338 338 338 336 338 336 338 340 335 337 341 338 332 335 336 342 345 342 343 340 338 335 330 338 334 335 337 333
346 348 347 343 342 339 341 338 339 341 338 341 339 339 339 338 330 338 336 337 337 339 339 334 337 338 336 332 334 334 338 343 341 341 338 334 329 335 336 336 336 334 331
345 346 349 348 340 337 340 337 340 340 340 340 339 338 337 337 337 336 339 335 339 340 338 336 335 336 333 332 333 334 341 342 341 340 344 342 336 330 326 332 330 336 333
346 346 349 346 348 349 347 340 340 339 338 338 338 337 336 338 339 337 336 337 340 340 335 337 339 337 332 330 333 341 341 341 342 339 341 331 338 335 325 338 339 338 326
347 347 349 349 347 348 347 341 340 338 337 338 340 344 345 348 345 346 337 336 341 341 339 340 340 338 331 333 338 341 343 341 340 343 343 336 339 334 329 328 328 336 326
346 345 349 350 347 346 346 347 348 346 348 345 344 343 348 344 341 341 334 337 341 341 340 341 346 346 345 346 344 341 340 340 342 343 339 332 334 328 330 331 335 326 326
344 348 348 346 349 348 346 347 349 344 342 342 346 347 342 343 343 341 337 340 340 342 345 346 347 347 345 340 340 338 339 340 342 344 337 330 331 327 329 332 328 330 327
345 346 348 346 347 345 345 346 344 343 342 345 346 345 342 344 343 345 347 344 346 345 348 346 345 347 344 342 340 339 339 339 341 341 326 327 327 326 325 324 323 323 323
345 345 346 347 348 345 348 345 346 343 345 344 347 347 345 344 344 343 345 346 344 346 345 346 346 345 344 344 343 340 340 341 342 343 332 325 324 323 323 323 324 325 326
344 344 346 347 346 347 349 347 347 345 343 344 345 346 347 345 344 346 345 346 346 347 347 347 347 345 345 344 344 343 342 342 342 342 343 335 329 330 330 330 329 328 330
344 345 345 347 345 348 348 346 348 344 345 345 347 348 348 347 350 347 346 347 346 341 344 348 344 345 342 345 345 343 342 344 344 344 345 347 344 337 332 330 327 326 326
343 346 346 344 345 347 352 348 347 346 347 346 346 348 350 349 349 348 347 347 346 348 347 347 346 343 346 345 345 345 343 345 345 345 344 346 344 347 344 330 331 329 325
344 347 346 346 345 346 347 349 347 347 347 347 347 348 349 351 346 351 347 347 346 346 345 345 345 345 345 345 343 343 343 343 346 343 343 344 340 344 346 337 332 330 327
344 347 348 346 346 348 347 349 348 349 348 348 348 348 342 349 345 350 349 345 347 346 346 346 346 347 345 345 344 342 342 342 342 343 344 344 345 346 346 346 347 344 329
343 346 348 348 348 348 347 347 349 351 350 348 349 351 350 350 350 345 349 345 347 347 348 348 345 345 344 343 344 344 340 342 344 342 342 343 345 346 345 346 348 347 345
341 344 347 348 349 349 349 348 348 349 350 350 351 352 351 351 350 349 350 345 346 348 339 348 348 346 343 342 345 343 340 341 340 341 341 341 343 343 344 346 344 346 346
342 342 346 348 349 348 348 349 349 352 353 349 350 350 350 352 350 348 343 348 347 349 347 343 342 348 346 341 343 348 347 342 342 342 341 341 341 343 343 343 343 345 348
340 342 346 350 349 348 350 348 351 349 348 350 348 350 352 351 351 351 350 350 345 348 348 346 346 348 347 340 340 344 342 345 350 343 341 339 340 342 342 343 343 345 347
342 344 347 350 350 348 348 350 350 350 349 348 349 350 349 351 351 351 352 353 342 348 344 351 346 346 345 345 343 343 342 342 342 346 342 341 340 341 343 345 344 345 348
343 344 346 351 348 349 351 346 351 352 348 350 349 349 349 350 351 351 351 352 351 352 352 350 350 346 350 345 346 344 345 345 347 346 343 344 343 343 345 345 345 346 348

GFSSE_850_thetae_090.txt.gz
Theta_e
346 341 342 342 343 341 340 339 339 339 335 327 328 330 337 341 333 330 336 338 340 340 341 341 340 339 337 333 333 329 331 333 331 329 340 343 344 341 340 340 337 336 336
346 342 341 341 343 338 335 334 333 328 328 331 331 328 329 333 334 339 334 334 335 333 339 338 339 340 338 332 328 340 340 337 333 333 335 341 340 339 334 329 339 337 339
348 341 340 335 328 327 327 327 329 341 333 331 333 335 326 330 331 339 333 337 339 340 339 339 340 340 334 330 336 340 343 340 338 339 338 339 332 330 325 336 334 332 340
346 344 328 328 332 334 334 339 335 341 339 341 338 341 336 333 340 336 336 338 339 339 339 339 340 339 330 330 340 342 344 344 342 343 336 330 327 326 330 340 340 329 335
348 347 330 331 333 336 339 341 338 337 340 341 335 339 340 335 338 337 338 337 339 339 341 336 333 331 329 328 338 342 343 343 345 342 341 340 340 334 340 340 338 333 325
350 344 336 332 331 336 340 342 342 340 340 340 340 340 339 340 337 338 338 336 336 341 341 339 338 333 332 339 339 338 343 343 339 340 339 331 328 328 334 333 337 334 326
349 338 340 342 340 341 340 338 339 337 340 341 340 340 337 337 338 335 336 336 340 342 340 341 341 334 335 334 343 344 341 344 340 338 334 327 337 336 332 338 328 334 325
349 348 342 343 340 339 340 340 340 338 340 339 338 337 337 331 336 336 336 336 340 339 335 337 340 334 332 333 340 344 342 342 338 330 328 331 336 333 336 333 331 329 324
349 347 346 342 341 342 342 339 340 339 339 337 336 336 335 335 336 337 335 338 340 337 335 337 334 332 331 331 339 343 342 341 340 344 333 331 325 325 330 331 338 325 325
347 349 348 346 345 343 339 340 338 337 337 335 336 336 336 332 331 335 335 341 338 337 336 338 332 328 329 338 339 342 344 341 340 339 330 335 329 325 337 337 337 325 325
347 347 348 349 348 345 339 340 338 336 335 343 343 345 346 344 343 344 338 341 335 339 340 339 328 333 334 340 342 342 343 345 343 338 331 336 330 328 326 328 331 325 325
349 350 350 347 349 346 342 343 342 341 345 347 346 346 344 343 341 335 338 341 339 339 343 343 333 340 342 342 341 341 341 344 343 338 328 333 327 328 329 333 325 325 324
349 348 346 346 347 348 344 348 340 344 345 344 346 345 342 332 332 334 339 340 340 342 346 342 342 342 346 345 340 337 340 342 342 329 326 326 326 328 333 327 327 325 324
347 348 347 348 348 347 347 350 344 342 342 344 345 343 346 347 344 331 346 338 334 340 340 346 343 344 341 341 340 340 341 342 341 333 325 325 325 324 324 323 323 323 323
348 345 347 346 345 348 347 346 346 344 345 342 346 345 344 344 345 343 346 344 347 346 342 341 346 344 341 344 340 340 341 342 344 341 327 323 323 323 324 325 326 328 329
347 346 346 346 344 348 345 345 345 344 346 345 346 345 344 342 342 343 346 341 339 343 343 340 347 346 345 341 343 343 341 340 344 342 343 341 336 329 328 327 326 327 329
345 347 346 345 346 351 344 347 345 344 346 344 342 350 345 346 345 345 347 347 345 341 349 344 347 347 345 344 342 341 344 344 340 346 345 345 346 345 330 326 325 325 324
345 346 345 345 344 346 344 348 348 345 347 347 343 342 345 347 348 348 345 346 347 348 348 345 343 346 343 343 344 345 344 342 343 346 344 346 344 347 345 326 326 324 323
346 346 346 345 344 349 345 350 348 346 345 347 347 347 346 346 349 349 347 345 349 348 343 348 343 346 347 347 346 343 344 344 345 344 339 344 342 346 346 332 345 329 325
346 347 347 345 345 349 347 347 346 349 349 349 349 348 345 347 350 344 346 343 344 347 347 348 347 343 345 344 344 344 344 341 342 343 344 345 343 345 347 333 346 346 334
346 347 348 346 345 349 346 346 347 347 346 348 348 349 348 349 350 346 348 344 347 347 341 343 345 345 348 341 345 344 340 341 342 342 344 345 343 346 345 345 349 347 344
346 347 348 348 345 350 344 349 347 351 348 348 349 351 350 348 349 351 346 347 344 346 343 348 350 346 346 341 346 348 345 341 343 342 341 341 343 345 345 346 344 340 344
344 346 347 349 347 347 345 348 349 346 346 350 349 352 348 348 348 350 347 347 345 346 346 339 346 348 343 341 344 346 346 348 343 342 341 342 340 343 343 341 344 341 340
342 343 347 349 347 343 348 346 348 350 348 350 348 351 350 348 349 349 341 345 347 347 346 342 344 344 345 342 342 341 342 344 349 344 341 337 340 341 338 343 343 345 345
343 343 345 348 348 340 345 345 347 346 350 348 350 347 351 347 349 349 348 347 346 345 348 349 346 344 346 346 341 344 344 343 343 345 342 341 341 343 343 345 344 345 347
342 341 345 348 347 346 341 347 349 349 345 351 348 349 348 346 341 349 349 348 342 341 347 345 343 341 345 344 346 346 345 344 346 346 346 343 342 343 344 345 346 346 348

GFSSE_850_thetae_093.txt.gz
Theta_e
342 342 342 342 343 342 340 340 339 333 326 329 330 336 335 330 332 338 340 339 339 339 339 338 333 331 331 328 333 331 331 328 336 342 342 341 339 339 335 336 339 337 335
342 342 341 341 340 337 337 336 329 327 330 329 327 327 328 334 332 335 337 333 338 338 338 339 335 327 334 337 336 332 334 334 331 339 340 338 335 329 337 334 338 339 339
341 340 339 334 329 327 326 339 335 331 330 335 334 326 328 331 337 332 336 337 339 339 338 339 331 331 338 341 340 338 340 339 338 334 329 329 325 337 335 329 339 338 338
341 338 330 327 331 339 336 334 338 336 339 339 339 333 335 337 337 335 338 339 342 337 335 333 329 335 339 342 342 342 342 341 341 336 326 325 329 338 340 333 326 334 338
336 328 330 335 334 336 336 336 336 339 339 336 337 338 334 337 337 338 338 339 339 338 332 330 328 336 341 342 343 343 343 340 340 339 337 331 339 340 338 335 325 327 336
330 329 331 332 335 339 339 339 338 339 339 339 338 338 337 337 338 338 337 341 340 336 336 332 327 335 341 341 342 342 340 340 341 333 327 328 331 332 336 336 325 325 326
343 333 331 335 338 339 336 337 336 339 339 338 337 337 337 335 335 334 335 337 341 340 340 333 333 339 338 341 340 342 340 339 332 329 330 334 332 336 332 331 332 323 323
338 337 339 339 339 340 338 338 337 339 338 337 337 336 333 334 335 340 340 341 339 338 338 334 332 335 342 342 341 341 340 337 329 326 331 333 334 334 329 329 324 323 323
339 337 337 338 340 339 338 339 338 339 337 337 336 334 334 333 335 340 340 340 335 336 334 331 331 332 340 342 342 340 340 341 331 329 327 323 327 328 333 336 324 325 325
341 338 337 336 338 337 338 336 336 337 336 335 335 331 330 332 337 337 339 337 335 336 329 328 331 333 339 343 342 341 341 342 339 328 329 324 326 335 336 333 325 325 325
348 346 344 345 341 336 336 336 333 336 339 340 344 342 340 333 336 339 338 337 338 338 329 328 334 340 341 341 343 343 344 341 341 332 331 326 326 325 329 327 325 324 325
349 348 345 343 337 338 339 336 335 342 344 345 344 343 342 337 337 339 337 339 339 343 339 335 337 340 341 340 343 343 342 343 340 328 329 325 326 327 328 325 325 324 323
349 346 343 343 345 344 341 341 341 344 343 344 341 341 342 334 336 340 340 340 340 341 341 339 341 342 341 337 339 345 344 343 336 324 324 325 326 326 325 324 323 323 322
348 345 344 347 348 346 343 343 341 341 343 342 343 343 339 339 337 340 339 341 340 338 337 341 340 341 341 342 342 342 343 342 334 324 323 323 323 323 323 324 325 326 327
345 347 346 348 347 347 347 343 343 343 343 343 344 346 346 343 336 337 334 332 337 332 337 341 341 343 343 339 339 343 343 343 341 342 334 331 329 328 328 328 329 329 329
345 348 345 348 347 346 346 345 344 342 343 344 344 343 344 343 344 344 341 340 341 339 339 341 344 344 342 343 340 340 340 342 341 344 345 345 343 326 325 325 325 326 325
345 347 344 344 345 345 346 346 344 345 345 343 343 344 342 342 345 346 343 343 344 341 343 341 344 344 343 340 344 342 340 340 341 343 345 345 346 344 326 324 323 322 322
346 345 343 341 345 344 348 344 346 346 345 344 343 345 343 344 344 345 344 345 342 345 345 345 345 345 344 342 344 345 343 340 342 345 341 342 344 347 334 329 326 324 323
347 343 345 341 342 343 347 345 345 345 347 346 344 345 345 345 345 344 344 344 347 342 343 344 345 345 344 344 345 343 344 344 343 343 339 340 341 342 342 338 342 333 326
346 343 345 343 339 344 346 349 345 344 346 347 346 347 345 345 343 345 344 344 347 345 345 344 344 344 344 344 344 344 344 340 342 343 344 344 346 345 343 337 343 343 333
346 343 345 344 341 346 348 347 346 345 346 347 346 346 348 344 342 344 343 341 345 345 344 344 345 346 342 341 344 341 340 342 342 344 344 344 346 345 344 344 338 338 338
345 342 346 345 343 346 344 346 345 347 348 345 347 347 348 348 343 348 346 344 345 343 346 346 345 344 343 342 344 346 343 341 343 343 343 343 343 345 345 345 336 333 337
345 342 348 346 345 342 347 347 346 346 347 346 348 347 348 348 346 345 346 345 345 339 341 344 345 345 342 341 343 344 346 347 340 339 340 341 341 343 344 341 343 344 344
345 343 342 347 347 341 347 349 349 341 346 347 346 348 346 348 348 348 343 343 343 342 339 345 343 343 340 343 343 342 343 347 346 342 342 340 343 342 341 343 344 345 347
342 342 341 342 346 341 348 348 346 348 348 349 347 348 348 348 348 347 345 345 345 345 343 343 347 343 342 346 343 345 344 345 347 348 341 340 342 342 344 345 344 344 348
341 342 342 342 340 340 348 346 347 344 348 348 349 349 349 344 346 348 350 347 342 343 344 346 345 341 343 345 345 346 345 344 346 347 347 341 341 342 344 345 345 346 348

GFSSE_850_thetae_096.txt.gz
Theta_e
341 342 342 342 342 342 340 338 331 327 332 340 337 329 338 337 338 339 339 339 339 338 335 337 333 328 332 323 324 329 337 338 339 339 337 338 335 336 337 335 333 337 338
341 342 342 342 340 339 338 333 328 330 329 330 333 334 332 333 336 337 339 338 337 337 333 330 328 333 328 334 335 334 335 339 339 333 327 331 338 336 337 339 340 339 341
341 341 342 337 334 332 330 330 330 330 332 328 328 331 337 333 335 332 338 342 339 339 331 330 338 338 336 335 336 335 335 330 328 330 326 338 337 329 339 340 338 338 328
339 337 331 327 327 328 340 333 334 340 338 336 329 329 339 335 336 338 340 340 339 337 331 335 340 341 340 340 341 340 339 337 325 322 326 337 339 332 325 334 337 336 340
336 328 327 332 336 333 337 336 339 337 337 338 334 338 336 335 336 337 340 338 340 335 330 336 340 342 342 342 341 341 338 340 335 334 331 339 339 337 326 333 338 340 340
329 328 333 334 337 336 336 337 343 338 341 338 336 336 336 337 338 337 338 336 333 330 328 334 341 341 341 341 341 339 337 339 328 327 332 331 334 334 327 325 326 333 337
329 332 332 335 338 338 338 337 339 338 338 341 338 339 340 340 339 339 339 337 338 332 328 334 340 340 341 340 340 339 339 333 332 331 331 331 336 326 339 323 323 325 326
330 329 334 338 337 336 337 337 339 338 337 336 336 340 339 339 339 335 340 339 338 334 332 337 339 342 340 341 340 338 337 327 326 331 331 336 337 329 326 323 323 323 323
335 336 337 337 337 337 338 337 338 337 336 334 333 335 339 337 338 340 338 337 334 332 332 334 340 341 340 340 339 340 333 331 328 326 324 328 327 337 326 324 325 325 325
336 335 333 337 337 338 338 338 336 335 334 334 333 334 338 338 337 339 334 334 333 329 331 333 337 340 341 341 339 339 340 338 330 328 323 329 332 339 327 324 325 324 324
337 339 336 335 337 336 336 337 335 335 339 337 333 331 336 336 339 335 334 335 329 328 332 333 335 341 342 341 341 342 342 342 332 331 325 325 325 331 327 324 324 324 325
345 344 342 336 336 336 335 335 341 344 344 341 338 339 335 338 338 336 338 337 337 334 334 339 339 341 342 342 343 343 342 342 330 329 325 325 325 325 324 324 323 323 323
345 341 339 342 341 335 333 341 344 344 343 339 339 334 335 339 340 336 339 341 336 335 337 336 341 341 341 340 343 343 342 336 325 324 323 323 324 323 323 322 322 322 323
344 341 343 345 343 340 340 343 341 342 342 337 337 332 335 339 339 339 340 339 339 337 339 340 339 338 341 341 342 342 342 332 328 324 324 324 324 324 325 326 327 327 327
344 345 346 346 347 343 340 341 342 342 342 343 342 342 337 339 338 337 335 335 335 339 339 340 341 339 339 339 340 343 342 341 343 341 335 331 326 327 327 328 328 327 326
344 347 347 345 348 346 343 343 341 342 344 344 344 343 341 339 338 336 339 338 337 338 340 341 343 341 341 341 341 340 340 338 343 344 343 345 335 324 324 324 324 324 323
346 346 347 346 345 345 345 344 341 344 343 344 343 342 341 341 343 342 342 342 338 341 339 342 342 341 341 342 342 341 339 340 338 342 343 343 345 325 324 323 322 322 322
348 345 345 344 346 345 345 343 344 343 342 342 342 343 341 343 343 341 342 340 340 342 341 343 344 344 340 342 343 343 343 340 341 343 341 341 340 336 331 330 325 324 325
347 345 343 343 346 345 347 345 345 346 344 343 344 343 343 343 345 344 343 342 340 341 344 343 344 343 343 344 344 343 344 342 342 340 341 340 341 339 337 340 334 328 329
345 342 339 343 344 346 345 346 346 346 346 344 343 345 344 343 344 345 343 343 345 343 343 343 343 345 344 344 344 343 343 343 344 343 344 345 345 342 341 337 335 331 332
343 344 344 341 342 345 344 344 345 343 345 346 346 346 344 343 342 345 342 345 346 345 345 343 343 344 342 341 344 342 343 342 343 343 344 344 345 344 344 340 333 331 331
344 343 343 343 342 343 344 344 345 344 347 346 347 345 347 341 342 343 340 343 346 344 343 342 345 341 341 342 344 343 341 341 341 342 343 344 343 344 344 340 338 339 337
345 342 343 343 343 340 345 345 346 345 345 345 347 346 346 346 344 346 342 343 344 343 342 342 345 344 339 343 344 345 346 343 341 341 340 341 342 342 343 342 343 345 346
344 344 341 344 344 339 343 346 346 345 346 346 345 346 346 347 344 343 346 344 344 342 341 343 344 343 340 342 343 343 344 346 344 340 341 341 340 342 342 342 343 345 347
343 342 341 343 345 341 345 346 348 348 345 346 346 348 349 347 346 344 341 341 345 343 338 342 344 345 342 341 342 343 345 347 348 348 341 340 341 342 341 343 344 345 347
343 342 341 340 341 343 342 346 347 346 346 347 346 346 347 348 346 347 343 345 344 345 342 342 344 343 343 344 345 345 344 346 346 345 345 341 341 342 343 344 345 345 347

GFSSE_850_thetae_099.txt.gz
Theta_e
341 340 339 340 340 341 338 333 335 335 330 329 335 339 336 337 337 341 341 339 340 339 340 331 336 329 327 323 327 329 332 335 335 337 337 335 338 335 333 336 339 340 341
342 341 341 341 342 340 337 328 328 332 342 338 332 337 337 338 339 338 339 339 339 339 340 339 338 327 338 337 339 341 342 339 339 339 339 339 339 340 340 341 339 341 340
342 342 342 343 339 338 328 329 329 328 329 339 341 334 336 337 335 338 339 340 339 328 332 340 329 340 337 336 335 332 333 333 326 337 335 329 339 340 341 339 334 326 337
341 342 342 336 332 339 331 330 336 337 329 328 332 338 337 337 339 341 339 339 335 330 339 339 336 337 337 338 340 335 324 321 324 332 337 331 325 335 338 332 340 339 326
341 340 330 327 335 339 338 342 342 340 335 331 332 340 335 338 339 339 338 336 339 335 341 341 340 341 342 341 338 339 337 335 327 335 337 338 328 329 337 342 339 339 338
332 327 341 337 334 338 337 338 336 337 337 334 337 336 337 337 338 337 337 335 330 333 338 341 341 341 342 339 337 338 338 328 328 335 331 336 334 327 326 328 340 337 334
327 331 334 337 337 337 342 341 338 341 341 342 339 336 337 337 337 337 334 331 328 330 340 341 341 340 340 339 338 338 333 333 329 331 332 336 334 333 323 324 328 326 335
331 332 334 338 338 337 337 339 337 340 341 340 341 340 339 338 337 337 338 334 330 329 339 339 339 339 340 338 338 334 327 327 332 330 337 332 339 326 322 322 323 326 339
330 331 337 336 336 340 338 340 339 339 336 337 339 338 337 337 336 339 338 337 333 333 338 340 340 339 339 339 339 332 331 330 330 326 329 327 339 324 324 324 325 324 325
334 337 336 336 340 339 342 340 337 335 333 338 336 335 336 337 339 338 335 331 332 333 336 340 340 340 340 339 340 341 340 331 327 323 327 330 338 325 324 325 324 324 326
338 336 337 337 338 337 337 335 334 334 336 335 337 336 336 338 335 334 334 328 331 331 334 338 340 341 341 340 341 341 342 337 332 327 325 326 329 326 324 324 324 325 326
336 336 337 337 336 335 334 335 340 339 339 334 334 336 339 337 335 334 331 329 331 332 332 337 341 341 341 342 342 342 342 337 330 325 325 325 325 324 324 323 323 323 324
342 340 336 336 337 333 340 343 342 343 342 338 336 338 339 335 336 337 336 336 333 338 337 339 341 341 342 341 343 341 338 326 325 323 323 324 323 322 322 322 322 323 325
338 340 341 338 334 335 343 343 342 342 340 340 335 337 340 337 336 339 339 337 336 338 339 341 341 340 341 341 340 340 337 329 325 324 324 324 324 325 326 326 327 327 325
342 343 343 340 338 338 341 341 338 340 339 339 334 336 339 339 339 339 340 338 336 339 340 339 339 340 339 339 342 341 339 342 342 340 336 326 327 327 327 327 327 325 324
341 344 346 344 341 340 341 342 338 342 343 344 344 338 338 337 336 337 335 335 338 339 339 342 340 340 340 340 339 340 339 342 340 342 344 343 325 325 324 324 323 322 323
345 343 344 346 345 342 342 340 342 343 343 342 343 343 340 342 341 341 339 338 338 340 341 342 341 341 341 341 342 340 341 340 341 342 343 343 329 325 323 323 323 324 325
345 345 345 345 345 344 343 341 342 343 343 343 342 342 340 341 342 341 341 338 341 339 342 341 341 342 341 343 342 343 343 341 342 343 341 340 336 336 334 326 325 327 330
345 346 346 345 344 343 343 342 342 342 343 342 342 343 343 341 342 342 340 340 340 341 342 344 344 341 341 343 343 344 343 343 343 341 341 341 340 335 337 334 330 330 336
346 346 346 346 345 344 343 343 345 344 344 344 343 343 342 343 344 343 342 341 341 343 342 343 343 344 344 344 343 343 343 343 343 343 343 344 343 341 339 336 332 332 336
345 344 344 345 345 344 343 344 344 345 345 343 344 345 344 343 343 343 340 344 344 344 344 343 344 343 342 342 343 340 341 341 342 342 343 344 344 344 343 336 332 331 334
344 342 341 342 343 345 344 344 345 344 345 346 345 345 344 341 340 344 343 344 346 344 344 343 344 342 341 342 343 344 341 341 341 342 343 343 343 343 342 341 343 341 344
343 343 341 342 341 343 344 344 345 343 345 345 346 345 343 344 340 342 343 340 345 344 343 341 343 344 340 342 344 344 346 344 341 340 341 341 341 341 342 342 344 346 347
344 343 343 342 342 342 342 345 344 345 343 343 345 346 347 344 345 344 344 341 342 342 342 342 344 343 340 342 343 343 345 346 345 340 340 340 340 340 341 343 343 344 346
344 343 342 342 343 340 339 343 346 345 345 345 346 345 345 346 344 344 344 343 343 343 340 339 343 344 341 343 343 343 346 346 347 346 341 339 341 342 343 344 343 344 345
344 343 342 342 344 342 338 343 345 347 345 345 346 345 346 346 344 346 341 342 344 343 342 339 342 343 343 344 345 345 347 346 345 344 345 341 340 341 342 344 344 344 346

GFSSE_850_thetae_102.txt.gz
Theta_e
336 337 340 338 336 338 340 333 328 329 332 333 336 337 339 340 340 340 338 338 339 329 338 330 330 325 323 324 328 335 329 336 341 334 335 335 333 335 337 340 341 341 339
336 338 339 338 340 337 332 331 339 334 329 332 338 336 337 338 339 339 338 339 339 335 338 326 334 337 338 339 340 340 340 340 337 341 341 339 339 340 339 340 339 339 338
338 340 341 341 340 337 328 328 331 340 339 334 335 337 338 339 338 339 339 340 337 336 336 332 337 335 337 338 338 339 330 331 339 329 338 341 341 340 337 326 330 336 337
340 342 342 340 338 329 328 329 329 330 338 338 333 337 337 334 340 340 340 339 332 340 337 335 337 331 332 332 324 324 323 328 335 335 326 335 340 332 340 339 327 335 338
341 342 337 333 340 331 331 342 342 332 335 333 339 336 337 340 339 339 341 333 340 339 340 337 339 340 339 337 336 333 332 328 336 337 334 326 334 341 340 340 337 333 336
341 332 327 335 339 339 340 339 342 336 334 336 341 335 338 338 339 339 341 339 340 341 340 341 341 339 337 336 338 337 329 330 336 333 334 328 325 327 337 340 335 337 332
328 337 338 335 338 338 340 338 341 341 339 338 335 336 337 338 337 334 332 330 337 339 340 340 340 338 338 337 336 332 331 330 330 332 327 336 325 323 325 330 332 338 342
330 334 337 342 337 341 339 338 339 339 340 339 336 337 336 337 335 339 335 328 334 339 339 339 340 338 337 335 332 327 327 332 330 336 329 338 323 322 322 323 330 339 339
332 332 337 339 337 339 340 339 339 340 339 339 338 338 334 337 338 339 336 333 335 339 338 339 338 338 338 338 336 334 330 328 325 329 327 335 324 324 324 324 324 324 324
330 336 336 336 340 340 340 339 339 335 337 337 337 335 334 338 338 336 338 339 337 339 339 338 339 339 339 340 341 340 334 330 324 326 330 335 327 324 325 325 325 327 328
335 337 336 339 339 341 341 338 336 336 337 336 335 337 338 339 338 334 334 334 333 336 338 339 340 340 340 341 341 341 340 332 329 325 327 330 335 324 324 324 324 324 324
336 336 337 337 337 337 335 336 334 335 335 336 336 336 338 335 335 332 332 331 332 333 336 340 341 341 341 341 341 340 336 330 329 325 325 326 326 324 324 323 323 323 324
334 336 336 336 334 335 336 340 339 335 333 334 335 338 335 335 334 334 333 333 333 333 336 340 340 340 339 340 337 334 325 325 324 323 324 324 323 322 323 323 324 326 326
337 334 335 336 333 339 341 341 340 338 334 333 337 337 335 336 335 338 335 334 337 338 340 340 340 340 340 340 339 340 337 332 327 326 325 325 325 326 326 327 326 326 325
337 338 336 333 335 342 343 341 338 337 333 334 338 339 336 337 339 338 336 336 337 339 341 340 339 339 339 341 340 338 341 341 342 342 335 325 325 326 326 326 325 324 323
342 339 338 334 339 341 341 340 340 340 340 335 337 338 337 337 337 338 337 335 337 340 340 340 339 340 338 340 340 340 341 341 343 343 343 331 325 324 323 323 323 323 325
343 342 341 339 340 341 341 340 342 342 342 341 339 340 339 338 338 338 338 336 338 339 340 341 341 340 340 341 342 340 340 340 342 342 342 336 330 326 324 324 325 327 333
344 345 345 342 341 342 340 341 343 343 342 341 341 340 341 342 341 341 339 337 339 339 341 341 341 340 342 342 342 343 343 342 342 340 341 339 338 340 335 328 328 333 338
342 343 344 345 343 342 340 342 342 342 343 342 342 341 340 341 341 340 339 341 341 340 342 342 342 339 341 343 343 343 343 343 342 340 340 341 338 338 337 334 333 336 338
343 344 343 344 343 342 341 341 343 342 344 342 343 342 340 341 343 343 340 340 341 341 342 342 343 344 344 343 343 343 342 342 342 343 344 343 342 340 339 335 333 335 338
345 345 344 343 343 343 342 343 344 343 343 342 343 343 343 342 343 342 341 341 341 342 342 342 343 343 342 341 341 340 339 340 341 342 343 344 343 342 339 335 333 333 342
345 344 345 344 343 344 342 342 343 345 345 344 343 344 343 342 342 342 341 343 343 343 341 341 343 341 341 341 343 342 341 341 341 341 341 342 341 341 342 343 344 344 347
345 342 343 342 341 344 342 344 343 344 344 345 344 345 343 343 341 342 342 341 344 343 343 342 343 343 339 342 343 343 345 344 340 339 339 340 340 341 342 343 344 346 347
344 342 340 341 341 343 343 343 343 343 342 344 344 346 344 344 342 343 344 341 343 343 341 340 344 343 340 341 343 343 345 346 346 340 339 339 338 340 342 342 343 344 345
345 343 342 340 341 342 341 343 343 344 344 344 345 345 346 345 346 343 343 343 343 341 340 341 343 342 342 342 344 345 345 345 344 344 341 340 340 342 343 343 343 344 345
345 343 343 341 341 342 341 340 343 344 344 345 345 345 344 346 343 342 343 343 343 343 341 337 338 341 342 343 344 346 347 345 345 343 343 342 341 341 342 343 344 344 345

GFSSE_850_thetae_105.txt.gz
Theta_e
334 339 339 340 332 331 329 330 333 338 340 338 338 339 339 338 339 336 338 332 338 335 334 332 324 325 328 335 328 337 340 337 338 339 334 334 336 339 340 340 343 342 340
335 339 338 338 340 341 340 336 328 328 333 337 339 338 338 339 339 338 339 334 337 329 326 336 338 337 339 339 340 340 336 341 341 340 341 340 340 339 339 339 343 341 337
337 339 338 340 338 333 327 332 339 334 330 336 335 337 336 337 338 338 339 334 341 327 339 336 337 339 338 339 336 329 338 335 331 340 342 345 341 330 326 340 338 339 338
338 339 341 341 338 329 329 329 331 336 338 332 333 335 336 338 338 339 332 336 338 336 339 338 334 330 328 325 323 326 332 335 328 328 342 345 343 341 337 329 339 338 338
341 341 340 338 331 329 332 338 331 333 337 334 337 335 335 340 341 340 332 340 339 336 335 335 339 339 337 332 333 328 331 336 336 329 336 340 343 340 339 338 334 338 339
341 338 332 339 334 339 342 342 338 331 331 340 336 337 339 339 340 339 339 339 339 339 340 340 338 337 334 337 332 327 330 332 330 331 325 326 332 342 338 332 335 330 328
333 327 332 340 339 338 337 339 339 337 341 338 335 336 339 339 340 340 335 340 340 340 339 339 337 336 334 330 329 328 331 329 333 328 338 324 323 327 329 340 340 343 334
333 341 339 336 339 341 340 341 340 341 338 335 335 337 338 335 339 334 336 339 339 339 339 338 336 335 332 329 327 328 331 330 334 330 335 326 323 323 324 332 338 338 333
338 343 343 342 341 339 339 339 340 339 340 337 338 336 337 338 339 336 338 339 338 337 338 337 337 338 338 339 335 330 328 325 329 328 340 333 324 324 324 324 324 325 326
336 342 342 338 339 339 339 339 337 337 337 337 336 336 337 338 339 339 338 338 337 338 337 338 339 339 340 340 340 335 331 325 326 331 340 335 326 325 327 326 327 327 328
341 342 339 339 343 341 339 339 337 336 334 336 336 336 339 338 336 339 339 334 337 338 339 339 339 340 340 339 340 336 332 330 325 327 335 339 329 324 323 323 324 324 324
343 340 341 339 340 341 338 336 335 334 334 334 337 338 339 338 335 340 337 331 334 336 339 340 341 341 341 340 334 330 327 327 325 325 328 326 331 324 324 323 323 325 326
342 339 340 337 337 335 336 335 332 334 335 336 336 337 334 335 331 331 332 331 332 336 340 340 340 339 340 338 334 327 324 324 323 324 324 324 323 324 325 326 326 325 324
335 338 337 336 336 336 340 337 333 332 334 336 337 336 335 334 337 336 334 335 336 339 340 340 340 340 340 339 340 339 339 339 333 327 326 326 326 327 327 327 326 324 324
335 336 337 335 339 341 340 336 336 334 335 338 337 335 336 338 339 336 336 336 338 340 340 338 339 339 340 339 338 341 340 342 343 342 331 326 325 325 325 324 323 324 327
336 336 335 335 342 342 339 337 335 334 335 338 338 336 338 339 339 337 336 335 339 340 339 339 340 340 340 339 340 339 340 341 342 342 336 327 325 323 323 324 326 332 337
338 337 332 340 342 341 340 340 341 342 337 337 337 336 336 336 337 337 336 335 339 339 340 340 340 339 341 342 341 340 340 341 341 340 337 335 333 328 326 327 333 338 339
340 338 338 339 341 341 340 342 341 341 341 341 340 341 341 341 340 338 337 338 339 340 341 341 340 341 342 342 343 343 343 342 340 338 335 336 338 336 331 331 336 338 340
344 342 340 341 341 341 341 342 342 342 342 342 340 340 341 341 341 339 338 340 339 341 341 340 339 341 342 343 342 342 342 342 340 339 337 335 336 336 332 334 336 339 342
344 345 345 343 343 341 341 342 342 343 341 342 342 341 341 342 343 340 340 341 341 342 343 341 341 342 343 342 341 341 341 342 343 343 343 340 340 338 334 332 334 338 345
343 344 344 344 343 342 340 342 342 343 342 340 343 343 341 343 342 342 341 341 342 341 342 342 343 342 341 342 342 343 340 341 342 343 343 343 343 341 337 332 333 343 346
343 344 344 343 343 342 342 343 343 343 344 342 342 343 343 342 343 343 341 344 343 342 341 342 342 341 340 342 342 341 345 342 341 341 341 341 341 342 343 343 344 346 347
343 344 344 343 343 343 343 343 344 344 345 344 344 343 343 342 341 343 341 344 344 342 341 342 342 341 341 342 343 345 347 345 340 338 339 340 340 342 343 343 344 344 345
343 344 344 344 344 344 343 343 343 342 341 342 343 344 344 344 340 342 341 340 344 343 341 340 343 342 341 342 343 345 346 346 349 344 339 339 338 341 341 342 342 343 345
344 344 342 343 343 344 344 343 342 343 343 342 343 344 344 344 342 344 344 341 343 342 341 341 343 342 342 343 345 345 345 344 344 344 345 345 341 342 343 344 344 344 345
344 344 342 341 341 342 344 344 343 343 344 344 345 344 343 344 343 343 344 343 342 342 342 339 341 341 342 343 345 347 345 347 345 346 346 342 341 342 342 343 343 344 345

GFSSE_850_thetae_108.txt.gz
Theta_e
345 344 339 334 331 332 335 337 339 340 339 338 339 338 338 340 339 337 336 340 332 340 328 324 326 328 326 337 339 339 338 341 340 334 337 339 340 340 343 345 345 344 341
346 345 338 334 339 335 333 328 333 337 338 339 337 339 339 338 338 338 337 333 328 330 340 340 339 338 338 338 339 339 341 340 340 341 341 341 338 341 341 342 341 340 338
346 345 341 340 337 332 334 338 332 331 338 335 337 338 338 338 338 339 340 330 340 340 337 340 340 338 339 336 337 339 330 338 341 344 345 344 339 336 340 339 339 339 338
346 346 347 339 335 328 329 332 338 336 333 335 337 338 338 339 340 330 338 335 339 338 339 334 330 327 326 325 331 334 333 326 332 346 346 347 346 331 340 340 340 339 339
347 348 343 338 329 329 331 331 331 338 332 333 336 334 341 341 336 332 339 334 340 336 336 338 339 337 332 330 328 335 336 335 340 343 346 343 343 342 341 342 341 341 340
348 349 338 334 331 340 341 336 332 332 338 333 335 339 340 341 334 339 338 342 339 340 338 338 335 336 338 329 329 332 330 339 343 340 339 341 343 332 333 332 329 325 330
344 342 345 339 342 338 340 336 334 338 340 335 337 338 338 339 340 339 339 340 340 339 337 336 335 336 329 329 331 330 332 340 343 343 339 339 333 335 342 342 343 328 330
339 343 345 340 340 341 341 341 340 337 335 335 337 338 337 338 336 338 338 339 339 339 337 334 332 331 329 328 330 329 332 341 342 341 339 337 323 325 331 334 332 328 326
345 348 348 347 341 340 339 339 339 337 336 337 337 338 339 337 338 335 338 338 338 337 336 338 339 339 338 333 329 325 326 337 342 343 340 337 325 324 324 325 326 328 329
345 347 348 347 350 346 346 340 338 339 338 337 337 337 338 337 338 336 338 337 337 337 339 339 340 340 338 337 333 330 332 338 341 343 342 330 325 334 334 325 325 325 325
347 347 346 347 348 345 346 338 338 338 336 336 337 338 342 337 341 346 338 337 338 339 339 340 341 340 336 334 330 333 338 336 339 341 342 334 324 324 324 324 324 325 325
347 346 346 348 346 347 345 343 343 346 345 345 345 347 347 346 343 347 333 335 337 339 340 341 340 341 343 342 341 342 337 338 336 339 334 329 324 323 324 325 325 324 324
345 346 347 347 346 345 346 344 343 344 345 346 347 348 347 344 344 343 339 340 341 343 344 345 346 343 344 342 341 338 339 338 337 336 326 325 325 326 326 325 324 324 324
345 345 345 345 346 347 344 342 342 343 344 345 346 345 345 345 345 343 342 339 341 344 342 347 345 342 346 346 343 343 342 340 338 337 329 327 327 326 325 324 324 326 332
344 345 345 345 346 345 346 343 343 344 345 344 344 345 344 345 345 344 341 344 343 344 345 346 346 346 345 345 344 344 343 343 342 339 335 324 324 323 323 325 331 337 339
344 345 344 347 346 346 345 345 344 345 345 345 344 344 346 345 345 343 340 343 343 344 345 346 348 344 343 343 344 344 344 343 342 342 339 329 323 324 328 334 338 339 340
345 344 345 347 346 346 345 346 345 345 346 345 344 340 340 344 338 341 343 343 345 340 340 346 345 345 342 341 344 344 344 344 342 343 342 341 331 328 334 337 338 339 341
346 344 346 345 345 347 347 345 347 346 345 345 344 344 337 338 337 341 344 346 343 345 347 345 343 343 343 343 345 344 344 343 343 344 343 343 343 343 337 337 338 341 343
347 346 346 346 346 347 343 347 348 345 346 345 346 347 341 341 340 346 346 344 342 347 346 345 345 345 344 344 343 343 343 343 344 342 344 345 342 345 345 337 339 344 346
348 348 349 348 348 347 346 347 348 347 347 347 346 347 341 342 340 346 347 345 346 347 346 346 348 346 346 345 343 343 343 344 345 345 344 343 343 344 345 337 346 348 347
348 349 350 349 347 348 348 347 346 347 347 348 347 341 341 345 342 340 348 346 348 347 349 350 347 344 344 346 346 342 342 344 345 344 344 345 344 344 344 344 348 350 350
348 349 349 349 345 346 348 348 347 348 347 347 349 341 342 345 342 344 347 347 350 347 345 345 343 343 345 346 347 345 342 341 342 342 343 344 345 345 346 347 349 347 349
348 350 350 349 345 341 349 349 345 346 346 344 345 346 346 344 343 342 341 348 343 347 347 345 346 344 345 348 346 350 343 343 342 341 343 342 346 346 347 348 347 347 345
348 350 351 350 348 344 343 349 349 346 343 347 346 349 349 343 342 344 343 343 344 349 347 346 347 347 349 348 351 350 348 348 345 342 341 342 343 343 346 346 345 348 345
348 349 351 351 342 349 342 346 344 347 347 347 347 349 347 343 342 346 342 340 343 348 343 343 344 346 348 350 350 352 351 351 346 344 343 343 342 345 348 348 348 349 351
347 348 350 351 342 346 343 343 345 348 348 346 344 349 349 349 349 345 347 342 342 346 342 345 342 341 347 348 351 352 350 350 349 347 345 346 345 348 348 349 350 350 351

GFSSE_850_thetae_111.txt.gz
Theta_e
346 338 336 337 338 338 339 338 338 338 338 339 338 340 340 338 333 340 333 339 332 323 323 324 327 338 339 339 339 340 339 336 336 339 340 340 343 343 345 345 345 342 338
346 344 331 337 331 329 330 336 337 338 337 338 340 340 338 338 337 334 328 325 335 338 339 337 337 336 339 337 341 340 340 340 342 342 338 342 341 342 342 341 341 339 339
346 341 339 340 337 336 337 330 331 335 335 341 338 339 338 338 338 330 336 339 337 339 340 339 339 341 338 339 332 335 341 344 344 346 346 342 342 339 338 338 338 338 339
345 346 348 336 331 328 333 338 335 332 335 337 338 338 339 340 337 335 336 339 339 337 330 330 330 325 332 334 334 326 332 343 346 348 348 343 344 339 340 341 340 340 339
347 349 340 335 328 329 329 332 336 334 333 336 336 340 340 332 339 338 340 340 336 339 339 338 333 337 328 334 336 335 340 341 343 347 343 343 343 343 343 343 340 338 339
349 349 338 330 333 341 335 332 336 335 334 336 339 340 340 338 339 338 338 339 340 339 339 334 338 337 328 332 330 338 341 343 341 342 344 342 341 332 337 328 325 337 337
346 346 345 337 340 341 337 332 333 340 334 338 338 339 339 339 338 339 337 341 338 335 334 336 333 332 330 330 331 336 342 345 342 340 341 342 341 342 343 339 327 338 339
342 346 345 339 339 339 339 339 339 338 335 338 339 336 337 335 338 339 340 339 337 335 332 332 331 328 328 328 329 336 342 342 341 340 340 336 325 327 328 326 326 326 327
347 346 347 347 341 339 338 339 336 335 337 338 336 336 335 331 336 337 338 338 335 337 339 338 338 335 330 326 324 334 339 341 344 340 338 335 325 326 327 328 328 328 332
347 347 348 349 349 348 346 339 337 336 336 337 337 336 335 333 332 337 337 337 339 339 340 340 338 335 331 329 329 338 340 341 345 343 339 325 333 330 324 324 324 325 325
345 347 347 347 347 347 345 339 337 337 335 336 337 335 341 346 346 347 338 337 339 340 341 340 334 342 339 328 337 338 339 339 341 343 339 324 323 323 324 324 325 324 324
346 347 348 345 348 347 346 346 345 345 345 343 344 341 343 346 347 345 336 338 339 340 340 339 339 342 344 348 345 339 338 337 339 339 324 323 323 324 325 324 324 324 325
347 344 348 345 345 345 344 345 346 345 344 345 346 347 344 342 345 340 336 340 343 346 347 345 346 343 342 340 337 338 339 338 337 336 326 325 325 324 324 324 325 329 334
344 346 344 345 346 343 342 344 344 343 345 347 347 345 345 342 344 342 342 345 345 346 346 343 342 344 342 344 341 341 340 338 337 337 326 325 324 324 324 328 334 338 339
344 344 345 345 346 345 343 342 345 344 345 346 345 344 346 345 343 345 345 345 345 346 345 345 345 345 344 344 342 343 341 342 340 336 326 323 323 326 331 337 339 339 339
344 344 344 346 346 347 344 345 344 345 344 344 344 345 347 344 346 345 346 344 345 345 346 346 349 344 343 341 344 343 343 342 343 341 337 324 327 333 337 338 339 340 341
345 344 347 348 345 345 344 344 345 344 345 344 346 348 348 346 348 345 344 345 346 343 345 344 344 343 341 340 343 344 343 343 342 345 342 341 335 336 337 338 340 341 343
345 345 346 344 345 344 346 347 346 344 345 344 345 347 347 346 347 346 345 346 345 348 345 343 343 341 341 341 343 344 343 342 343 345 344 344 345 343 337 338 341 344 345
346 345 347 345 345 346 345 348 346 347 345 345 345 346 349 348 342 347 345 347 346 343 344 342 343 344 341 341 343 344 344 342 345 344 345 345 344 347 346 339 345 346 345
346 347 346 346 348 347 349 346 346 348 346 345 346 348 347 349 348 349 347 346 348 347 342 349 347 344 344 344 344 343 344 345 345 345 344 344 345 347 346 347 349 350 347
346 347 346 347 349 350 348 346 346 345 347 346 348 349 347 349 347 345 348 345 351 347 348 345 344 344 345 342 346 343 344 345 346 345 345 345 342 345 344 344 351 351 352
346 348 349 349 349 349 347 347 346 346 346 347 348 349 351 350 350 348 350 349 348 345 345 351 347 344 344 347 349 343 342 343 343 343 344 344 345 345 346 349 350 351 350
345 348 348 349 350 348 349 349 349 349 348 347 349 348 349 350 350 349 345 349 347 349 347 347 342 347 347 346 347 353 346 344 343 343 344 344 346 347 347 348 348 348 350
346 347 351 350 351 348 351 349 349 346 345 348 348 348 350 350 350 349 350 349 344 349 349 343 346 345 352 346 346 349 342 351 352 342 342 343 344 345 346 347 346 349 351
347 346 348 349 351 351 350 349 350 348 348 348 348 349 349 351 351 350 348 347 344 350 346 354 346 351 349 351 350 348 345 346 342 347 344 344 342 345 348 348 347 348 352
346 345 348 349 350 353 351 350 345 348 349 349 349 351 349 349 350 351 350 352 351 353 349 350 352 345 353 348 351 350 349 350 348 347 345 342 346 347 347 348 349 350 350

GFSSE_850_thetae_117.txt.gz
Theta_e
340 340 340 339 338 339 339 338 338 337 339 338 336 338 335 339 328 322 324 327 338 337 336 335 336 337 337 332 335 339 339 339 340 340 340 343 343 344 342 335 336 335 335
339 338 338 338 339 338 338 338 338 338 337 337 337 337 338 330 333 339 339 336 338 338 339 337 338 337 338 338 339 338 338 339 341 342 343 343 344 343 340 338 337 337 338
334 339 333 328 329 333 335 335 337 337 337 336 335 327 330 340 339 340 339 337 337 338 340 336 330 338 342 342 343 343 342 340 342 339 339 339 339 337 337 336 336 335 335
334 336 334 334 335 332 336 335 335 336 337 338 338 332 340 335 337 335 328 331 334 325 326 332 331 330 339 344 344 343 339 342 344 340 337 338 339 338 337 336 336 339 337
339 335 328 328 331 335 335 335 335 335 338 337 338 335 336 335 334 337 335 333 331 331 328 328 333 329 339 339 341 343 342 341 342 339 339 339 339 340 338 340 340 338 336
343 334 328 330 331 332 335 330 333 334 339 333 336 335 335 336 333 336 338 336 333 334 329 328 329 333 339 341 342 343 345 342 337 335 332 333 326 331 337 336 336 337 339
342 331 335 339 333 333 332 331 333 336 340 337 336 337 337 339 338 334 332 331 332 329 328 329 327 333 342 341 340 341 340 338 332 338 339 341 337 327 339 339 339 341 331
334 332 338 339 333 331 336 335 336 337 339 336 337 338 337 339 337 332 332 328 327 326 327 327 326 330 343 342 340 340 340 337 325 325 327 327 326 326 326 326 327 326 325
335 336 337 338 338 338 338 335 335 337 338 338 336 336 339 335 337 334 330 334 333 331 326 324 324 327 337 341 342 341 340 340 329 324 325 326 326 326 326 328 328 323 322
342 340 339 337 337 337 336 333 336 337 336 335 334 335 336 337 334 334 335 337 331 327 327 325 328 338 338 342 343 343 342 342 339 324 325 323 323 323 323 323 323 323 324
343 347 345 343 338 336 334 335 335 336 336 337 334 335 336 336 335 337 339 335 329 338 341 332 336 337 337 338 339 342 343 342 337 323 323 323 323 323 323 324 326 329 335
343 346 344 344 338 335 336 336 335 336 336 337 337 336 341 340 336 339 338 335 339 341 342 343 341 342 341 339 337 338 341 339 331 323 323 323 323 323 326 330 336 339 338
345 346 345 344 344 340 338 336 337 339 338 336 335 340 340 338 336 338 343 344 341 343 345 345 344 341 340 338 338 337 340 338 334 324 323 323 324 328 335 338 337 337 338
347 348 344 344 345 345 346 342 343 336 335 337 335 339 339 339 339 342 344 345 341 340 342 343 338 340 341 341 340 339 338 338 335 323 324 325 331 337 337 336 338 340 343
345 348 344 341 344 345 348 345 343 340 335 338 339 340 342 344 342 343 343 339 341 343 342 341 342 342 342 344 340 341 341 338 337 325 329 334 336 335 336 339 341 342 343
345 345 343 342 345 345 345 343 343 341 340 337 342 342 343 342 344 346 342 341 341 340 341 343 344 343 339 342 344 340 340 342 340 337 335 334 335 337 338 340 342 342 343
346 344 343 343 344 343 344 344 344 345 345 342 341 342 343 342 341 342 345 343 339 339 340 343 345 345 343 339 344 343 341 342 341 343 343 338 337 337 340 341 343 343 343
346 343 343 342 343 343 344 345 345 346 346 344 344 345 344 342 346 345 342 341 341 346 345 345 346 343 343 344 344 344 342 337 344 344 344 345 346 340 341 341 342 344 345
344 343 346 342 342 343 345 346 346 344 344 345 343 340 339 343 345 346 346 342 339 345 345 347 345 344 342 343 344 343 343 345 343 343 344 344 346 348 343 345 348 349 348
343 344 343 341 343 341 346 346 345 345 345 346 345 345 336 345 347 348 344 339 341 342 344 343 344 344 345 344 345 344 344 345 343 342 341 341 342 345 344 349 350 350 351
346 345 343 343 343 344 346 347 346 346 346 346 346 344 341 344 346 345 341 340 341 342 342 341 341 346 344 346 345 345 344 345 344 344 345 344 343 346 343 345 342 343 346
347 346 343 344 340 344 345 344 346 346 347 346 348 345 344 343 345 343 341 336 343 341 340 340 345 349 345 344 348 346 344 345 346 345 345 346 344 346 345 348 346 347 351
347 345 343 344 342 344 346 346 347 347 347 347 348 344 347 346 345 348 346 340 340 338 343 344 347 349 343 345 346 347 348 348 345 345 345 343 345 346 347 348 347 348 351
342 343 342 346 343 346 348 347 346 346 345 347 348 346 344 342 344 345 345 343 345 338 340 345 348 349 350 344 340 343 345 345 347 347 344 345 344 346 347 345 347 348 350
344 343 345 344 341 347 347 348 345 345 347 348 348 346 346 343 346 348 344 343 332 344 344 342 348 344 348 349 346 350 347 345 342 344 347 345 342 346 347 349 350 349 350
346 348 343 342 339 347 344 347 346 345 345 349 349 349 347 344 345 348 349 342 341 345 343 349 345 343 346 347 347 346 346 347 344 341 338 338 339 341 343 343 348 346 344

GFSSE_850_thetae_120.txt.gz
Theta_e
338 340 339 338 338 337 339 338 339 339 335 336 338 339 338 323 323 324 329 333 338 332 332 333 333 333 333 337 338 339 339 338 339 340 340 342 341 334 332 332 332 333 332
339 339 337 337 337 337 338 338 338 338 337 338 334 338 322 325 324 330 335 337 336 335 336 336 336 332 336 338 339 340 340 342 343 344 344 344 343 341 336 336 341 340 339
338 338 338 337 335 337 337 338 338 338 339 334 333 330 340 338 335 335 337 338 339 335 333 337 339 340 341 341 341 338 339 341 339 338 337 337 338 337 338 341 338 334 336
332 330 329 331 331 334 335 337 337 337 338 328 337 338 339 340 340 339 339 339 334 334 328 338 342 343 341 340 336 341 344 342 336 336 336 337 337 336 335 338 339 337 339
336 336 341 334 332 335 333 335 336 338 338 332 338 337 338 333 332 329 330 326 326 329 330 327 336 343 343 342 342 342 343 339 338 338 338 337 339 340 341 340 334 335 335
333 328 337 335 334 337 335 340 338 338 338 336 338 338 339 339 336 334 333 330 331 328 331 329 336 339 341 343 344 341 338 340 340 332 331 335 338 333 331 332 334 336 337
331 328 330 331 338 334 332 334 340 336 335 336 339 337 338 338 337 336 331 331 327 328 328 330 338 342 340 340 340 339 337 334 333 337 333 324 329 343 340 339 344 331 328
331 336 336 333 336 332 337 333 339 337 336 337 337 338 337 335 332 327 326 325 327 328 327 331 341 341 341 339 338 339 336 327 332 330 326 325 326 329 328 328 328 325 324
334 337 336 332 332 337 333 336 338 338 337 337 337 338 341 336 332 330 331 329 325 324 325 330 342 341 340 340 340 341 340 330 324 325 325 325 325 326 330 326 323 322 322
337 337 338 338 338 338 332 335 337 338 338 336 338 335 341 334 333 333 331 331 327 325 328 329 338 340 342 343 341 342 342 336 324 326 324 323 323 323 323 323 324 325 327
341 340 337 336 337 334 331 336 336 336 335 335 336 337 335 334 337 337 330 333 326 327 334 338 338 343 342 342 343 343 342 338 325 323 323 323 323 323 324 326 330 335 338
345 344 341 337 335 333 334 335 336 336 335 332 335 335 335 335 338 332 332 341 342 339 336 337 337 337 337 338 341 342 340 336 323 323 323 323 324 326 330 336 338 337 336
343 342 341 334 335 336 335 335 336 335 337 331 335 337 336 337 338 340 340 342 343 344 344 343 342 342 338 337 338 341 340 337 324 323 323 324 328 334 337 336 336 339 342
343 343 344 341 339 337 335 336 337 336 335 337 339 337 334 337 340 343 342 339 340 340 338 340 341 340 339 339 338 337 338 337 325 323 325 331 336 336 335 338 340 342 343
344 341 344 344 343 343 342 341 337 337 336 334 337 337 340 341 342 343 340 340 341 341 340 341 342 343 344 340 341 339 338 338 327 326 333 335 334 336 339 341 342 342 343
344 343 343 345 344 345 342 341 335 335 337 337 340 342 343 342 341 339 340 340 341 341 341 342 342 343 342 343 341 341 339 341 335 335 334 334 336 338 340 341 342 343 344
343 342 343 345 345 345 343 342 339 337 339 338 342 342 341 344 341 338 340 342 340 340 342 343 344 344 341 343 343 342 337 340 340 340 338 337 337 339 341 342 343 344 345
343 342 342 342 344 344 343 344 343 341 341 341 341 342 341 340 344 342 341 340 342 342 343 344 346 342 341 342 343 343 342 338 341 343 344 345 344 340 340 344 345 346 348
344 343 344 340 343 344 343 344 345 345 342 341 340 341 343 343 343 341 343 339 339 344 344 344 346 343 342 344 344 343 342 342 339 340 343 344 345 341 342 341 348 350 349
343 342 342 342 341 344 345 345 345 344 343 343 343 337 340 343 343 340 346 344 337 343 343 344 344 345 344 343 344 343 343 344 343 340 340 341 344 345 344 348 346 345 347
344 342 339 339 342 345 345 345 344 344 343 345 343 339 340 344 342 342 341 337 340 342 343 341 346 344 345 347 345 343 343 344 343 344 344 344 343 345 344 345 346 348 349
344 342 341 342 341 342 345 345 345 345 345 345 345 344 338 345 347 345 341 339 339 343 340 344 347 344 344 344 345 345 344 344 345 345 345 345 345 344 345 345 346 347 349
343 343 341 342 340 345 346 346 345 346 345 345 343 341 338 344 344 342 342 339 338 338 340 345 348 345 343 345 347 347 347 348 346 345 346 345 345 344 346 346 346 347 349
343 344 342 343 341 343 345 345 346 346 346 343 344 343 346 345 338 343 345 341 338 337 345 343 347 347 345 341 346 344 345 343 347 345 343 345 343 343 346 346 347 348 348
343 343 342 343 341 343 344 346 346 346 344 347 348 346 345 342 346 346 341 340 341 337 342 343 347 345 347 346 346 348 343 346 344 341 342 345 343 342 344 344 343 347 347
341 343 343 343 342 343 347 347 346 346 345 346 347 347 346 344 346 346 343 341 335 344 344 340 344 344 343 346 346 347 342 347 341 340 339 338 342 340 341 339 341 346 344